     2.11           OBSERVATION DATA    G (GPS)             RINEX VERSION / TYPE
teqc 2010Oct21 OPUS Account 20111027 17:16:16UTC            PGM / RUN BY / DATE
P 1525                                                      MARKER NAME
3022                                                        MARKER NUMBER
CSMIDDLETON NGS                                             OBSERVER / AGENCY
0220316069 TRIMBLE 5700 1.30                                REC # / TYPE / VERS
60183425 TRM41249.00 NONE                                   ANT # / TYPE
  -760661.6795 -5551975.9468  3035833.7761                  APPROX POSITION XYZ
        2.0010        0.0000        0.0000                  ANTENNA: DELTA H/E/N
     1     1                                                WAVELENGTH FACT L1/2
     5    L1    L2    C1    P1    P2                        # / TYPES OF OBSERV
    15                                                      LEAP SECONDS
  2011     8    17    15    35   30.0000000     GPS         TIME OF FIRST OBS
                                                            END OF HEADER
 11  8 17 15 35 30.0000000  0 10G03G06G07G10G13G16G19G20G23G32
   -216221.26658   -152845.30956  20851054.2114                   20851052.9024
   -153289.23857   -109621.42055  22077864.5784                   22077863.6094
   -284442.46157   -183565.06254  23153977.3204                   23153976.0634
   -211391.50456   -157722.36853  24017069.0474                   24017068.0234
   -285208.25858   -200972.39356  20562941.6414                   20562939.6604
    -34791.02058    -28674.55255  21757218.7974                   21757216.3914
   -330706.37958   -232396.00755  22086874.8914                   22086871.6334
    -18485.78557    -17213.87454  23481703.1884                   23481702.8794
   -185551.51658   -132159.51957  19966438.1334                   19966434.3204
     -8085.15656     -9681.86853  24461310.1414                   24461312.1644
 11  8 17 15 36  0.0000000  0 10G03G06G07G10G13G16G19G20G23G32
   -329044.82448   -240759.76146  20829584.4924                   20829583.5744
   -233294.84047   -171963.44545  22062640.0554                   22062639.6564
   -439721.41047   -304561.61645  23124428.3524                   23124426.7544
   -339198.82046   -257312.54443  23992747.7974                   23992747.6994
   -434926.61748   -317636.05246  20534450.9774                   20534449.3284
    -53316.93748    -43110.37146  21753693.8204                   21753691.0904
   -503794.34848   -367269.73045  22053937.1334                   22053933.8364
    -28853.72747    -25292.87844  23479730.6724                   23479730.3324
   -282784.05148   -207925.15247  19947935.5474                   19947931.5554
    -13330.99746    -13769.74643  24460312.4144                   24460314.1914
 11  8 17 15 36 30.0000000  0 10G03G06G07G10G13G16G19G20G23G32
   -441693.63348   -328538.06546  20808148.4844                   20808147.2234
   -313187.48447   -234217.49245  22047437.0864                   22047436.4344
   -595426.87147   -425890.52845  23094799.1094                   23094797.5864
   -466941.02746   -356851.84443  23968439.6564                   23968438.8984
   -584673.71548   -434322.10246  20505955.1024                   20505953.0394
    -72057.89147    -57713.74246  21750127.4844                   21750125.2544
   -676982.89147   -502221.81945  22020980.1954                   22020977.0394
    -39618.76247    -33681.31644  23477682.4614                   23477681.4654
   -379909.29748   -283607.17547  19929452.9844                   19929448.8164
    -19080.10546    -18249.82243  24459218.4694                   24459220.6174
 11  8 17 15 37  0.0000000  0 10G03G06G07G10G13G16G19G20G23G32
   -554130.77348   -416151.42046  20786752.1334                   20786751.2034
   -392931.37947   -296355.58145  22032262.4534                   22032261.2974
   -751522.61746   -547523.57545  23065094.5394                   23065093.4414
   -594581.48046   -456311.95443  23944150.2504                   23944149.6684
   -734411.14848   -551000.60846  20477461.3364                   20477459.2664
    -90980.23048    -72458.47045  21746526.4774                   21746524.2894
   -850232.41847   -637221.41145  21988012.1724                   21988009.1764
    -50747.84047    -42353.43843  23475564.0784                   23475563.0004
   -476890.30148   -359176.81147  19910998.1024                   19910993.8364
    -25299.02046    -23095.97243  24458034.6644                   24458037.9144
 11  8 17 15 37 30.0000000  0 10G03G06G07G10G13G16G19G20G23G32
   -666326.53148   -503576.69046  20765401.9144                   20765400.9804
   -472498.01647   -358355.58945  22017121.4614                   22017120.6414
   -907980.00846   -669438.42445  23035321.5084                   23035320.6564
   -722090.96546   -555670.01643  23919886.3984                   23919885.6054
   -884107.72348   -667647.31046  20448974.8834                   20448972.5944
   -110057.99248    -87324.28545  21742896.2664                   21742894.0864
  -1023510.93447   -772243.62145  21955038.1414                   21955035.1524
    -62215.02746    -51288.95044  23473382.3134                   23473381.1094
   -573697.35948   -434610.89647  19892576.4224                   19892572.3094
    -31961.37145    -28287.68743  24456767.4064                   24456770.1604
 11  8 17 15 38  0.0000000  0 10G03G06G07G10G13G16G19G20G23G32
   -778258.14848   -590796.13346  20744102.3674                   20744101.1214
   -551865.89147   -420200.70545  22002017.6254                   22002017.0274
  -1064777.72346   -791618.45545  23005483.9614                   23005482.7624
   -849447.61346   -654908.98444  23895650.9774                   23895650.8524
  -1033739.14148   -784243.22446  20420501.1094                   20420498.7074
   -129271.98848   -102296.26945  21739239.9384                   21739237.8364
  -1196794.02347   -907269.37345  21922063.6484                   21922060.3014
    -74001.44946    -60473.28344  23471139.4064                   23471138.3484
   -670307.69548   -509891.70147  19874192.1334                   19874188.3404
    -39047.78146    -33809.72943  24455419.0944                   24455421.5204
 11  8 17 15 38 30.0000000  0 10G03G06G07G10G13G16G19G20G23G32
   -889905.84848   -677794.36846  20722856.2424                   20722855.4494
   -631016.64147   -481876.62145  21986956.3524                   21986955.7304
  -1221896.92646   -914048.98045  22975585.3984                   22975584.4774
   -976632.40246   -754013.98044  23871448.6414                   23871447.8714
  -1183284.12948   -900771.78346  20392043.5084                   20392041.3134
   -148606.02047   -117361.78445  21735560.6804                   21735558.9574
  -1370059.42647  -1042281.34245  21889092.0234                   21889089.3834
    -86091.25046    -69894.00644  23468838.3364                   23468838.4494
   -766701.84848   -585004.04647  19855849.0554                   19855845.0084
    -46541.91046    -39649.60243  24453992.6644                   24453995.9494
 11  8 17 15 39  0.0000000  0 10G03G06G07G10G13G16G19G20G23G32
  -1001250.85248   -764556.71246  20701668.4534                   20701667.1454
   -709932.64147   -543369.61645  21971939.1334                   21971937.9304
  -1379319.54347  -1036715.93045  22945628.3594                   22945627.4184
  -1103626.86346   -852970.72544  23847282.3834                   23847281.5434
  -1332722.78548  -1017217.48546  20363606.1644                   20363604.2034
   -168044.60247   -132508.77545  21731862.0234                   21731859.6994
  -1543286.39847  -1177263.36746  21856128.3054                   21856125.3244
    -98469.43447    -79539.47944  23466483.8914                   23466483.6644
   -862860.98848   -659933.25547  19837550.3204                   19837546.4144
    -54428.37146    -45795.13543  24452492.9924                   24452495.3794
 11  8 17 15 39 30.0000000  0 10G03G06G07G10G13G16G19G20G23G32
  -1112277.40248   -851070.91146  20680540.2424                   20680539.4734
   -788599.67247   -604668.62245  21956969.4844                   21956968.3554
  -1537031.19947  -1159608.10745  22915617.2584                   22915616.5664
  -1230416.30146   -951767.64943  23823155.1024                   23823154.1454
  -1482037.85548  -1133566.89046  20335192.5864                   20335190.0434
   -187575.81247   -147727.93045  21728145.1094                   21728143.2154
  -1716457.12148  -1312201.56846  21823175.3754                   21823172.3794
   -111124.03546    -89400.34144  23464075.9224                   23464075.7464
   -958769.58248   -734667.23847  19819299.8674                   19819295.6214
    -62694.66046    -52236.70543  24450919.4924                   24450922.9734
 11  8 17 15 40  0.0000000  0 10G03G06G07G10G13G16G19G20G23G32
    352457.39548    290280.86446  20959269.8834                   20959269.2034
    708423.15247    561842.66245  22241842.9064                   22241842.5124
   -119588.10947    -55106.97745  23185347.1414                   23185346.9694
    218442.77046    177213.42844  24098863.2974                   24098863.2344
    -55783.29348    -22199.69546  20606599.6484                   20606597.5084
   1368237.11747   1064593.79145  22024206.4144                   22024204.4184
   -314123.74248   -219474.23246  22090030.1954                   22090027.5984
   1451380.93047   1128135.90544  23761410.7584                   23761410.7664
    521015.09848    418411.72047  20100893.1484                   20100889.3984
   1504095.49646   1168638.48243  24749070.8134                   24749072.5354
 11  8 17 15 40 30.0000000  0 10G03G06G07G10G13G16G19G20G23G32
    242121.24248    204304.63846  20938273.8914                   20938272.8404
    630304.32047    500970.83445  22226977.6804                   22226977.0594
   -277826.80947   -178409.83345  23155235.6484                   23155234.3834
     92115.94946     78776.90144  24074824.5554                   24074824.0824
   -204792.66448   -138310.89146  20578244.3204                   20578241.9924
   1348564.28147   1049264.28445  22020463.2424                   22020461.0634
   -487120.86348   -354277.14246  22057109.4534                   22057107.1764
   1438216.18046   1117877.54344  23758905.4924                   23758905.0784
    425661.20748    344109.97047  20082748.0784                   20082744.0904
   1495113.13746   1161639.01543  24747360.9534                   24747363.4304
 11  8 17 15 41  0.0000000  0 10G03G06G07G10G13G16G19G20G23G32
    132148.76248    118611.77146  20917346.7504                   20917345.6454
    552476.10547    440325.46545  22212167.5004                   22212167.0784
   -436311.69147   -301904.51745  23125076.7974                   23125075.9384
    -33961.84446    -19465.51244  24050832.7734                   24050832.1914
   -353628.52348   -254286.88046  20549922.0234                   20549919.5274
   1328834.19148   1033890.15945  22016708.7114                   22016706.4614
   -660009.43447   -488995.47746  22024210.1254                   22024207.0944
   1424809.43447   1107430.57944  23756354.1644                   23756354.2114
    330603.18848    270038.77747  20064659.1174                   20064655.0004
   1485786.48446   1154371.24543  24745586.6644                   24745588.8834
 11  8 17 15 41 30.0000000  0 10G03G06G07G10G13G16G19G20G23G32
     22554.51248     33213.64646  20896491.8054                   20896490.8204
    474952.00447    379917.07045  22197414.6724                   22197414.1684
   -595029.01247   -425580.33845  23094873.8594                   23094872.7114
   -159776.70746   -117503.03744  24026891.4844                   24026890.7814
   -502274.48848   -370114.90246  20521635.2894                   20521633.1214
   1309058.07448   1018480.15445  22012945.1954                   22012943.3674
   -832772.18048   -623615.77845  21991334.1484                   21991331.6024
   1411171.77746   1096803.75544  23753758.9144                   23753758.5234
    235855.80548    196209.63747  20046629.4304                   20046625.0864
   1476127.30146   1146844.33243  24743748.6414                   24743751.1174
 11  8 17 15 42  0.0000000  0 10G03G06G07G10G13G16G19G20G23G32
    -86650.97747    -51881.53946  20875710.8134                   20875709.7854
    397741.37547    319752.93645  22182722.3524                   22182721.6134
   -753968.96147   -549429.63745  23064629.0554                   23064627.3164
   -285318.28546   -215327.65944  24003001.4614                   24003000.8834
   -650718.34848   -485785.43546  20493387.3914                   20493385.3794
   1289243.18447   1003039.95745  22009174.6804                   22009172.3444
  -1005396.60247   -758128.30346  21958484.8754                   21958482.1174
   1397310.30546   1086002.47644  23751120.9694                   23751120.7704
    141429.82048    122630.93847  20028660.6804                   20028656.9694
   1466142.73846   1139063.89843  24741849.1094                   24741851.7854
 11  8 17 15 42 30.0000000  0 10G03G06G07G10G13G16G19G20G23G32
   -195451.96548   -136661.53946  20855006.2974                   20855005.7854
    320858.54747    259844.21345  22168092.1564                   22168091.5124
   -913117.06247   -673441.12445  23034344.1094                   23034342.3244
   -410571.96546   -312927.93544  23979165.9774                   23979166.0864
   -798942.92248   -601285.11346  20465181.0944                   20465178.7074
   1269402.24247    987579.44745  22005399.2734                   22005397.0984
  -1177864.50847   -892518.83345  21925665.7274                   21925662.3554
   1383236.77346   1075036.00844  23748442.4304                   23748442.8794
     47340.45748     49314.52547  20010755.9384                   20010752.6454
   1455845.31346   1131039.70943  24739889.9064                   24739892.6884
 11  8 17 15 43  0.0000000  0 10G03G06G07G10G13G16G19G20G23G32
   -303839.39148   -221119.27646  20834381.0944                   20834380.1294
    244311.08247    200196.83045  22153525.6334                   22153524.7894
  -1072464.61747   -797608.02344  23004021.0394                   23004019.7034
   -535529.31246   -410297.32044  23955387.9924                   23955387.9104
   -946937.43748   -716605.51146  20437018.7664                   20437016.8754
   1249540.57847    972102.79045  22001619.7504                   22001617.5704
  -1350165.01248  -1026778.94945  21892877.4774                   21892874.5434
   1368957.02046   1063908.75543  23745725.5234                   23745725.0904
    -46403.35548    -23732.61147  19992917.2424                   19992913.1884
   1445240.96546   1122776.28043  24737871.4224                   24737874.6914
 11  8 17 15 43 30.0000000  0 10G03G06G07G10G13G16G19G20G23G32
   -411801.53948   -305245.64846  20813836.4774                   20813835.5204
    168110.00047    140819.35645  22139025.2664                   22139024.3244
  -1232000.64147   -921921.79845  22973661.9064                   22973661.0234
   -660178.59446   -507426.62244  23931667.5864                   23931667.3554
  -1094688.48048   -831736.19646  20408902.6724                   20408900.4804
   1229667.02747    956616.86745  21997837.7734                   21997835.6564
  -1522283.18748  -1160896.99746  21860124.9064                   21860122.0124
   1354479.38746   1052627.38243  23742971.2274                   23742970.7664
   -139789.58648    -96501.11347  19975146.2894                   19975142.3914
   1434338.59045   1114280.65242  24735797.1174                   24735800.0944
 11  8 17 15 44  0.0000000  0 10G03G06G07G10G13G16G19G20G23G32
   -519329.83648   -389033.92846  20793374.5704                   20793373.6684
     92262.35247     81717.26945  22124591.6174                   22124591.4024
  -1391717.14847  -1046376.20644  22943268.8834                   22943267.8094
   -784512.23047   -604310.03044  23908007.7114                   23908007.4224
  -1242186.08248   -946669.40446  20380834.6484                   20380832.8284
   1209786.98847    941125.89945  21994054.6254                   21994052.5274
  -1694208.32848  -1294864.61946  21827408.6884                   21827405.6294
   1339808.72346   1041195.53943  23740179.9144                   23740179.6054
   -232809.52748   -168984.19647  19957445.3444                   19957441.6254
   1423143.93445   1105557.26143  24733666.2194                   24733670.5904
 11  8 17 15 44 30.0000000  0 10G03G06G07G10G13G16G19G20G23G32
   -626416.72748   -472478.27846  20772996.6884                   20772995.7584
     16774.61747     22895.65145  22110227.2424                   22110226.5004
  -1551607.25447  -1170965.88145  22912843.1564                   22912841.7424
   -908522.85546   -700941.67744  23884409.1174                   23884409.3484
  -1389420.67648  -1061397.65646  20352816.8364                   20352814.8634
   1189904.98047    925633.40245  21990271.1644                   21990268.9184
  -1865930.39548  -1428673.98646  21794730.8364                   21794727.3984
   1324949.27746   1029616.64143  23737351.8594                   23737350.7344
   -325455.59048   -241175.96947  19939815.3594                   19939811.3094
   1411661.40245   1096609.58242  24731482.0634                   24731485.8244
 11  8 17 15 45  0.0000000  0  9G03G06G07G10G13G16G19G20G23
   -733054.34448   -555572.51946  20752704.0314                   20752702.9264
    -58346.91847    -35640.61345  22095931.3674                   22095930.9494
  -1711663.67247  -1295685.15345  22882385.3054                   22882384.0084
  -1032203.38346   -797316.11744  23860873.4144                   23860873.3244
  -1536383.22748  -1175913.92946  20324851.0164                   20324848.6024
   1170025.66847    910142.98045  21986488.3984                   21986486.2114
  -2037439.23847  -1562317.23346  21762093.9064                   21762090.7544
   1309905.84446   1017894.35643  23734489.5784                   23734488.5634
   -417720.45748   -313070.69347  19922258.0004                   19922253.9264
 11  8 17 15 45 30.0000000  0  9G03G06G07G10G13G16G19G20G23
   -839235.05948   -638310.74146  20732498.5634                   20732497.7424
   -133095.53147    -93886.30945  22081707.2274                   22081706.7384
  -1871879.36747  -1420528.53645  22851897.5084                   22851895.8954
  -1155547.08646   -893428.09243  23837402.0164                   23837401.9614
  -1683064.01248  -1290210.64646  20296938.4064                   20296936.3284
   1150153.64147    894658.24945  21982706.7894                   21982704.6054
  -2208724.73047  -1695786.43446  21729499.4614                   21729496.6994
   1294682.51246   1006031.96443  23731592.2194                   23731591.4104
   -509596.25448   -384662.22747  19904774.7344                   19904770.9534
 11  8 17 15 46  0.0000000  0 10G03G06G07G10G13G16G19G20G23G08
   -944948.45348   -720684.82346  20712382.1174                   20712381.2154
   -207461.64847   -151833.95845  22067556.3054                   22067555.3204
  -2032243.92647  -1545487.90745  22821380.8914                   22821379.6524
  -1278543.21946   -989269.21244  23813996.7194                   23813996.1254
  -1829450.47748  -1404278.02946  20269081.8054                   20269080.1054
   1130296.48047    879185.10645  21978928.4694                   21978926.4224
  -2379773.79347  -1829071.41146  21696949.6094                   21696946.6484
   1279286.71546    994035.06943  23728663.2424                   23728662.2584
   -601071.93748   -455942.01447  19887367.3594                   19887363.4144
   1318129.64855   1054673.03153  24875054.6724                   24875055.2894
 11  8 17 15 46 30.0000000  0 10G03G06G07G10G13G16G19G20G23G08
  -1050195.71547   -802695.68046  20692354.1804                   20692353.3164
   -281448.00447   -209485.66545  22053476.9774                   22053476.8714
  -2192759.36747  -1670564.88545  22790836.0314                   22790834.4454
  -1401193.71546  -1084841.05944  23790656.6564                   23790657.0274
  -1975542.19948  -1518115.74546  20241281.7274                   20241279.6684
   1110450.13747    863720.39745  21975151.4694                   21975149.1484
  -2550585.21547  -1962171.17946  21664445.3204                   21664442.8364
   1263713.90246    981900.29143  23725699.8134                   23725699.7544
   -692148.96948   -526911.13647  19870036.2344                   19870032.3594
   1151567.74645    924884.57143  24843359.2504                   24843359.8014
 11  8 17 15 47  0.0000000  0 10G03G06G07G10G13G16G19G20G23G08
  -1154976.23447   -884342.84146  20672414.9614                   20672414.1214
   -355055.05547   -266841.82945  22039470.1884                   22039469.7194
  -2353425.75047  -1795759.44945  22760262.3054                   22760260.7464
  -1523498.66046  -1180143.60644  23767383.1254                   23767383.1914
  -2121336.98048  -1631722.06246  20213537.8984                   20213536.0744
   1090612.29347    848262.30645  21971376.5084                   21971374.4804
  -2721155.77347  -2095083.28146  21631986.8364                   21631984.3054
   1247961.43046    969625.54843  23722702.0944                   23722701.9534
   -782826.66848   -597569.10047  19852780.5944                   19852776.7934
    984800.05946    794935.86343  24811624.9924                   24811625.1804
 11  8 17 15 47 30.0000000  0 10G03G06G07G10G13G16G19G20G23G08
    316139.91047    261981.41146  20952359.3054                   20952358.4964
   1147144.95747    903703.61045  22325329.3134                   22325328.7154
   -938811.23847   -693462.39245  23029454.3594                   23029452.8284
    -70027.98446    -47569.05144  24043969.5704                   24043969.2814
   -691401.52748   -517486.65546  20485645.5944                   20485643.4264
   2646207.11748   2060414.08345  22267396.7424                   22267394.2424
  -1316050.88347  -1000196.32546  21899369.6254                   21899366.5474
   2807453.14546   2184813.76343  24019463.0004                   24019463.5234
    702324.52748    559691.55747  20135395.4774                   20135391.5704
   2393257.46146   1892435.18543  25079645.8834                   25079645.1884
 11  8 17 15 48  0.0000000  0 10G03G06G07G10G13G16G19G20G23G08
    212310.05947    181075.02546  20932601.2814                   20932600.4414
   1074309.75447    846948.89145  22311469.3364                   22311468.5124
  -1099763.15247   -818879.45345  22998826.0554                   22998824.8404
   -191626.34446   -142321.03244  24020829.6254                   24020829.6484
   -836579.71548   -630612.51646  20458019.0004                   20458016.9494
   2626394.27347   2044975.46545  22263626.2814                   22263624.3164
  -1486115.62148  -1132714.28346  21867007.0784                   21867004.2544
   2791348.63746   2172264.67943  24016399.2034                   24016398.7384
    612462.39148    489669.09047  20118295.4144                   20118291.4614
   2226091.63356   1762176.10053  25047834.0784                   25047835.1024
 11  8 17 15 48 30.0000000  0 10G03G06G07G10G13G16G19G20G23G08
    108959.71947    100542.28846  20912934.2734                   20912933.1954
   1001863.29347    790497.09245  22297682.8594                   22297682.1054
  -1260853.82847   -944404.63345  22968171.8754                   22968170.1524
   -312867.52746   -236794.70144  23997758.7274                   23997758.8794
   -981442.40248   -743492.54446  20430452.7194                   20430450.5434
   2606594.41847   2029546.97445  22259858.2734                   22259856.1884
  -1655919.05548  -1265028.63046  21834694.0784                   21834691.4694
   2775068.34046   2159578.62543  24013301.5394                   24013301.3244
    523012.77348    419968.06947  20101273.7734                   20101269.6724
   2058730.15646   1631764.62043  25015986.6024                   25015986.9224
 11  8 17 15 49  0.0000000  0 10G03G06G07G10G13G16G19G20G23G08
      6095.84047     20388.61546  20893359.7814                   20893358.9264
    929811.06347    734352.47645  22283971.9384                   22283971.0164
  -1422076.82447  -1070032.93445  22937491.7034                   22937490.4144
   -433745.43746   -330985.28644  23974755.9384                   23974756.4534
  -1125981.25448   -856120.21646  20402947.7114                   20402945.6994
   2586810.91047   2014131.21545  22256093.8524                   22256091.8164
  -1825451.60947  -1397131.89546  21802433.6564                   21802430.8914
   2758615.46546   2146758.05843  24010170.5004                   24010170.5354
    433982.34048    350593.68547  20084331.5944                   20084327.7424
   1891179.00846   1501205.28943  24984102.9844                   24984102.5784
 11  8 17 15 49 30.0000000  0 10G03G06G07G10G13G16G19G20G23G08
    -96279.32848    -59384.25546  20873878.3364                   20873877.4384
    858154.20347    678515.94445  22270335.8984                   22270335.4534
  -1583430.12147  -1195762.74445  22906787.5554                   22906786.0514
   -554258.00446   -424891.17543  23951823.4144                   23951822.8204
  -1270191.32848   -968491.70846  20375505.8054                   20375503.6524
   2567043.89547   1998728.32045  22252332.5394                   22252330.1454
  -1994708.35247  -1529020.23046  21770224.9064                   21770221.9264
   2741989.68846   2133802.79044  24007006.6804                   24007006.5084
    345373.57848    281547.89147  20067469.9844                   20067466.1524
   1723439.74646   1370499.41643  24952183.0164                   24952184.0514
 11  8 17 15 50  0.0000000  0 10G03G06G07G10G13G16G19G20G23G08
   -198161.31247   -138772.82646  20854490.9774                   20854490.0824
    786895.69947    622989.83445  22256776.2974                   22256775.4184
  -1744909.85247  -1321591.08845  22876058.7734                   22876057.5634
   -674401.62546   -518509.58344  23928960.6804                   23928960.5824
  -1414067.54348  -1080603.04246  20348126.7974                   20348124.5594
   2547294.44547   1983339.10945  22248574.0234                   22248571.7464
  -2163682.79347  -1660688.60346  21738070.3284                   21738066.8594
   2725191.75446   2120713.35243  24003810.1254                   24003810.4224
    257190.57848    212833.84647  20050689.3834                   20050685.3834
   1555515.77346   1239649.58043  24920228.5634                   24920228.0594
 11  8 17 15 50 30.0000000  0 10G03G06G07G10G13G16G19G20G23G08
   -299545.62148   -217773.58146  20835198.4144                   20835197.6454
    716039.44147    567777.14345  22243292.4224                   22243291.7624
  -1906511.14547  -1447514.14445  22845306.9924                   22845305.3914
   -794171.77046   -611836.95844  23906169.4064                   23906169.5004
  -1557602.69948  -1192448.61946  20320812.9924                   20320810.9654
   2527565.11347   1967965.56745  22244819.8204                   22244817.7464
  -2332367.28947  -1792131.03746  21705970.6884                   21705967.5744
   2708223.87946   2107491.50343  24000581.0084                   24000581.6844
    169438.43048    144455.53347  20033990.8594                   20033986.7774
   1387411.04346   1108658.90743  24888239.3674                   24888239.3524
 11  8 17 15 51  0.0000000  0 10G03G06G07G10G13G16G19G20G23G08
   -400427.95748   -296383.21346  20816001.2814                   20816000.1844
    645588.41847    512880.22145  22229886.1254                   22229885.3324
  -2068229.82047  -1573528.67645  22814533.2114                   22814531.2894
   -913564.91446   -704870.60644  23883449.8134                   23883449.7814
  -1700790.44548  -1304023.50546  20293565.3914                   20293563.0084
   2507857.39847   1952608.88445  22241069.8834                   22241067.7544
  -2500755.03547  -1923342.24646  21673927.1254                   21673924.1954
   2691087.59046   2094138.42743  23997320.0864                   23997321.0004
     82121.37948     76416.26147  20017374.9224                   20017370.9884
   1219129.42246    977530.44143  24856216.3444                   24856216.1844
 11  8 17 15 51 30.0000000  0 10G03G06G07G10G13G16G19G20G23G08
   -500802.53948   -374597.18646  20796900.2114                   20796899.1374
    575546.90647    458302.38845  22216557.1024                   22216556.9804
  -2230060.93747  -1699630.82545  22783737.4064                   22783736.1484
  -1032576.01246   -797606.52743  23860802.5784                   23860802.1414
  -1843623.52348  -1415322.01146  20266385.0554                   20266382.8834
   2488174.08647   1937271.19245  22237324.0234                   22237322.0044
  -2668837.88748  -2054315.88046  21641942.6414                   21641939.0084
   2673785.02746   2080655.68043  23994028.2734                   23994028.6024
     -4755.05548      8720.32147  20000842.8134                   20000838.7734
   1050675.68846    846267.80343  24824160.5084                   24824160.4964
 11  8 17 15 52  0.0000000  0 10G03G06G07G10G13G16G19G20G23G08
   -600670.62948   -452416.48446  20777896.1644                   20777895.0944
    505913.06647    404042.23745  22203306.5314                   22203306.1054
  -2392005.23447  -1825821.15645  22752920.7504                   22752918.9144
  -1151206.26647   -890045.68043  23838228.4144                   23838227.2424
  -1986100.73448  -1526343.21546  20239272.7424                   20239270.6724
   2468511.95347   1921950.01445  22233582.6334                   22233580.5554
  -2836614.10947  -2185050.57246  21610015.3134                   21610012.1054
   2656312.66046   2067040.79143  23990703.9694                   23990704.3524
    -91191.51648    -58632.78747  19984394.4614                   19984390.7544
    882048.53546    714870.10743  24792071.5474                   24792071.9024
 11  8 17 15 52 30.0000000  0 10G03G06G07G10G13G16G19G20G23G08
   -700030.21548   -529839.54146  20758988.3054                   20758987.9574
    436688.05147    350100.65445  22190133.7034                   22190132.8364
  -2554060.17647  -1952097.71445  22722082.0084                   22722081.0434
  -1269454.02346   -982186.76644  23815725.7194                   23815725.8954
  -2128218.06248  -1637083.99946  20212228.4924                   20212226.5824
   2448870.54747   1906644.98645  22229844.9774                   22229842.8984
  -3004078.55547  -2315542.34046  21578148.4384                   21578145.4024
   2638670.13346   2053293.14343  23987346.0634                   23987346.2194
   -177185.45748   -125641.06947  19968030.5234                   19968026.5704
    713249.57446    583338.46043  24759950.0314                   24759950.2504
 11  8 17 15 53  0.0000000  0 10G03G06G07G10G13G16G19G20G23G08
   -798875.51648   -606861.85946  20740178.8444                   20740178.0124
    367875.95347    296480.80345  22177039.3754                   22177038.5354
  -2716220.52047  -2078456.39345  22691224.5784                   22691223.1294
  -1387313.96946  -1074025.73243  23793297.4144                   23793298.3874
  -2269968.12548  -1747538.58946  20185254.5004                   20185252.2234
   2429252.73847   1891358.35345  22226111.3444                   22226109.6214
  -3171223.10247  -2445784.80846  21546341.6484                   21546338.6054
   2620859.80146   2039414.86843  23983956.6564                   23983956.9574
   -262731.80148   -192300.57447  19951751.7734                   19951747.5904
    544283.66446    451676.75743  24727797.1804                   24727796.7194
 11  8 17 15 53 30.0000000  0 10G03G06G07G10G13G16G19G20G23G08
   -897208.13348   -683484.69346  20721466.8834                   20721465.9264
    299474.02347    243180.58645  22164022.3594                   22164022.5354
  -2878487.93047  -2204898.49745  22660345.9844                   22660344.3094
  -1504788.28546  -1165564.11644  23770942.9924                   23770943.3874
  -2411350.39848  -1857706.59846  20158350.3444                   20158348.2234
   2409654.32847   1876086.83645  22222381.8914                   22222380.3204
  -3338046.94947  -2575777.38846  21514596.0554                   21514592.9614
   2602877.45746   2025402.49043  23980534.8594                   23980535.2814
   -347831.97348   -258612.40747  19935557.8204                   19935553.2814
    375148.60246    319883.16843  24695611.3444                   24695611.3244
 11  8 17 15 54  0.0000000  0 10G03G06G07G10G13G16G19G20G23G08
   -995025.85548   -759706.30646  20702852.5394                   20702851.5394
    231484.03147    190201.35845  22151084.8134                   22151084.1954
  -3040859.73047  -2331421.98045  22629447.3204                   22629446.2424
  -1621874.86346  -1256800.44943  23748663.2974                   23748662.3364
  -2552360.19148  -1967584.36146  20131517.1254                   20131514.9494
   2390075.85247   1860830.84845  22218656.5314                   22218654.8484
  -3504544.23847  -2705515.51446  21482912.5004                   21482910.0394
   2584722.96946   2011255.98243  23977081.5474                   23977081.3164
   -432483.05948   -324574.31447  19919448.9384                   19919445.0234
    205846.86746    187959.82243  24663394.0864                   24663394.8054
 11  8 17 15 54 30.0000000  0 10G03G06G07G10G13G16G19G20G23G08
  -1092323.27748   -835522.50346  20684337.6094                   20684336.7074
    163909.78147    137546.08445  22138225.5314                   22138225.1884
  -3203330.49647  -2458022.54245  22598530.3364                   22598529.2234
  -1738568.92646  -1347730.93843  23726456.6484                   23726456.8054
  -2692990.70748  -2077166.58546  20104756.0474                   20104754.0044
   2370519.95747   1845592.45345  22214935.5164                   22214933.1524
  -3670707.52048  -2834993.38046  21451292.9224                   21451289.9924
   2566398.45346   1996977.01543  23973593.8834                   23973594.3244
   -516679.87148   -390182.23047  19903426.6954                   19903423.1604
     36382.79746     55909.93943  24631146.6334                   24631146.5944
 11  8 17 15 55  0.0000000  0 10G03G06G07G10G13G16G19G20G23G08
    386318.84048    316666.15546  20965714.3594                   20965713.0704
   1672168.77747   1312812.80445  22425237.6484                   22425237.3164
  -1790478.58247  -1357098.96445  22867387.3524                   22867385.2234
   -279450.64846   -210755.59543  24004117.5234                   24004117.5474
  -1257818.82848   -958850.82946  20377859.9224                   20377857.7974
   3926400.98447   3057967.23045  22511009.6024                   22511007.8444
  -2261112.15647  -1736607.36946  21719529.8364                   21719527.3794
   4123318.57046   3210161.36743  24269865.5944                   24269866.1914
    974996.59448    772163.04047  20187283.6484                   20187279.0554
   1442178.16846   1151334.87543  24898660.3444                   24898660.5704
 11  8 17 15 55 30.0000000  0 10G03G06G07G10G13G16G19G20G23G08
    290057.66448    241657.43546  20947396.0394                   20947395.2704
   1605419.04347   1260799.98945  22412535.9844                   22412535.1884
  -1953151.05947  -1483856.72845  22836431.8134                   22836429.7424
   -395364.64846   -301078.23643  23982059.9694                   23982059.6294
  -1397688.14848  -1067839.91146  20351243.7974                   20351241.4734
   3906879.03147   3042755.29245  22507294.8834                   22507292.8204
  -2426602.62147  -1865560.96546  21688038.3284                   21688035.1524
   4104642.89846   3195608.84143  24266312.5784                   24266312.1254
    891704.67648    707260.23047  20171433.5164                   20171429.1604
   1272384.58246   1019028.13043  24866349.9304                   24866350.3874
 11  8 17 15 56  0.0000000  0 10G03G06G07G10G13G16G19G20G23G08
    194319.91048    167056.57246  20929177.7504                   20929177.3204
   1539085.24247   1209111.31145  22399913.3204                   22399912.4574
  -2115918.93447  -1610688.83145  22805458.0474                   22805456.8134
   -510884.21546   -391093.45843  23960077.5554                   23960077.0474
  -1537168.60548  -1176525.98146  20324701.6334                   20324699.6414
   3887376.03147   3027558.11445  22503583.2194                   22503581.4964
  -2591747.52347  -1994245.28246  21656612.2034                   21656609.3754
   4085793.02046   3180920.39743  24262725.9844                   24262725.3554
    808870.66048    642714.22547  20155670.7664                   20155667.0394
                                  24834009.5164                   24834008.8094
 11  8 17 15 56 30.0000000  0 10G03G06G07G10G13G16G19G20G23G08
     99106.43448     92864.25246  20911059.3674                   20911058.0704
   1473167.22347   1157746.56945  22387369.4144                   22387368.6994
  -2278780.65247  -1737594.05945  22774466.6884                   22774463.9924
   -626008.45346   -480800.68544  23938170.4844                   23938169.6414
  -1676257.06648  -1284906.60546  20298233.7664                   20298231.7424
   3867890.83247   3012374.81845  22499875.7814                   22499873.6484
  -2756542.93047  -2122657.27846  21625252.5784                   21625249.6604
   4066767.16846   3166094.95543  24259105.1254                   24259105.0204
    726495.49248    578525.76547  20139995.2194                   20139991.3954
    932318.21946    754041.46542  24801637.3834                   24801637.5474
 11  8 17 15 57  0.0000000  0 10G03G06G07G10G13G16G19G20G23G08
      4418.45348     19081.38946  20893040.9694                   20893040.1954
   1407665.19947   1106706.03145  22374904.7274                   22374903.7974
  -2441734.80147  -1864571.31945  22743457.0474                   22743455.5314
   -740737.02046   -570199.53143  23916337.8524                   23916337.7814
  -1814950.24648  -1392979.21246  20271841.3914                   20271839.2384
   3848422.43447   2997204.60245  22496170.9534                   22496169.1054
  -2920984.71147  -2250793.71246  21593960.0394                   21593957.4694
   4047564.63346   3151131.74443  24255451.0784                   24255451.2074
    644580.73048    514696.05747  20124407.4304                   20124403.6334
    762046.89145    621362.57643  24769235.2664                   24769235.4694
 11  8 17 15 57 30.0000000  0 10G03G06G07G10G13G16G19G20G23G08
    -89743.53948    -54291.60446  20875122.1174                   20875121.3324
   1342578.37547   1055989.01645  22362519.3284                   22362518.5744
  -2604780.40247  -1991619.83645  22712430.6414                   22712428.4694
   -855069.67246   -659289.98143  23894580.8524                   23894580.4924
  -1953245.43447  -1500741.70046  20245524.9774                   20245522.6764
   3828968.71947   2982045.83045  22492468.9694                   22492467.2074
  -3085069.75448  -2378652.17646  21562735.8834                   21562732.9884
   4028183.00446   3136029.08143  24251762.7584                   24251762.8014
    563126.85948    451225.49547  20108907.3594                   20108903.4224
    591617.54746    488560.53142  24736803.8914                   24736803.2664
 11  8 17 15 58  0.0000000  0 10G03G06G07G10G13G16G19G20G23G08
   -183377.16048   -127252.86346  20857303.9534                   20857303.3524
   1277908.22747   1005596.66145  22350212.7344                   22350212.3634
  -2767914.94947  -2118737.64045  22681386.9304                   22681385.8674
   -969004.02746   -748069.99044  23872900.8834                   23872900.6524
  -2091138.27748  -1608190.67246  20219284.7114                   20219282.2854
   3809530.45747   2966899.08945  22488770.0164                   22488768.3554
  -3248792.54748  -2506228.36746  21531580.6334                   21531577.7544
   4008622.31646   3120786.79343  24248040.6644                   24248040.5704
    482136.55948    388116.14247  20093495.5394                   20093491.0594
    421032.42645    355637.06342  24704342.5394                   24704342.0594
 11  8 17 15 58 30.0000000  0 10G03G06G07G10G13G16G19G20G23G08
   -276482.09848   -199802.18146  20839587.2344                   20839586.1174
   1213654.18847    955528.57545  22337985.4924                   22337985.2894
  -2931137.90647  -2245924.37245  22650326.7664                   22650325.0984
  -1082540.40646   -836539.86443  23851294.0634                   23851294.9844
  -2228626.21547  -1715324.14146  20193121.6884                   20193119.5864
   3790105.71147   2951762.90545  22485073.7424                   22485072.0784
  -3412149.97348  -2633519.85446  21500494.4304                   21500491.1134
   3988880.55146   3105403.40543  24244283.8284                   24244283.5434
    401610.24648    325368.34847  20078171.9224                   20078167.8324
    250291.37545    222592.09042  24671850.7504                   24671851.2154
 11  8 17 15 59  0.0000000  0 10G03G06G07G10G13G16G19G20G23G08
   -369057.26648   -271938.69146  20821970.8754                   20821969.9534
   1149816.46547    905784.86145  22325837.2274                   22325837.0234
  -3094447.19547  -2373178.32645  22619249.8364                   22619248.5554
  -1195677.58646   -924698.79043  23829765.4614                   23829764.9734
  -2365706.01248  -1822139.55546  20167036.3914                   20167033.9614
   3770693.67247   2936636.60245  22481379.7344                   22481378.0394
  -3575137.95348  -2760523.48446  21469479.0004                   21469475.5864
   3968956.73446   3089878.24743  24240492.8674                   24240493.4104
    321549.29348    262983.17646  20062936.5084                   20062933.0354
     79396.05145     89426.90643  24639331.6644                   24639330.9184
 11  8 17 15 59 30.0000000  0 10G03G06G07G10G13G16G19G20G23G08
   -461100.49648   -343660.69146  20804455.6094                   20804454.4884
   1086396.01247    856366.30545  22313769.2274                   22313768.9144
  -3257840.45747  -2500497.71745  22588157.4694                   22588155.8054
  -1308414.16046  -1012545.41943  23808312.7504                   23808312.2544
  -2502373.14548  -1928633.43446  20141029.0864                   20141027.4224
   3751294.60947   2921520.40445  22477688.2114                   22477686.4064
  -3737751.59048  -2887235.38746  21438534.2584                   21438531.7274
   3948850.72746   3074211.03043  24236666.9064                   24236667.2734
    241955.93048    200962.35047  20047790.8754                   20047786.7814
    -91651.90645    -43857.13342  24606781.7424                   24606782.0514
 11  8 17 16  0  0.0000000  0 10G03G06G07G10G13G16G19G20G23G08
   -552611.82848   -414968.22646  20787041.6334                   20787040.4454
   1023391.99247    807272.24345  22301780.3524                   22301779.5864
  -3421317.00046  -2627882.01845  22557048.2734                   22557047.6724
  -1420750.09847  -1100079.97543  23786935.3594                   23786935.0784
  -2638625.50848  -2034804.11246  20115101.0394                   20115098.9884
   3731906.53547   2906412.76645  22473998.8984                   22473997.0514
  -3899987.83647  -3013653.22046  21407661.8984                   21407659.4614
   3928559.87945   3058399.81243  24232805.1024                   24232806.3714
    162830.56348    139306.20847  20032733.6564                   20032729.5354
   -262852.42646   -177260.10043  24574203.7114                   24574203.0514
 11  8 17 16  0 30.0000000  0 10G03G06G07G10G13G16G19G20G23G08
   -643588.79348   -485859.39046  20769729.1024                   20769727.8054
    960805.75847    758503.72445  22289870.3594                   22289869.7114
  -3584873.69546  -2755328.78145  22525924.8674                   22525923.6134
  -1532683.58246  -1187300.88043  23765635.6644                   23765635.5744
  -2774458.44148  -2140647.96246  20089253.2194                   20089250.8634
   3712529.86347   2891314.03745  22470311.3134                   22470309.9774
  -4061841.39547  -3139772.87546  21376862.3984                   21376859.4494
   3908084.90645   3042444.98443  24228909.5004                   24228910.1134
     84175.48848     78016.51947  20017765.9144                   20017762.0354
   -434202.96946   -310779.99843  24541596.0084                   24541597.1054
 11  8 17 16  1  0.0000000  0 10G03G06G07G10G13G16G19G20G23G08
   -734032.33648   -556334.89546  20752518.2034                   20752517.5354
    898635.55147    710059.39345  22278039.6024                   22278039.2114
  -3748510.83247  -2882838.20945  22494785.5004                   22494784.7544
  -1644215.59846  -1274208.95543  23744411.3834                   23744411.0004
  -2909870.43448  -2246163.80246  20063485.3674                   20063482.9844
   3693161.93047   2876222.09145  22466626.4224                   22466623.9454
  -4223310.09847  -3265592.63046  21346135.6954                   21346132.6094
   3887422.64846   3026344.37043  24224978.4384                   24224978.2704
      5990.35948     17093.03146  20002888.1024                   20002884.2624
   -605704.35546   -444417.31543  24508961.2734                   24508960.7464
 11  8 17 16  1 30.0000000  0 10G03G06G07G10G13G16G19G20G23G08
   -823941.76248   -626394.20746  20735409.0634                   20735408.4844
    836880.99647    661938.95845  22266288.1724                   22266287.8284
  -3912227.23447  -3010409.41745  22463631.6804                   22463630.3364
  -1755346.02046  -1360804.09743  23723264.2424                   23723263.7584
  -3044858.93047  -2351349.64046  20037797.7344                   20037795.8954
   3673801.65247   2861136.13645  22462941.6804                   22462940.3634
  -4384390.51648  -3391109.83146  21315483.0784                   21315480.4414
   3866571.43046   3010096.43444  24221010.3284                   24221011.9734
    -71724.20748    -43463.79047  19988099.2664                   19988095.4264
   -777355.83646   -578171.68243  24476297.3204                   24476296.3674
 11  8 17 16  2  0.0000000  0 10G03G06G07G10G13G16G19G20G23G08
   -913315.65248   -696036.20646  20718401.6024                   20718400.9614
    775542.39547    614142.61845  22254615.9924                   22254615.8594
  -4076020.84047  -3138040.76545  22432462.5004                   22432461.5664
  -1866073.67646  -1447085.37743  23702193.2664                   23702193.5434
  -3179420.28948  -2456202.65446  20012191.2664                   20012189.3094
   3654448.28947   2846055.55845  22459258.9614                   22459257.3754
  -4545078.17248  -3516320.98746  21284905.2424                   21284902.6524
   3845530.53946   2993700.75343  24217007.1174                   24217007.6254
   -148966.59048   -103652.67146  19973400.4614                   19973396.6134
   -949155.98846   -712041.89843  24443604.1334                   24443604.6214
 11  8 17 16  2 30.0000000  0 10G03G06G07G10G13G16G19G20G23G08
    573267.14848    462339.99346  21001289.0394                   21001288.1174
   2290039.39847   1794270.13045  22542815.1174                   22542814.2464
  -2664466.95747  -2038128.64545  22701072.3444                   22701071.3134
   -400976.95746   -305451.63043  23980992.2114                   23980991.9964
  -1738129.50848  -1333118.93746  20286459.8134                   20286457.8794
   5210519.34447   4058578.41645  22755369.7344                   22755368.0394
  -3129946.47748  -2413620.95746  21554196.1564                   21554193.4454
   5399717.18446   4204755.08143  24512758.1884                   24512759.3204
   1349684.04348   1064127.02146  20258584.2974                   20258580.1484
    454319.52746    381575.42843  24710676.6644                   24710676.9804
 11  8 17 16  3  0.0000000  0 10G03G06G07G10G13G16G19G20G23G08
    484964.63748    393532.82146  20984485.7584                   20984484.8204
   2229530.78147   1747120.52845  22531300.8444                   22531300.0164
  -2828412.04747  -2165878.04545  22669874.7504                   22669872.8164
   -510899.66846   -391105.72643  23960074.4384                   23960074.8324
  -1871829.18748  -1437300.51446  20261017.8524                   20261016.0004
   5191175.71547   4043505.44045  22751688.4224                   22751687.0164
  -3289839.26248  -2538212.70946  21523769.5164                   21523766.7854
   5378291.64546   4188059.69043  24508681.9224                   24508682.2384
   1273387.05948   1004674.80846  20244065.4844                   20244061.7854
    282223.04746    247474.36743  24677928.6414                   24677928.2704
 11  8 17 16  3 30.0000000  0 10G03G06G07G10G13G16G19G20G23G08
    397200.48848    325145.15646  20967784.5784                   20967784.0594
   2169438.22347   1700295.14445  22519865.3594                   22519864.7504
  -2992429.24247  -2293683.63045  22638663.3914                   22638661.6484
   -620417.75846   -476444.48243  23939233.7194                   23939233.7194
  -2005092.09448  -1541141.73646  20235658.5554                   20235656.7114
   5171836.84447   4028436.16345  22748008.2814                   22748007.3364
  -3449327.63748  -2662489.35746  21493419.8674                   21493416.9104
   5356673.27746   4171213.99043  24504567.8914                   24504569.0744
   1197565.66048    945593.18247  20229637.0634                   20229633.4494
    109981.27046    113260.03343  24645151.7424                   24645151.3244
 11  8 17 16  4  0.0000000  0 10G03G06G07G10G13G16G19G20G23G08
    309971.07448    257174.16846  20951185.3594                   20951185.0084
   2109757.55947   1653790.72945  22508508.3674                   22508507.9774
  -3156520.78947  -2421547.16645  22607437.7274                   22607436.4064
   -729534.46946   -561470.53143  23918469.4694                   23918469.7304
  -2137919.27348  -1644643.43746  20210382.2734                   20210380.5634
   5152497.63747   4013366.59344  22744328.8134                   22744326.9924
  -3608411.78548  -2786451.00346  21463147.1334                   21463144.2664
   5334857.08246   4154214.15943  24500416.5234                   24500416.9414
   1122216.95348    886879.88846  20215298.6804                   20215294.8554
    -62409.00846    -21069.98643  24612346.2114                   24612346.8444
 11  8 17 16  4 30.0000000  0 10G03G06G07G10G13G16G19G20G23G08
    223281.44548    189623.79746  20934689.0634                   20934688.0634
   2050493.13747   1607610.64345  22497231.0784                   22497230.4574
  -3320680.58647  -2549463.88445  22576199.1414                   22576198.0704
   -838245.12146   -646180.10843  23897782.9614                   23897782.7584
  -2270302.92648  -1747799.52946  20185190.9534                   20185188.5554
   5133162.03147   3998299.86045  22740648.9384                   22740648.0084
  -3767083.53548  -2910091.32746  21432952.7424                   21432949.9804
   5312846.18446   4137062.61043  24496228.6334                   24496229.4144
   1047345.72348    828538.63446  20201051.3204                   20201047.1914
   -234942.25846   -155511.44844  24579514.8524                   24579514.0784
 11  8 17 16  5  0.0000000  0 10G03G06G07G10G13G16G19G20G23G08
    137131.13348    122493.66446  20918295.1484                   20918294.7424
   1991643.02347   1561753.39645  22486032.0164                   22486031.7034
  -3484908.94547  -2677434.01545  22544947.6254                   22544945.3984
   -946550.93046   -730574.34843  23877173.2734                   23877173.1684
  -2402241.99248  -1850609.19647  20160083.7734                   20160081.2154
   5113827.39547   3983233.88745  22736969.7664                   22736968.2584
  -3925340.81248  -3033408.66346  21402837.5704                   21402834.9264
   5290637.55146   4119756.93343  24492001.9384                   24492003.2154
    972951.96548    770569.45746  20186894.7504                   20186890.6484
   -407618.93746   -290064.67643  24546655.1254                   24546655.8594
 11  8 17 16  5 30.0000000  0 10G03G06G07G10G13G16G19G20G23G08
     51523.11348     55786.09346  20902004.5234                   20902003.5044
   1933209.46147   1516220.71445  22474913.1564                   22474912.3554
  -3649201.55547  -2805454.23945  22513683.7734                   22513682.0044
  -1054449.04346   -814650.76443  23856640.6564                   23856640.5164
  -2533731.10248  -1953068.24646  20135061.9694                   20135060.1334
   5094495.63347   3968170.11945  22733291.4454                   22733289.5084
  -4083177.52748  -3156398.29546  21372802.0634                   21372799.4884
   5268232.76646   4102298.34943  24487738.6804                   24487739.8404
    899038.77748    712974.72846  20172829.2034                   20172825.7664
   -580435.70746   -424727.04343  24513769.3984                   24513769.5554
 11  8 17 16  6  0.0000000  0 10G03G06G07G10G13G16G19G20G23G08
    -33540.72348    -10497.43146  20885817.5314                   20885816.7344
   1875193.16847   1471013.20445  22463872.6024                   22463872.1914
  -3813555.64847  -2933522.34045  22482408.1334                   22482406.5234
  -1161937.68746   -898408.18843  23836186.1254                   23836186.1254
  -2664766.03948  -2055173.39446  20110127.0704                   20110125.0234
   5075166.75847   3953108.63845  22729613.0314                   22729611.0084
  -4240588.94948  -3279056.52946  21342847.7504                   21342844.5084
   5245631.78546   4084687.03542  24483437.9534                   24483438.4614
    825608.20348    655756.08746  20158856.0234                   20158852.1804
   -753390.48346   -559496.98344  24480856.8914                   24480856.9264
 11  8 17 16  6 30.0000000  0 10G03G06G07G10G13G16G19G20G23G08
   -118062.67248    -76358.70646  20869734.0554                   20869732.9184
   1817591.49247   1426128.75645  22452911.4144                   22452910.9344
  -3977972.03947  -3061639.00845  22451120.4304                   22451119.7074
  -1269019.40646   -981848.49644  23815809.5784                   23815809.4494
  -2795346.55548  -2156924.43846  20085278.5554                   20085276.3404
   5055837.28147   3938046.67245  22725934.6884                   22725933.4494
  -4397573.90648  -3401382.47646  21312974.4694                   21312971.1724
   5222830.77046   4066919.76043  24479099.4384                   24479100.9184
    752658.30948    598911.98746  20144974.1644                   20144970.4344
   -926484.48446   -694375.37144  24447917.9384                   24447918.1914
 11  8 17 16  7  0.0000000  0 10G03G06G07G10G13G16G19G20G23G08
   -202042.18048   -141797.29046  20853752.4694                   20853751.7544
   1760403.85547   1381566.94545  22442028.9384                   22442028.4654
  -4142449.55947  -3189803.31045  22419822.1884                   22419819.7584
  -1375694.09046  -1064971.66644  23795509.7114                   23795509.2624
  -2925469.78948  -2258319.16646  20060516.6334                   20060514.4774
   5036505.96547   3922983.27245  22722256.0084                   22722254.4384
  -4554128.75048  -3523373.23846  21283182.7734                   21283180.2304
   5199828.30945   4048995.59042  24474721.2194                   24474722.9774
    680189.74248    542442.94246  20131183.6884                   20131180.1804
  -1099717.13746   -829361.83644  24414953.0554                   24414953.1684
 11  8 17 16  7 30.0000000  0 10G03G06G07G10G13G16G19G20G23G08
   -285480.01248   -206813.79746  20837874.9614                   20837873.9614
   1703628.97347   1337326.74745  22431225.0864                   22431224.3244
  -4306987.81647  -3318014.91345  22388511.2584                   22388509.4734
  -1481962.12546  -1147777.93643  23775288.1484                   23775287.1254
  -3055133.76248  -2359356.03246  20035842.5864                   20035840.3554
   5017171.23847   3907917.21745  22718576.7974                   22718575.6684
  -4710251.30148  -3645027.17046  21253473.7034                   21253470.8874
   5176622.31355   4030912.69952  24470305.4694                   24470306.8634
    608202.32848    486348.82446  20117485.0634                   20117481.6374
  -1273088.44146   -964456.32243  24381961.9774                   24381962.0744
 11  8 17 16  8  0.0000000  0 10G03G06G07G10G13G16G19G20G23G08
   -368376.82848   -271408.72446  20822100.3594                   20822099.3284
   1647265.35547   1293406.99745  22420499.6174                   22420498.8364
  -4471586.09847  -3446273.30045  22357189.1804                   22357187.4454
  -1587824.69546  -1230268.27143  23755142.3834                   23755142.1174
  -3184337.19948  -2460034.03246  20011256.1334                   20011253.9534
   4997830.78547   3892846.67445  22714896.3134                   22714895.1294
  -4865939.11348  -3766342.33246  21223847.6564                   21223844.3674
   5153210.29356   4012669.33653  24465852.3134                   24465852.9144
    536695.45348    430629.16546  20103878.0554                   20103873.8444
  -1446598.75046  -1099659.10243  24348943.4064                   24348942.7074
 11  8 17 16  8 30.0000000  0 10G03G06G07G10G13G16G19G20G23G08
   -450732.41048   -335581.92846  20806428.6954                   20806427.9104
   1591312.16447   1249807.08745  22409851.8444                   22409851.4694
  -4636243.19147  -3574577.50745  22325855.4384                   22325854.3874
  -1693281.94146  -1312442.80743  23735075.3914                   23735074.3524
  -3313077.53548  -2560351.19046  19986757.4694                   19986755.4264
   4978483.62947   3877770.92244  22711215.0234                   22711213.1454
  -5021188.87948  -3887316.17346  21194304.5864                   21194301.7464
   5129590.80546   3994264.26443  24461356.6094                   24461359.9304
    465669.42648    375284.18646  20090362.0864                   20090358.5864
  -1620247.12146  -1234969.49943  24315899.7734                   24315899.5274
 11  8 17 16  9  0.0000000  0 10G03G06G07G10G13G16G19G20G23G08
   -532548.13348   -399334.45646  20790859.2584                   20790858.6484
   1535767.18047   1206525.25245  22399282.2274                   22399281.6884
  -4800959.30547  -3702927.71045  22294510.9774                   22294509.7854
  -1798335.20746  -1394302.52743  23715083.3594                   23715083.6374
  -3441353.68448  -2660306.62746  19962347.4454                   19962345.2034
   4959127.15247   3862687.92144  22707531.6954                   22707530.2734
  -5175998.89548  -4007947.34746  21164845.1564                   21164841.9224
   5105760.89846   3975695.28243  24456822.7274                   24456823.7894
    395123.20348    320313.08646  20076937.6334                   20076933.7544
  -1794034.42246  -1370388.10043  24282829.0944                   24282829.2544
 11  8 17 16  9 30.0000000  0 10G03G06G07G10G13G16G19G20G23G08
   -613823.96148   -462666.27146  20775393.1644                   20775392.1334
   1480629.75047   1163561.00445  22388789.6954                   22388789.4884
  -4965732.85947  -3831322.67745  22263155.6484                   22263154.4264
  -1902984.71946  -1475847.61443  23695169.4774                   23695169.3364
  -3569163.11348  -2759898.39546  19938025.8524                   19938023.8554
   4939760.30947   3847596.84245  22703846.2114                   22703844.2274
  -5330365.91048  -4128233.32446  21135469.9304                   21135466.7464
   5081719.11746   3956961.13343  24452247.9844                   24452249.6644
    325057.21548    265716.17746  20063604.3524                   20063600.8164
  -1967959.61346  -1505914.16343  24249731.7504                   24249731.7114
 11  8 17 16 10  0.0000000  0 10G03G06G07G10G13G16G19G20G23G08
    880863.35948    702025.13146  21059822.9144                   21059821.9694
   3001321.66047   2348515.72745  22678168.4224                   22678167.4304
  -3555136.53547  -2732156.67245  22531583.3364                   22531582.3284
   -431806.53946   -329475.05343  23975125.7974                   23975125.8554
  -2121078.56248  -1631520.83046  20213587.2734                   20213585.5354
   6495803.05147   5060097.64344  22999951.6174                   22999949.5314
  -3908861.07448  -3020567.21146  21405973.5394                   21405970.6454
   6632885.49646   5165661.95743  24747425.5394                   24747426.7974
   1830894.57848   1439095.91446  20350155.4384                   20350152.5044
   -566595.75446   -413942.29843  24516402.3284                   24516401.5594
 11  8 17 16 10 30.0000000  0 10G03G06G07G10G13G16G19G20G23G08
    800668.13347    639535.33846  21044562.2194                   21044561.7424
   2946998.12147   2306185.67645  22667830.7034                   22667830.1334
  -3720020.28947  -2860637.49445  22500206.9064                   22500205.3794
   -535647.85246   -410390.40743  23955365.5004                   23955365.4534
  -2247946.40248  -1730378.88447  20189445.3594                   20189442.8484
   6476412.65247   5044988.18344  22996262.1564                   22996260.0474
  -4062331.87948  -3140154.83046  21376769.0554                   21376766.0204
   6608416.85246   5146595.27243  24742769.4224                   24742771.1604
   1761790.87548   1385248.85246  20337005.6564                   20337001.9844
   -740794.07046   -549681.16743  24483253.7504                   24483252.4774
 11  8 17 16 11  0.0000000  0 10G03G06G07G10G13G16G19G20G23G08
    721013.05147    577466.42646  21029404.3134                   21029403.9184
   2893079.91447   2264171.47545  22657570.5864                   22657569.4534
  -3884957.67247  -2989160.09845  22468820.2584                   22468819.6134
   -639085.82846   -490991.42943  23935681.3054                   23935681.6094
  -2374340.16448  -1828867.54147  20165393.2974                   20165391.0124
   6457008.60947   5029868.13944  22992569.3674                   22992567.5004
  -4215350.17248  -3259389.85646  21347650.5944                   21347647.3444
   6583732.11746   5127360.18143  24738071.6094                   24738074.3954
   1693168.35248   1331776.73646  20323947.3054                   20323943.6994
   -915128.36746   -685526.09143  24450078.9844                   24450078.8134
 11  8 17 16 11 30.0000000  0 10G03G06G07G10G13G16G19G20G23G08
    641895.88747    515816.68446  21014348.8914                   21014347.8874
   2839563.98447   2222470.73045  22647386.1804                   22647385.7734
  -4049949.24647  -3117724.94745  22437423.2894                   22437422.2814
   -742123.09046   -571280.22543  23916073.9534                   23916074.3914
  -2500259.97748  -1926986.86946  20141431.2344                   20141429.0904
   6437587.57047   5014734.81745  22988873.1484                   22988871.6094
  -4367915.12948  -3378271.63046  21318618.1954                   21318615.2464
   6558827.75446   5107953.88743  24733333.0474                   24733335.1454
   1625024.97748   1278677.97246  20310980.0864                   20310976.4104
  -1089600.19946   -821478.12143  24416878.5864                   24416877.4774
 11  8 17 16 12  0.0000000  0 10G03G06G07G10G13G16G19G20G23G08
    563314.86347    454584.69446  20999395.2974                   20999394.8954
   2786448.50447   2181082.01445  22637278.8134                   22637278.3674
  -4214994.60547  -3246331.70045  22406016.2274                   22406014.9064
   -844760.74646   -651257.65843  23896543.2584                   23896543.0864
  -2625704.43748  -2024735.80746  20117560.1414                   20117558.2664
   6418147.43047   4999586.58644  22985173.9844                   22985172.4774
  -4520025.06648  -3496798.82546  21289672.5004                   21289669.7304
   6533701.07846   5088374.38043  24728552.5164                   24728554.4104
   1557359.59848   1225951.69246  20298104.0004                   20298100.2504
  -1264209.91446   -957537.61043  24383651.2194                   24383650.1724
 11  8 17 16 12 30.0000000  0 10G03G06G07G10G13G16G19G20G23G08
    485270.44147    393770.85546  20984544.1334                   20984543.5204
   2733732.75847   2140004.82645  22627247.6884                   22627246.3524
  -4380092.42247  -3374979.31645  22374599.3054                   22374598.2974
   -946998.82447   -730923.70043  23877088.1804                   23877087.4884
  -2750670.94548  -2122112.30646  20093779.7584                   20093777.7624
   6398687.07847   4984422.65245  22981471.1954                   22981470.0204
  -4671676.38348  -3614968.67846  21260814.3364                   21260811.0004
   6508351.12146   5068620.90443  24723727.7344                   24723731.0984
   1490172.94948   1173598.44146  20285318.5864                   20285315.1214
  -1438956.59446  -1093703.82643  24350397.0314                   24350396.9344
 11  8 17 16 13  0.0000000  0 10G03G06G07G10G13G16G19G20G23G08
    407762.50447    333375.03745  20969794.9774                   20969794.2894
   2681415.81347   2099238.33945  22617292.1884                   22617290.8484
  -4545241.29747  -3503666.74145  22343172.7814                   22343171.6764
  -1048837.60546   -810278.68443  23857708.9304                   23857708.4964
  -2875157.02748  -2219114.46146  20070090.6724                   20070088.6134
   6379205.43547   4969242.12144  22977764.0554                   22977762.3094
  -4822866.31648  -3732779.00146  21232043.8674                   21232041.1804
   6482776.26246   5048692.16743  24718861.9384                   24718863.9454
   1423465.05548   1121618.23246  20272624.6174                   20272620.6054
  -1613839.27347  -1229976.01543  24317118.3984                   24317117.7114
 11  8 17 16 13 30.0000000  0 10G03G06G07G10G13G16G19G20G23G08
    330791.72347    273397.79046  20955148.2034                   20955146.8634
   2629497.88747   2058782.80445  22607412.5234                   22607411.7464
  -4710439.02747  -3632392.21245  22311736.8134                   22311735.4884
  -1150276.67646   -889322.14943  23838405.3054                   23838405.3714
  -2999159.71948  -2315739.93847  20046493.9454                   20046491.9064
   6359702.41847   4954044.87244  22974052.3594                   22974050.7464
  -4973590.88348  -3850226.68946  21203361.6564                   21203358.6884
   6456976.07846   5028587.85843  24713952.5704                   24713954.9494
   1357236.99648   1070011.93046  20260021.9384                   20260018.1604
  -1788856.55146  -1366353.07643  24283813.4454                   24283813.6294
 11  8 17 16 14  0.0000000  0 10G03G06G07G10G13G16G19G20G23G08
    254356.73447    213838.05445  20940602.7344                   20940601.8984
   2577976.91847   2018636.56945  22597607.9454                   22597607.7584
  -4875685.09847  -3761155.37345  22280291.4774                   22280290.0744
  -1251317.47746   -968055.26143  23819178.2814                   23819178.1054
  -3122677.94548  -2411987.90346  20022989.3984                   20022987.1564
   6340175.84047   4938829.33944  22970336.9844                   22970334.8914
  -5123848.19948  -3967310.29146  21174768.7274                   21174766.1254
   6430948.02346   5008306.00443  24708999.1484                   24709001.6334
   1291487.53948   1018778.55846  20247510.2734                   20247506.5234
  -1964008.32846  -1502834.96543  24250483.0164                   24250483.1024
 11  8 17 16 14 30.0000000  0 10G03G06G07G10G13G16G19G20G23G08
    178455.94148    154694.57846  20926159.2114                   20926158.4844
   2526850.35947   1978797.69945  22587879.0784                   22587878.4224
  -5040979.89147  -3889956.48845  22248836.7814                   22248835.3014
  -1351961.63746  -1046479.31243  23800026.4304                   23800027.0474
  -3245710.83648  -2507857.68746  19999576.8914                   19999574.9384
   6320623.12547   4923593.45645  22966616.4844                   22966614.5164
  -5273637.00848  -4084028.83346  21146265.1484                   21146262.3524
   6404689.35246   4987844.42043  24704002.8134                   24704005.2424
   1226215.48048    967917.18846  20235089.7194                   20235085.6604
  -2139295.73846  -1639422.50743  24217127.5084                   24217126.4024
 11  8 17 16 15  0.0000000  0 10G03G06G07G10G13G16G19G20G23G08
    103092.81348     95970.05746  20911818.2734                   20911817.3404
   2476121.55547   1939268.72345  22578225.4924                   22578225.1684
  -5206317.60947  -4018791.05445  22217373.8054                   22217372.8714
  -1452205.37146  -1124591.37143  23780950.1804                   23780950.3444
  -3368252.09448  -2603344.40146  19976257.8834                   19976255.8364
   6301047.63747   4908339.75844  22962890.5394                   22962889.4804
  -5422950.03548  -4200376.63846  21117851.6254                   21117848.5594
   6378202.88345   4967205.38342  24698962.7814                   24698966.1294
   1161424.85948    917430.96846  20222759.9694                   20222756.3204
  -2314713.76647  -1776111.85043  24183746.4774                   24183746.1294
 11  8 17 16 15 30.0000000  0  9G03G06G07G10G13G16G19G23G08
     28266.04348     37663.47645  20897579.0474                   20897578.1524
   2425788.07847   1900047.81645  22568647.9534                   22568647.0204
  -5371698.44147  -4147659.21546  22185903.2034                   22185902.0004
  -1552050.98047  -1202393.15643  23761951.1484                   23761950.7034
  -3490301.03148  -2698447.46546  19953033.0634                   19953030.8524
   6281446.29746   4893065.94544  22959160.7274                   22959159.8714
  -5571785.78548  -4316352.53846  21089528.8594                   21089526.0004
   1097114.10248    867318.65946  20210522.2974                   20210518.8444
  -2490262.89147  -1912903.38743  24150340.4064                   24150339.6994
 11  8 17 16 16  0.0000000  0  9G03G06G07G10G13G16G19G23G08
    -46024.49248    -20225.26146  20883442.2814                   20883441.1414
   2375848.75847   1861134.02945  22559144.8594                   22559144.5084
  -5537121.09847  -4276559.96745  22154424.3204                   22154422.7774
  -1651498.71946  -1279884.95143  23743026.3594                   23743026.2464
  -3611855.55948  -2793165.28446  19929901.8754                   19929899.9144
   6261818.49647   4877771.49744  22955425.7584                   22955424.3324
  -5720141.57448  -4431954.44446  21061297.5944                   21061294.9184
   1033283.24648    817580.30246  20198375.3834                   20198372.1764
  -2665942.59447  -2049796.65343  24116909.9844                   24116909.7464
 11  8 17 16 16 30.0000000  0  9G03G06G07G10G13G16G19G23G08
   -119767.09848    -77687.04845  20869408.9384                   20869408.5314
   2326315.06647   1822536.30945  22549718.2974                   22549717.9614
  -5702571.52747  -4405482.37345  22122939.6414                   22122938.4574
  -1750536.65647  -1357057.36443  23724180.3594                   23724180.2624
  -3732901.17248  -2887486.53947  19906867.6884                   19906865.5004
   6242175.59047   4862465.32944  22951688.2734                   22951686.6454
  -5868002.31248  -4547170.59346  21033160.9454                   21033158.0004
    969944.69148    768225.55946  20186322.5084                   20186319.2154
  -2841739.85247  -2186781.48044  24083456.3984                   24083456.0824
 11  8 17 16 17  0.0000000  0  9G03G06G07G10G13G16G19G23G08
   1382459.14148   1092878.85145  21155273.2504                   21155272.3984
   3852606.53547   3011854.31645  22840162.3524                   22840161.9344
  -4292624.00447  -3306821.93845  22391244.3364                   22391242.2234
   -273742.89546   -206309.03543  24005204.6644                   24005203.9574
  -2278012.82848  -1753807.32447  20183723.4304                   20183721.2974
   7797935.94547   6074746.06044  23247739.0084                   23247738.2304
  -4439941.06648  -3434395.59446  21304912.0864                   21304908.6994
   2482519.48848   1946855.23546  20474156.0004                   20474152.6054
  -1442229.07846  -1096253.53744  24349775.1884                   24349774.8954
 11  8 17 16 17 30.0000000  0  9G03G06G07G10G13G16G19G23G08
   1309805.57848   1036265.67745  21141447.9304                   21141447.0594
   3803875.30547   2973881.91445  22830888.6804                   22830888.7854
  -4458131.39847  -3435788.72445  22359748.8914                   22359747.0824
   -371967.97746   -282848.06543  23986512.9534                   23986513.3054
  -2398040.00048  -1847334.99246  20160883.2814                   20160881.0744
   7778253.73846   6059409.19544  23243994.0314                   23243992.6914
  -4586808.60948  -3548837.82746  21276964.1724                   21276961.1954
   2420159.72748   1898263.19046  20462289.2974                   20462285.5864
  -1618264.55946  -1233424.01444  24316276.2734                   24316276.2704
 11  8 17 16 18  0.0000000  0  9G03G06G07G10G13G16G19G23G08
   1237693.69148    980074.59245  21127725.6484                   21127724.3364
   3755541.68047   2936219.31045  22821691.5944                   22821691.4924
  -4623667.42647  -3564777.80845  22328248.5234                   22328247.0704
   -469789.74646   -359072.88443  23967898.3674                   23967897.9654
  -2517556.82048  -1940464.98847  20138139.9144                   20138137.9454
   7758548.28547   6044054.24945  23240244.7504                   23240243.2074
  -4733177.93448  -3662891.82946  21249111.0474                   21249107.6764
   2358286.84048   1850050.53146  20450515.3284                   20450511.8954
  -1794420.06246  -1370688.02844  24282754.7894                   24282755.4344
 11  8 17 16 18 30.0000000  0  9G03G06G07G10G13G16G19G23G08
   1166118.45348    924301.67245  21114105.3524                   21114104.1994
   3707600.09847   2898862.20845  22812568.1884                   22812568.0634
  -4789235.03148  -3693791.51545  22296742.1414                   22296740.2624
   -567212.82047   -434986.98143  23949358.8444                   23949359.3754
  -2636565.88348  -2033199.32346  20115493.3054                   20115491.1684
   7738814.02347   6028676.84145  23236489.6174                   23236487.6954
  -4879050.46948  -3776558.73946  21221352.1954                   21221349.3634
   2296896.43448   1802213.81746  20438832.9614                   20438829.7854
  -1970699.33646  -1508048.46344  24249209.9694                   24249211.0434
 11  8 17 16 19  0.0000000  0  9G03G06G07G10G13G16G19G23G08
   1095079.03548    868946.25345  21100586.7814                   21100585.9614
   3660049.05147   2861809.40745  22803519.4614                   22803519.2464
  -4954832.97747  -3822828.84045  22265229.7344                   22265228.3594
   -664238.61346   -510591.55043  23930895.8674                   23930895.8984
  -2755065.68448  -2125536.84346  20092943.5634                   20092941.5864
   7719049.62947   6013275.98344  23232728.1094                   23232726.6844
  -5024423.97748  -3889836.78246  21193688.6884                   21193685.5234
   2235987.77048   1754752.49346  20427242.6884                   20427238.9884
  -2147102.07446  -1645505.07444  24215641.8284                   24215641.8834
 11  8 17 16 19 30.0000000  0  9G03G06G07G10G13G16G19G23G08
   1024574.02348    814007.28845  21087170.5474                   21087169.1994
   3612886.52047   2825059.35345  22794544.6174                   22794544.6294
  -5120460.94547  -3951889.59145  22233711.4774                   22233709.9804
   -760868.18447   -585887.35043  23912507.9844                   23912508.0084
  -2873055.16848  -2217476.70947  20070490.8204                   20070488.8364
   7699253.34447   5997850.28744  23228960.8984                   23228958.9694
  -5169296.68048  -4002724.60046  21166120.5084                   21166117.3324
   2175559.51648   1707665.51346  20415743.3754                   20415739.8324
  -2323628.38746  -1783058.04744  24182049.5314                   24182050.1884
 11  8 17 16 20  0.0000000  0  9G03G06G07G10G13G16G19G23G08
    954603.07848    759484.46045  21073855.1564                   21073854.3834
   3566111.28947   2788611.10445  22785644.2584                   22785643.7854
  -5286117.51247  -4080972.61045  22202188.5164                   22202186.7894
   -857102.37946   -660875.09943  23894195.4694                   23894195.0634
  -2990532.01248  -2309017.12046  20048135.8134                   20048133.9884
   7679424.19947   5982398.96044  23225187.6094                   23225186.0984
  -5313665.94548  -4115220.11546  21138647.6414                   21138644.7234
   2115611.77748   1660952.96346  20404336.1484                   20404332.4454
  -2500277.53946  -1920706.70644  24148434.7344                   24148435.0904
 11  8 17 16 20 30.0000000  0  9G03G06G07G10G13G16G19G23G08
    885168.18048    705379.33245  21060642.2504                   21060641.2664
   3519724.89147   2752465.82745  22776816.9454                   22776816.8984
  -5451798.34448  -4210074.53645  22170659.9844                   22170659.1174
   -952939.41446   -735553.31343  23875957.5474                   23875957.3674
  -3107492.06248  -2400154.83247  20025879.0634                   20025877.4534
   7659563.58247   5966923.06344  23221408.7504                   23221407.0044
  -5457526.58248  -4227319.32046  21111271.8444                   21111269.0704
   2056146.89148   1614616.66146  20393020.2504                   20393016.7584
  -2677046.06646  -2058448.32544  24114796.4224                   24114796.6954
 11  8 17 16 21  0.0000000  0  9G03G06G07G10G13G16G19G23G08
    816266.58648    651689.77645  21047530.3984                   21047529.7274
   3473724.34447   2716621.20245  22768063.1724                   22768063.4304
  -5617504.14847  -4339195.92145  22139127.3754                   22139125.7464
  -1048381.65246   -809923.90743  23857796.1954                   23857796.1024
  -3223935.48048  -2490889.97147  20003720.5864                   20003718.3874
   7639668.56647   5951420.41744  23217623.1954                   23217621.0234
  -5600877.89848  -4339021.64046  21083992.9454                   21083989.8594
   1997162.90648   1568655.06546  20381795.7734                   20381792.5274
  -2853934.80946  -2196283.68444  24081135.4304                   24081135.9844
 11  8 17 16 21 30.0000000  0  9G03G06G07G10G13G16G19G23G08
    747898.69548    598416.10445  21034520.7974                   21034519.8054
   3428109.46547   2681077.13544  22759383.2344                   22759382.6764
  -5783232.54347  -4468334.93445  22107590.3914                   22107588.9184
  -1143428.62946   -883986.52743  23839709.2344                   23839708.8714
  -3339859.25048  -2581220.18846  19981660.7114                   19981658.8594
   7619739.30947   5935891.10944  23213830.1564                   23213828.7584
  -5743716.34048  -4450324.31646  21056811.8914                   21056808.8874
   1938659.93448   1523068.30446  20370663.1484                   20370659.7774
  -3030941.71546  -2334211.10844  24047452.4844                   24047453.1094
 11  8 17 16 22  0.0000000  0  9G03G06G07G10G13G16G19G23G08
    680064.29748    545558.11745  21021612.2344                   21021611.2934
   3382879.46947   2645832.94845  22750775.9534                   22750775.7584
  -5948981.18747  -4597489.69345  22076049.6804                   22076048.0554
  -1238080.88746   -957741.60743  23821697.2974                   23821697.1024
  -3455260.87948  -2671143.54446  19959700.6724                   19959698.9614
   7599775.69547   5920334.98344  23210031.2664                   23210029.5594
  -5886038.85248  -4561224.96146  21029728.7114                   21029725.8594
   1880638.14548   1477856.49046  20359621.6954                   20359618.6414
  -3208066.02046  -2472229.99544  24013747.4304                   24013746.8794
 11  8 17 16 22 30.0000000  0  9G03G06G07G10G13G16G19G23G08
    612763.27748    493115.74345  21008805.3444                   21008804.5434
   3338033.57047   2610888.05744  22742242.8284                   22742242.0904
  -6114748.13347  -4726658.72645  22044505.5314                   22044503.8874
  -1332338.77346  -1031189.31543  23803760.5474                   23803760.3634
  -3570138.15248  -2760658.31346  19937840.5944                   19937838.5354
   7579777.12546   5904751.63844  23206225.2114                   23206224.1954
  -6027842.69548  -4671721.45246  21002744.3284                   21002741.5004
   1823097.72348   1433019.76146  20348672.3054                   20348669.1994
  -3385306.61746  -2610339.49544  23980019.2974                   23980019.0784
 11  8 17 16 23  0.0000000  0 10G03G06G07G10G13G16G19G28G23G08
    545992.47348    441086.54445  20996099.4534                   20996098.2974
   3293568.20747   2576239.71944  22733780.8674                   22733780.1214
  -6280534.41047  -4855842.80845  22012957.2974                   22012955.3404
  -1426205.22346  -1104332.06943  23785898.3284                   23785898.3324
  -3684491.82048  -2849765.07346  19916079.4924                   19916077.6214
   7559739.83646   5889138.11244  23202412.9384                   23202411.6684
  -6169127.52348  -4781813.51246  20975858.6254                   20975855.9304
   9167274.61356   7173850.59753  24541792.6484                   24541794.3364
   1766036.00848   1388556.05346  20337814.1724                   20337810.4694
  -3562664.68046  -2748540.58143  23946269.1094                   23946268.9264
 11  8 17 16 23 30.0000000  0 10G03G06G07G10G13G16G19G28G23G08
    479742.62948    389463.27345  20983492.3754                   20983491.5234
   3249473.63747   2541880.28945  22725390.0004                   22725389.6804
  -6446347.08247  -4985047.48645  21981403.9844                   21981402.5084
  -1519689.61346  -1177177.04943  23768108.4534                   23768109.3134
  -3798328.61348  -2938469.07346  19894417.2424                   19894415.0944
   7539654.65646   5873487.27344  23198590.5554                   23198589.5164
  -6309899.55547  -4891506.00346  20949070.6414                   20949067.8054
   8983158.76246   7030383.71643  24506756.9064                   24506757.3954
   1709444.22348   1344458.52346  20327044.7034                   20327041.7734
  -3740147.67246  -2886838.92244  23912494.9534                   23912494.9344
 11  8 17 16 24  0.0000000  0 10G03G06G07G10G13G16G19G28G23G08
   1989431.10248   1565843.90945  21270776.1334                   21270775.6054
   4781166.06647   3735406.82844  23016860.9614                   23016861.1454
  -5036763.11747  -3886670.34345  22249638.8594                   22249637.3244
    -37373.40646    -22125.54543  24050184.2114                   24050184.4104
  -2336227.00848  -1799169.12546  20172646.1254                   20172643.6254
   9094937.27346   7085395.72744  23494550.1254                   23494550.1724
  -4874735.34048  -3773196.21546  21222173.3984                   21222170.2504
  10374617.31346   8114637.22543  24771543.0704                   24771542.8444
   3228739.69548   2528325.08646  20616157.4924                   20616153.7154
  -2342333.06646  -1797632.70243  24178490.6414                   24178489.7424
 11  8 17 16 24 30.0000000  0 11G03G06G07G10G13G16G19G28G23G08G11
   1924212.13348   1515023.91445  21258365.8444                   21258365.0164
   4737800.78947   3701615.66044  23008609.3054                   23008609.2814
  -5202632.50448  -4015919.20345  22218075.0394                   22218073.8164
   -130104.18746    -94383.31944  24032538.6174                   24032538.8164
  -2449033.42648  -1887070.24146  20151179.6804                   20151177.7774
   9074745.09046   7069661.46843  23490708.6484                   23490706.0904
  -5014483.00448  -3882090.49746  21195580.3364                   21195577.2194
  10190798.68846   7971402.01043  24736562.8594                   24736563.8954
   3173077.73448   2484952.09346  20605565.2584                   20605561.7624
  -2520072.35546  -1936130.86143  24144667.4224                   24144666.3984
  10742058.97356   8396724.20953  24883645.8594                   24883647.9924
 11  8 17 16 25  0.0000000  0 11G03G06G07G10G13G16G19G28G23G08G11
   1859498.21948   1464597.47345  21246051.2034                   21246050.3914
   4694789.00447   3668099.94644  23000424.4224                   23000423.9454
  -5368536.78947  -4145195.27646  22186504.9454                   22186503.0434
   -222468.43046   -166355.43043  24014962.4844                   24014962.3364
  -2561331.40248  -1974575.16847  20129809.9304                   20129807.8914
   9054488.83646   7053877.34444  23486854.4384                   23486851.9654
  -5153724.27748  -3990590.17846  21169083.6334                   21169080.5664
  10007121.78546   7828277.19943  24701610.2734                   24701611.3324
   3117870.76248   2441933.63546  20595060.0234                   20595056.6414
  -2697947.96547  -2074735.17643  24110818.9694                   24110818.1254
  10557727.11346   8253089.12542  24848568.6954                   24848570.7624
 11  8 17 16 25 30.0000000  0 11G03G06G07G10G13G16G19G28G23G08G11
   1795289.05548   1414564.33445  21233832.3524                   21233832.1844
   4652130.10547   3634859.21745  22992306.8134                   22992306.3364
  -5534474.12547  -4274497.07846  22154927.7664                   22154926.0394
   -314466.61746   -238042.45344  23997455.5164                   23997455.8244
  -2673118.57047  -2061682.06246  20108537.7734                   20108535.5744
   9034168.30547   7038043.19844  23482987.2974                   23482984.6884
  -5292456.14848  -4098692.92246  21142683.5084                   21142680.5984
   9823587.83646   7685263.85643  24666684.7274                   24666685.9694
   3063118.71148   2399269.66846  20584640.9224                   20584637.3404
  -2875957.79347  -2213444.10444  24076944.6254                   24076944.1684
  10373173.68045   8109281.32842  24813449.0474                   24813450.9304
 11  8 17 16 26  0.0000000  0 11G03G06G07G10G13G16G19G28G23G08G11
   1731587.13748   1364926.45545  21221710.6024                   21221709.6524
   4609825.75847   3601894.75744  22984256.7814                   22984256.1564
  -5700439.82447  -4403820.99546  22123345.2974                   22123343.7424
   -406096.40646   -309442.34743  23980018.2344                   23980019.2934
  -2784390.19547  -2148387.24546  20087363.3594                   20087361.1764
   9013785.73047   7022160.59244  23479108.7344                   23479107.3634
  -5430673.03548  -4206394.39546  21116381.8444                   21116378.5474
   9640201.49246   7542365.48743  24631787.6254                   24631787.7774
   3008824.07048   2356962.11246  20574308.8134                   20574305.5634
  -3054098.61347  -2352255.07544  24043046.2664                   24043045.6334
  10188404.78545   7965305.69542  24778288.2424                   24778289.5164
 11  8 17 16 26 30.0000000  0 11G03G06G07G10G13G16G19G28G23G08G11
   1668397.46548   1315687.72745  21209685.7114                   21209685.0474
   4567880.80947   3569210.37545  22976274.8984                   22976274.3134
  -5866426.38347  -4533161.13946  22091758.9064                   22091757.4414
   -497352.81646   -380551.21243  23962653.7424                   23962653.2704
  -2895138.45747  -2234684.59947  20066288.5164                   20066286.8954
   8993346.49646   7006233.87744  23475219.2274                   23475217.8134
  -5568366.60947  -4313688.08046  21090179.6884                   21090176.4454
   9456970.16046   7399587.87243  24596919.5634                   24596919.9654
   2954992.66048   2315015.51346  20564065.2344                   20564061.5394
  -3232363.14147  -2491162.52444  24009123.0084                   24009122.7034
  10003429.64845   7821169.27742  24743089.2584                   24743090.4694
 11  8 17 16 27  0.0000000  0 11G03G06G07G10G13G16G19G28G23G08G11
   1605719.75448   1266847.92645  21197758.6884                   21197758.0474
   4526294.22347   3536805.21645  22968361.2894                   22968361.4534
  -6032431.81647  -4662516.02646  22060169.2034                   22060167.6804
   -588236.44146   -451369.69243  23945359.4304                   23945359.2544
  -3005361.69548  -2320572.85947  20045313.6804                   20045312.1524
   8972849.57046   6990262.17944  23471318.5474                   23471317.1524
  -5705534.36348  -4420572.03446  21064077.5394                   21064074.5204
   9273895.54746   7256932.42043  24562081.8054                   24562082.3984
   2901623.84448   2273429.38346  20553909.5394                   20553905.8914
  -3410750.31647  -2630165.48243  23975177.0944                   23975176.6564
   9818251.60946   7676874.91442  24707850.4844                   24707852.4494
 11  8 17 16 27 30.0000000  0 11G03G06G07G10G13G16G19G28G23G08G11
   1543555.98048   1218408.59345  21185929.2114                   21185928.7814
   4485067.87547   3504680.75645  22960516.1174                   22960516.1094
  -6198451.17247  -4791881.73445  22028576.8204                   22028575.1994
   -678744.91046   -521895.78243  23928136.0554                   23928136.3244
  -3115055.13348  -2406048.26547  20024440.1484                   20024438.0044
   8952297.46546   6974247.52244  23467407.6564                   23467406.2664
  -5842170.91048  -4527042.07246  21038076.6484                   21038073.3014
   9090982.11346   7114402.53043  24527274.3134                   24527274.8594
   2848720.49648   2232205.96746  20543842.1884                   20543838.7194
  -3589255.78947  -2769260.62744  23941208.6174                   23941208.7274
   9632876.81346   7532427.10942  24672575.9844                   24672575.9304
 11  8 17 16 28  0.0000000  0 11G03G06G07G10G13G16G19G28G23G08G11
   1481906.75848   1170370.21645  21174197.9064                   21174197.3674
   4444201.96547   3472837.14645  22952739.9614                   22952739.4024
  -6364481.60947  -4921256.08046  21996982.2034                   21996980.7664
   -768877.40646   -592128.98343  23910984.2274                   23910984.3984
  -3224215.75048  -2491108.49947  20003667.5474                   20003665.5164
   8931691.18046   6958190.63544  23463486.6024                   23463485.2424
  -5978272.59048  -4633095.31746  21012177.5004                   21012174.0234
   8908232.34846   6972000.18343  24492498.6024                   24492498.8134
   2796283.46548   2191345.89546  20533864.0474                   20533860.6914
  -3767877.39147  -2908446.27544  23907218.0164                   23907217.3404
   9447309.96846   7387829.75442  24637263.0704                   24637263.5824
 11  8 17 16 28 30.0000000  0 11G03G06G07G10G13G16G19G28G23G08G11
   1420770.81648   1122731.80245  21162564.0864                   21162563.3164
   4403694.95347   3441273.21544  22945031.1174                   22945031.3954
  -6530521.42647  -5050637.74646  21965386.2974                   21965384.5634
   -858635.20346   -662070.13743  23893904.1724                   23893904.3324
  -3332842.29748  -2575752.57146  19982996.4614                   19982994.4104
   8911029.53946   6942090.58944  23459554.5394                   23459554.5314
  -6113837.39848  -4738730.23146  20986380.2664                   20986377.0824
   8725647.43046   6829726.25243  24457753.7274                   24457753.9064
   2744311.89548   2150848.53246  20523974.1884                   20523970.4844
  -3946613.98447  -3047721.53944  23873205.6884                   23873205.0784
   9261554.10946   7243084.99642  24601915.3984                   24601915.9384
 11  8 17 16 29  0.0000000  0 11G03G06G07G10G13G16G19G28G23G08G11
   1360147.80148   1075493.05445  21151028.1024                   21151027.2074
   4363545.52747   3409987.91544  22937390.8134                   22937390.6644
  -6696568.91847  -5180025.39446  21933788.5394                   21933786.7194
   -948019.14146   -731720.02743  23876894.4144                   23876894.8404
  -3440932.62148  -2659978.80746  19962427.5864                   19962425.2894
   8890312.24246   6925947.18344  23455612.6254                   23455611.2624
  -6248862.76248  -4843944.78446  20960685.5084                   20960682.5704
   8543228.84046   6687581.98042  24423040.2974                   24423039.4064
   2692805.67248   2110713.79546  20514172.5634                   20514169.4344
  -4125464.76247  -3187085.81144  23839171.2734                   23839170.6414
   9075612.90646   7098195.87542  24566530.4304                   24566532.3634
 11  8 17 16 29 30.0000000  0 11G03G06G07G10G13G16G19G28G23G08G11
   1300038.98848   1028655.01645  21139589.8204                   21139588.3914
   4323755.21147   3378982.44044  22929818.7814                   22929818.5664
  -6862619.77047  -5309415.64046  21902189.8444                   21902188.2854
  -1037027.44546   -801077.19843  23859957.5554                   23859957.0124
  -3548483.15248  -2743784.42847  19941961.4534                   19941959.5164
   8869540.77346   6909761.53244  23451660.3834                   23451659.0664
  -6383344.11348  -4948735.45246  20935094.7584                   20935091.0004
   8360980.35946   6545570.27743  24388359.6724                   24388359.2544
   2641766.40248   2070942.89146  20504460.3524                   20504456.9534
  -4304426.27746  -3326536.26844  23805115.7504                   23805116.0514
   8889491.72346   6953166.56342  24531113.1564                   24531114.5704
 11  8 17 16 30  0.0000000  0 11G03G06G07G10G13G16G19G28G23G08G11
   1240441.42647    982215.31345  21128248.8054                   21128248.0004
   4284320.56347   3348254.10344  22922314.9694                   22922314.7814
  -7028674.21547  -5438808.70046  21870590.6024                   21870588.9184
  -1125662.87946   -870143.77844  23843089.9384                   23843090.4454
  -3655494.15248  -2827169.63046  19921597.8914                   19921596.0784
   8848712.65246   6893531.79244  23447696.8984                   23447695.8634
  -6517280.81648  -5053101.70346  20909607.3444                   20909603.7384
   8178901.53546   6403690.79443  24353711.0554                   24353711.2774
   2591191.74248   2031534.02846  20494836.2344                   20494833.2424
  -4483498.91047  -3466073.33644  23771039.2034                   23771039.7934
   8703191.99246   6807998.08242  24495660.9144                   24495662.8094
 11  8 17 16 30 30.0000000  0 11G03G06G07G10G13G16G19G28G23G08G11
   1181352.84448    936172.25645  21117004.3284                   21117003.8714
   4245238.99647   3317800.88844  22914878.8754                   22914878.1804
  -7194731.84847  -5568204.24546  21838990.6804                   21838989.4884
  -1213928.17646   -938921.96843  23826293.8594                   23826294.4494
  -3761965.43748  -2910134.28146  19901337.1644                   19901335.1054
   8827825.67646   6877256.22944  23443722.1094                   23443720.9694
  -6650672.80148  -5157043.49746  20884223.6644                   20884220.5554
   7996992.03946   6261943.21142  24319094.8524                   24319094.0594
   2541079.37948   1992485.38746  20485300.1484                   20485297.1174
  -4662683.73446  -3605697.81144  23736941.5704                   23736941.6454
   8516715.46946   6662691.84842  24460175.9454                   24460176.9384
 11  8 17 16 31  0.0000000  0 11G03G06G07G10G13G16G19G28G23G08G11
   1122775.03948    890527.20545  21105857.2664                   21105856.6764
   4206511.65247   3287623.70944  22907508.6564                   22907508.1054
  -7360788.60947  -5697599.08845  21807391.3284                   21807389.6764
  -1301821.50046  -1007410.34843  23809568.5234                   23809568.3134
  -3867892.96948  -2992675.22447  19881179.8524                   19881177.8714
   8806881.80547   6860936.29844  23439736.4454                   23439735.2704
  -6783514.96548  -5260556.86246  20858944.6094                   20858941.5274
   7815255.84446   6120330.65543  24284511.6724                   24284511.3054
   2491431.28948   1953798.51946  20475852.6884                   20475849.2624
  -4841976.64146  -3745406.51944  23702824.2814                   23702822.9964
   8330068.18446   6517252.53942  24424658.0004                   24424659.4224
 11  8 17 16 31 30.0000000  0 11G03G06G07G10G13G16G19G28G23G08G11
   2640124.48848   2072877.40245  21394599.5394                   21394598.7154
   5743554.49647   4485319.40244  23199998.0864                   23199998.2664
  -5951420.94547  -4599390.51645  22075584.9454                   22075583.5864
    186075.34846    151989.79844  24092705.9454                   24092706.2464
  -2397855.88348  -1847191.79047  20160918.6174                   20160916.5554
  10361297.00446   8072168.89843  23735531.5704                   23735530.7274
  -5340384.94948  -4136039.95946  21133562.9534                   21133560.1844
   9209116.17246   7206455.74543  24549753.5164                   24549753.7274
   4017664.72748   3143071.29046  20766285.2274                   20766282.0784
  -3445954.53146  -2657597.03944  23968477.7424                   23968477.7544
   9718675.57046   7599284.50043  24688901.5164                   24688902.4494
 11  8 17 16 32  0.0000000  0 11G03G06G07G10G13G16G19G28G23G08G11
   2582563.85248   2028024.94445  21383645.9774                   21383645.2974
   5705530.80947   4455690.52444  23192762.1254                   23192762.0124
  -6117470.98447  -4728780.13846  22043986.4924                   22043984.7584
     98922.59446     84078.48344  24076121.4614                   24076122.4844
  -2502692.64548  -1928882.78046  20140968.7974                   20140967.0434
  10340236.85246   8055758.30443  23731523.9694                   23731523.4924
  -5472121.94948  -4238692.14846  21108494.5314                   21108491.7074
   9027729.62146   7065115.59043  24515236.1254                   24515237.2854
   3968942.61748   3105105.97646  20757013.9304                   20757009.9694
  -3625461.12147  -2797472.25344  23934318.4534                   23934318.2194
   9531695.84846   7453586.08642  24653320.2584                   24653321.1294
 11  8 17 16 32 30.0000000  0 11G03G06G07G10G13G16G19G28G23G08G11
   2525509.02748   1983566.62245  21372788.9534                   21372787.8954
   5667855.79347   4426333.35944  23185593.2814                   23185593.5314
  -6283516.38747  -4858166.14246  22012389.4924                   22012387.9104
     12137.44146     16453.64943  24059607.1254                   24059607.1684
  -2606983.03148  -2010148.02447  20121122.7114                   20121120.7774
  10319116.40246   8039300.73244  23727505.2894                   23727504.2114
  -5603304.64548  -4340912.41646  21083531.1094                   21083528.1844
   8846518.30146   6923912.18843  24480753.7424                   24480754.7664
   3920681.20748   3067499.64746  20747829.5234                   20747826.1214
  -3805074.18047  -2937430.46044  23900138.6414                   23900138.9924
   9344553.69546   7307761.15543  24617707.6414                   24617709.1214
 11  8 17 16 33  0.0000000  0 11G03G06G07G10G13G16G19G28G23G08G11
   2468955.53148   1939498.93545  21362027.3834                   21362026.6214
   5630524.35547   4397243.87744  23178489.7664                   23178489.6604
  -6449558.91847  -4987549.91246  21980792.3524                   21980790.8674
    -74284.69146    -50888.29644  24043160.8834                   24043162.1374
  -2710729.47348  -2090989.40946  20101380.3984                   20101378.5004
  10297931.24646   8022792.71644  23723473.9534                   23723473.0634
  -5733934.56648  -4442701.94846  21058672.6954                   21058669.7624
   8665479.96546   6782843.40943  24446302.9844                   24446303.9574
   3872876.25848   3030248.99846  20738733.0944                   20738729.3874
  -3984796.35247  -3077473.61644  23865938.7424                   23865939.1994
   9157248.67646   7161809.39543  24582064.7424                   24582066.2624
 11  8 17 16 33 30.0000000  0 11G03G06G07G10G13G16G19G28G23G08G11
   2412903.09448   1895821.69845  21351360.7974                   21351359.6564
   5593536.16847   4368421.87544  23171450.8284                   23171450.6804
  -6615595.85947  -5116929.33146  21949196.7034                   21949195.2274
   -160344.11746   -117947.64143  24026784.9304                   24026784.9344
  -2813929.64148  -2171405.13446  20081742.3204                   20081740.5394
  10276681.65647   8006234.56344  23719430.1024                   23719429.6564
  -5864008.84048  -4544058.52046  21033920.4614                   21033917.6884
   8484617.06346   6641911.32743  24411885.9694                   24411887.4304
   3825527.62148   2993353.92946  20729722.8914                   20729719.7304
  -4164625.67246  -3217600.32244  23831718.7424                   23831718.7154
   8969784.68846   7015733.70043  24546391.5704                   24546393.1214
 11  8 17 16 34  0.0000000  0 11G03G06G07G10G13G16G19G28G23G08G11
   2357349.66447   1852533.28445  21340789.2194                   21340788.3954
   5556888.82447   4339865.46344  23164477.2974                   23164476.6954
  -6781626.50047  -5246303.84046  21917602.1724                   21917600.3634
   -246042.91846   -184725.93944  24010476.8444                   24010477.0784
  -2916582.98448  -2251394.76546  20062208.0784                   20062206.2384
  10255366.10547   7989624.98244  23715374.4304                   23715373.0744
  -5993526.14148  -4644981.07946  21009274.2344                   21009270.9024
   8303929.25446   6501115.73943  24377503.2194                   24377503.1334
   3778633.65648   2956813.13546  20720799.2034                   20720796.1644
  -4344562.19146  -3357810.55543  23797477.9454                   23797477.8594
   8782164.51646   6869536.37443  24510688.5234                   24510690.5124
 11  8 17 16 34 30.0000000  0 11G03G06G07G10G13G16G19G28G23G08G11
   2302292.44948   1809631.55945  21330312.0474                   21330311.8134
   5520579.14547   4311572.21944  23157567.3444                   23157566.9384
  -6947650.39847  -5375673.09946  21886008.9064                   21886007.4694
   -331383.62946   -251225.23544  23994236.4924                   23994236.8754
  -3018690.05548  -2330958.72847  20042777.7034                   20042775.6334
  10233982.53147   7972962.40344  23711305.2584                   23711303.8834
  -6122486.79348  -4745469.88846  20984733.9924                   20984731.1094
   8123416.32447   6360456.41343  24343152.4384                   24343152.1684
   3732192.00848   2920624.79746  20711961.4614                   20711958.4534
  -4524606.21947  -3498104.54944  23763216.1954                   23763216.4494
   8594389.59446   6723218.39943  24474956.5004                   24474957.5634
 11  8 17 16 35  0.0000000  0 11G03G06G07G10G13G16G19G28G23G08G11
   2247728.38747   1767114.09045  21319928.7814                   21319928.8554
   5484604.44547   4283539.94945  23150722.4454                   23150722.1054
  -7113667.31648  -5505036.92246  21854417.1254                   21854415.1804
   -416368.80946   -317447.50644  23978064.2664                   23978065.3054
  -3120251.08648  -2410097.19846  20023451.2274                   20023449.3134
  10212529.04746   7956245.38744  23707222.7034                   23707222.1914
  -6250890.00048  -4845524.31546  20960299.7664                   20960296.5944
   7943078.12147   6219933.15743  24308834.9384                   24308835.0274
   3686200.33248   2884787.08946  20703209.7344                   20703206.9344
  -4704758.00047  -3638482.54644  23728935.0554                   23728935.1334
   8406462.30946   6576781.64943  24439194.8674                   24439196.1914
 11  8 17 16 35 30.0000000  0 11G03G06G07G10G13G16G19G28G23G08G11
   2193658.50047   1724981.69945  21309639.8834                   21309639.0594
   5448965.02047   4255768.94844  23143939.7584                   23143940.4224
  -7279673.62147  -5634392.48646  21822826.5474                   21822825.2074
   -500997.77046   -383392.20844  23961960.4924                   23961960.3404
  -3221262.96148  -2488807.76746  20004229.5864                   20004227.5164
  10191006.23047   7939474.28244  23703127.0634                   23703125.9494
  -6378731.98048  -4945141.43846  20935972.2894                   20935969.1884
   7762917.29347   6079548.17843  24274551.0314                   24274551.5904
   3640659.63348   2849300.78846  20694543.6414                   20694540.6414
  -4885014.70347  -3778942.27044  23694633.6094                   23694633.5084
   8218387.34446   6430229.90943  24403405.3524                   24403406.8794
 11  8 17 16 36  0.0000000  0 11G03G06G07G10G13G16G19G28G23G08G11
   2140081.26647   1683233.19145  21299444.7194                   21299443.0704
   5413659.09847   4228257.79145  23137221.1884                   23137221.8634
  -7445667.83247  -5763738.60746  21791239.2194                   21791237.8054
   -585271.89946   -449060.33344  23945923.6024                   23945924.0864
  -3321724.85248  -2567089.77146  19985112.2584                   19985110.2234
  10169413.52346   7922648.77244  23699018.1644                   23699017.0554
  -6506011.60248  -5044320.34346  20911751.3594                   20911748.2344
   7582934.97747   5939302.28243  24240301.7664                   24240301.3134
   3595568.53948   2814164.83846  20685963.3364                   20685959.8484
  -5065375.49647  -3919483.12144  23660311.9384                   23660310.9494
   8030167.68046   6283565.35743  24367587.6174                   24367589.2624
 11  8 17 16 36 30.0000000  0 11G03G06G07G10G13G16G19G28G23G08G11
   2086994.72747   1641867.04645  21289342.0314                   21289341.8914
   5378684.58247   4201004.87544  23130565.9614                   23130565.8364
  -7611648.85247  -5893074.46246  21759654.2274                   21759652.4064
   -669193.06646   -514453.54444  23929954.2344                   23929954.4804
  -3421636.41848  -2644942.94846  19966099.7664                   19966097.6844
  10147749.66846   7905767.78043  23694895.6724                   23694894.2734
  -6632727.50848  -5143059.99946  20887638.6024                   20887635.5904
   7403131.71146   5799195.93944  24206086.0554                   24206086.1254
   3550925.64848   2779378.13946  20677467.6804                   20677464.5434
  -5245839.81647  -4060104.60644  23625970.4774                   23625970.1414
   7841806.08246   6136790.25843  24331743.8204                   24331745.1054
 11  8 17 16 37  0.0000000  0 11G03G06G07G10G13G16G19G28G23G08G11
   2034396.43447   1600881.33745  21279333.6644                   21279332.8674
   5344038.94547   4174008.25944  23123972.9224                   23123972.9494
  -7777615.94548  -6022399.45246  21728071.6564                   21728069.7664
   -752763.47746   -579573.37644  23914050.9454                   23914051.1994
  -3520997.21948  -2722366.97046  19947192.0474                   19947190.1024
  10126013.34846   7888830.25943  23690759.5704                   23690758.2894
  -6758879.03948  -5241359.88246  20863632.2974                   20863629.2854
   7223507.37946   5659228.99243  24171905.2734                   24171905.4384
   3506728.96148   2744939.11146  20669057.7974                   20669054.5204
  -5426407.55146  -4200806.70344  23591609.5704                   23591609.1214
   7653305.04346   5989906.47243  24295872.8984                   24295874.6684
 11  8 17 16 37 30.0000000  0 11G03G06G07G10G13G16G19G28G23G08G11
   1982285.67647   1560275.55645  21269417.2734                   21269415.9694
   5309720.66046   4147266.68244  23117442.4384                   23117443.1604
  -7943566.90248  -6151711.87746  21696492.3204                   21696490.4734
   -835984.20746   -644420.74744  23898215.0864                   23898215.6564
  -3619806.77348  -2799361.44047  19928389.1564                   19928387.1604
  10104204.01246   7871835.99043  23686609.6254                   23686607.2074
  -6884464.24648  -5339218.46446  20839734.0314                   20839731.1764
   7044062.95347   5519402.17544  24137757.7194                   24137757.7114
   3462977.45748   2710847.01446  20660732.2034                   20660729.0594
  -5607077.74647  -4341588.63644  23557228.8594                   23557228.5864
   7464667.84846   5842916.55043  24259976.8984                   24259978.2464
 11  8 17 16 38  0.0000000  0 11G03G06G07G10G13G16G19G28G23G08G11
   1930657.82047   1520046.04845  21259592.6644                   21259592.1764
   5275725.59446   4120776.98044  23110973.0944                   23110973.8404
  -8109502.96548  -6281012.68746  21664915.4694                   21664913.7464
   -918859.19146   -708998.71444  23882444.5004                   23882444.7194
  -3718066.21948  -2875927.25447  19909691.1024                   19909689.0164
  10082318.01247   7854781.92543  23682445.0084                   23682442.8014
  -7009484.21148  -5436636.61446  20815943.8364                   20815940.7624
   6864796.96146   5379714.49543  24103643.9844                   24103644.6724
   3419667.62148   2677099.03546  20652490.5784                   20652487.5274
  -5787852.45347  -4482452.01644  23522829.1414                   23522827.8554
   7275895.04346   5695820.91643  24224053.4694                   24224055.7274
 11  8 17 16 38 30.0000000  0 11G03G06G07G10G13G16G19G28G23G08G11
   3454932.28147   2707792.37445  21549652.3284                   21549651.8054
   6817472.23047   5322137.95544  23404358.6954                   23404358.5474
  -6699997.96547  -5182697.09546  21933135.5634                   21933133.9614
    574031.58246    454292.73944  24166532.3674                   24166532.7034
  -2240352.63748  -1724462.13747  20190890.1804                   20190888.5474
  11635774.37947   9065267.35844  23978057.9384                   23978056.0744
  -5558514.35548  -4306010.72446  21092054.2424                   21092051.1334
   8261135.17646   6467770.32943  24369358.8984                   24369358.8834
   4952218.77348   3871294.70046  20944125.5164                   20944121.9924
  -4393304.94547  -3395791.56444  23788202.8284                   23788201.5864
   8662415.39546   6776226.49943  24487900.1174                   24487900.9104
 11  8 17 16 39  0.0000000  0 11G03G06G07G10G13G16G19G28G23G08G11
   3404266.35247   2668312.40945  21540011.2584                   21540009.6954
   6784118.41047   5296147.94944  23398011.5634                   23398010.9494
  -6865899.01248  -5311970.61446  21901565.6884                   21901563.8364
    491843.40646    390249.96644  24150891.8674                   24150892.2154
  -2337509.75848  -1800169.01546  20172402.0474                   20172400.1684
  11613732.99247   9048092.24144  23973863.5084                   23973862.7624
  -5682399.72348  -4402544.76446  21068479.4454                   21068476.5314
   8082228.58646   6328362.62443  24335313.3284                   24335313.6804
   4909788.43448   3838232.07046  20936051.3134                   20936048.2074
  -4574284.30147  -3536814.43944  23753763.0634                   23753761.8834
   8473381.30946   6628927.29543  24451928.1564                   24451929.4534
 11  8 17 16 39 30.0000000  0 11G03G06G07G10G13G16G19G28G23G08G11
   3354077.32447   2629204.07345  21530460.4224                   21530459.5204
   6751081.23446   5270404.64544  23391724.1254                   23391723.9734
  -7031781.80548  -5441229.91546  21869999.3054                   21869997.4264
    409994.87946    326471.86044  24135316.8594                   24135317.6454
  -2434116.16048  -1875446.73547  20154018.4534                   20154016.4224
  11591611.25346   9030854.44444  23969653.8054                   23969653.7154
  -5805717.28948  -4498636.35946  21045013.0314                   21045010.3134
   7903501.41046   6189094.82043  24301303.1174                   24301302.7734
   4867794.44548   3805509.42846  20928059.8054                   20928057.1094
  -4755366.43747  -3677917.35344  23719304.2194                   23719303.6174
   8284219.52346   6481528.57543  24415932.8134                   24415932.8014
 11  8 17 16 40  0.0000000  0 11G03G06G07G10G13G16G19G28G23G08G11
   3304363.95348   2590466.36745  21521000.1884                   21520999.7894
   6718359.03147   5244906.83444  23385497.8444                   23385496.8524
  -7197644.42648  -5570473.51646  21838436.4844                   21838434.9534
    328484.92646    262957.56744  24119805.5394                   24119806.7034
  -2530170.99648  -1950294.67246  20135739.6334                   20135738.1294
  11569408.94146   9013553.84244  23965427.9144                   23965428.2504
  -5928465.59048  -4594284.37346  21021655.0554                   21021651.8554
   7724954.48446   6049967.39643  24267326.3524                   24267326.1054
   4826235.69948   3773125.95146  20920151.4304                   20920148.5514
  -4936550.48847  -3819099.69544  23684826.1174                   23684825.2304
   8094933.44946   6334032.97043  24379911.3524                   24379912.7304
 11  8 17 16 40 30.0000000  0 11G03G06G07G10G13G16G19G28G23G08G11
   3255125.45747   2552098.69745  21511630.1094                   21511629.8404
   6685951.02347   5219653.78144  23379330.8364                   23379330.4884
  -7363484.01648  -5699699.14346  21806878.0314                   21806876.7154
    247312.82846    199706.53644  24104359.6254                   24104359.9184
  -2625672.28148  -2024711.27946  20117566.6564                   20117564.7274
  11547126.32046   8996190.70244  23961188.9614                   23961188.1454
  -6050641.80548  -4689486.61246  20998405.6414                   20998401.9184
   7546590.06346   5910982.16843  24233384.4774                   24233384.0204
   4785111.79748   3741081.30746  20912325.9924                   20912323.0204
  -5117834.30946  -3960359.78344  23650328.7504                   23650328.1644
   7905527.38746   6186443.92443  24343868.6174                   24343869.9494
 11  8 17 16 41  0.0000000  0 11G03G06G07G10G13G16G19G28G23G08G11
   3206359.55948   2514099.27945  21502350.8914                   21502350.2774
   6653854.85947   5194643.77844  23373223.2344                   23373223.0944
  -7529299.51648  -5828906.01446  21775324.3674                   21775322.8134
    166476.64546    136717.28244  24088977.1954                   24088977.5124
  -2720619.95748  -2098696.49046  20099498.7344                   20099496.8674
  11524761.58246   8978763.56744  23956932.2894                   23956932.2934
  -6172245.66448  -4784242.84846  20975264.8284                   20975261.7074
   7368408.03946   5772139.07543  24199477.9844                   24199477.1454
   4744421.30948   3709374.39546  20904583.2504                   20904580.3284
  -5299216.95347  -4101696.92644  23615813.3364                   23615812.5554
   7716004.01646   6038763.49543  24307803.6094                   24307804.3634
 11  8 17 16 41 30.0000000  0 11G03G06G07G10G13G16G19G28G23G08G11
   3158063.22747   2476465.76445  21493160.1804                   21493159.5164
   6622067.37947   5169874.28644  23367174.1954                   23367174.6954
  -7695090.88348  -5958094.08446  21743775.2504                   21743773.6254
     85973.48046     73987.47844  24073657.6954                   24073657.9574
  -2815015.06248  -2172251.12947  20081535.8204                   20081533.9534
  11502312.91446   8961271.03744  23952660.6644                   23952659.7074
  -6293277.19948  -4878553.13546  20952233.3524                   20952229.9574
   7190407.66846   5633437.54443  24165605.3594                   24165604.9304
   4704160.98848   3678002.66646  20896921.9224                   20896918.7464
  -5480699.45346  -4243111.82944  23581277.9694                   23581277.2974
   7526364.87146   5890992.81843  24271716.7194                   24271717.4344
 11  8 17 16 42  0.0000000  0 11G03G06G07G10G13G16G19G28G23G08G11
   3110233.97347   2439196.20145  21484058.6644                   21484057.8634
   6590585.80147   5145343.18144  23361183.4614                   23361183.1914
  -7860857.27748  -6087262.68346  21712231.2584                   21712229.8954
      5800.66446     11515.12944  24058401.3594                   24058402.3634
  -2908857.82448  -2245375.38146  20063678.2504                   20063676.1914
  11479778.71546   8943711.91843  23948372.2194                   23948371.2274
  -6413736.24248  -4972417.32646  20929310.9534                   20929307.7344
   7012588.96147   5494877.56943  24131767.8754                   24131766.5204
   4664328.70748   3646964.47646  20889341.8204                   20889338.8404
  -5662281.71146  -4384604.41744  23546724.1564                   23546723.7504
   7336612.39546   5743133.79743  24235607.5554                   24235608.6454
 11  8 17 16 42 30.0000000  0 11G03G06G07G10G13G16G19G28G23G08G11
   3062869.08647   2402288.47445  21475045.6174                   21475044.5234
   6559407.50446   5121048.30544  23355250.2344                   23355251.1374
  -8026597.88747  -6216411.21946  21680692.0234                   21680690.0664
    -74044.09446    -50701.61644  24043207.3914                   24043207.4184
  -3002148.60548  -2318069.50946  20045925.8134                   20045923.4064
  11457157.60946   8926084.93243  23944068.4924                   23944067.3554
  -6533622.28548  -5065835.01146  20906497.5394                   20906494.4224
   6834951.91847   5356459.11643  24097964.6644                   24097964.1024
   4624922.39148   3616258.18646  20881842.9924                   20881840.4574
  -5843963.36346  -4526174.54144  23512150.8984                   23512151.1994
   7146749.03946   5595188.49543  24199477.4224                   24199479.1484
 11  8 17 16 43  0.0000000  0 11G03G06G07G10G13G16G19G28G23G08G11
   3015966.84847   2365741.25445  21466119.9144                   21466119.7424
   6528530.67646   5096988.39144  23349374.1724                   23349374.7734
  -8192310.91847  -6345538.24246  21649157.6484                   21649155.8134
   -153562.29347   -112663.88344  24028075.7894                   24028076.2274
  -3094886.89848  -2390333.12946  20028277.8524                   20028276.3954
  11434448.65646   8908389.57643  23939747.1024                   23939745.4884
  -6652934.09448  -5158805.24246  20883792.9534                   20883789.5514
   6657497.07847   5218182.63543  24064196.3914                   24064195.5354
   4585940.27748   3585882.48646  20874424.9924                   20874422.2704
  -6025743.77746  -4667821.54244  23477559.3444                   23477558.6214
   6956777.71946   5447159.03843  24163327.1884                   24163327.9924
 11  8 17 16 43 30.0000000  0 11G03G06G07G10G13G16G19G28G23G08G11
   2969526.62147   2329554.05545  21457282.5314                   21457282.2504
   6497954.27746   5073162.58144  23343556.3284                   23343556.1094
  -8357994.05148  -6474641.97946  21617629.2194                   21617627.6294
   -232754.91447   -174372.48143  24013006.0164                   24013006.5784
  -3187071.11348  -2462165.00246  20010735.9774                   20010734.0554
  11411652.19146   8890626.06243  23935409.0784                   23935407.4774
  -6771669.98048  -5251326.70346  20861198.2664                   20861195.3554
   6480225.90246   5080049.31343  24030462.4614                   24030462.5474
   4547382.03948   3555837.04846  20867087.7664                   20867084.8404
  -6207620.96946  -4809543.99144  23442949.2664                   23442948.7624
   6766702.56346   5299048.52143  24127157.5864                   24127158.0824
 11  8 17 16 44  0.0000000  0 11G03G06G07G10G13G16G19G28G23G08G11
   2923543.29748   2293722.88045  21448532.6954                   21448531.9654
   6467673.28946   5049566.93544  23337793.7894                   23337794.1684
  -8523648.69548  -6603723.50346  21586106.0474                   21586104.6604
   -311626.98847   -235831.32343  23997997.2734                   23997997.3094
  -3278704.10948  -2533567.34546  19993298.7734                   19993296.5984
  11388763.80146   8872790.91143  23931054.0314                   23931052.5554
  -6889832.17248  -5343401.14146  20838712.7974                   20838709.8054
   6303135.89846   4942057.12043  23996763.8284                   23996762.9654
   4509242.87148   3526118.18246  20859830.3284                   20859827.0044
  -6389597.10946  -4951343.54744  23408320.4924                   23408319.7194
   6576523.60246   5150857.32643  24090967.4384                   24090968.5704
 11  8 17 16 44 30.0000000  0 11G03G06G07G10G13G16G19G28G23G08G11
   2878016.44147   2258247.38045  21439869.1564                   21439868.4774
   6437687.16047   5026201.08444  23332088.3984                   23332088.1134
  -8689271.64148  -6732780.34446  21554589.1174                   21554587.5204
   -390178.75047   -297040.50043  23983049.4844                   23983049.4104
  -3369784.17248  -2604538.83846  19975966.7344                   19975964.9024
  11365784.43847   8854884.80243  23926680.4064                   23926679.8714
  -7007418.12548  -5435026.54046  20816336.8754                   20816333.8204
   6126229.13746   4804207.83843  23963098.7504                   23963099.0434
   4471522.25448   3496725.44246  20852652.1024                   20852648.9574
  -6571669.85246  -5093218.37044  23373672.5004                   23373672.4384
   6386245.32446   5002588.64643  24054758.6804                   24054759.3954
 11  8 17 16 45  0.0000000  0 11G03G06G07G10G13G16G19G28G23G08G11
   2832942.56347   2223124.85245  21431291.7424                   21431291.1684
   6407992.66046   5003062.46144  23326437.5554                   23326437.6914
  -8854862.84048  -6861812.43146  21523078.1804                   21523076.4844
   -468413.12547   -358002.42543  23968162.3914                   23968162.2464
  -3460312.39548  -2675080.31946  19958739.9844                   19958738.1524
  11342712.15647   8836906.44143  23922290.2114                   23922288.8404
  -7124428.11348  -5526203.16246  20794070.5164                   20794067.2814
   5949504.71146   4666500.54343  23929469.3284                   23929469.3244
   4434218.31648   3467657.39546  20845553.4614                   20845550.1724
  -6753839.75447  -5235168.90144  23339007.3054                   23339006.8524
   6195869.77747   4854244.12743  24018531.3524                   24018532.2154
 11  8 17 16 45 30.0000000  0 11G03G06G07G10G13G16G19G28G23G08G11
   4363741.22747   3415954.97345  21722593.1804                   21722592.0354
   7954008.85946   6207750.36644  23620634.8444                   23620633.9384
  -7444994.89148  -5763214.03546  21791367.3674                   21791365.9024
   1029090.64146    808883.57243  24253126.7344                   24253127.8554
  -1974865.16848  -1517588.99746  20241410.9064                   20241408.9614
  12894967.39146  10046455.91743  24217674.5004                   24217673.7234
  -5665437.23848  -4389327.14846  21071707.3524                   21071704.2814
   7348389.35546   5756540.57844  24195668.5164                   24195667.8914
   5972749.94548   4666513.19046  21138326.4534                   21138323.6764
  -5360679.55547  -4149589.47344  23604117.0864                   23604115.7894
   7580826.13347   5933431.01443  24282079.8444                   24282080.2194
 11  8 17 16 46  0.0000000  0 11G03G06G07G10G13G16G19G28G23G08G11
   4319565.84847   3381532.55845  21714186.4304                   21714186.3054
   7924889.63747   6185060.04944  23615093.0634                   23615093.3954
  -7610519.61747  -5892194.31646  21759868.8984                   21759866.9494
    951483.61346    748410.50644  24238358.9924                   24238360.2854
  -2064290.41448  -1587271.01346  20224394.0234                   20224392.2074
  12871705.28546  10028329.58343  24213247.8914                   24213247.1804
  -5781294.85248  -4479605.80146  21049660.3444                   21049657.3014
   7172029.69546   5619117.57544  24162107.7894                   24162108.2464
   5936271.30948   4638088.22346  21131384.9224                   21131382.2154
  -5543042.66847  -4291690.56944  23569414.0474                   23569413.8874
   7390262.82046   5784940.23343  24245816.3834                   24245817.2814
 11  8 17 16 46 30.0000000  0 11G03G06G07G10G13G16G19G28G23G08G11
   4275834.67247   3347456.29745  21705865.2504                   21705864.2194
   7896052.50046   6162589.53344  23609606.1414                   23609605.6524
  -7776011.21148  -6021148.77746  21728376.9144                   21728375.0594
    874185.23046    688177.91643  24223650.0004                   24223650.4184
  -2153166.65648  -1656525.25646  20207481.5164                   20207479.6414
  12848344.22746  10010126.08243  24208802.2344                   24208801.5434
  -5896577.58248  -4569436.48946  21027722.7734                   21027719.8954
   6995850.49246   5481835.11744  24128582.1484                   24128582.6764
   5900200.09848   4609980.74046  21124520.7504                   21124518.0234
  -5725503.68047  -4433867.93444  23534692.8134                   23534692.3014
   7199607.71947   5636377.92343  24209535.8914                   24209536.4454
 11  8 17 16 47  0.0000000  0 11G03G06G07G10G13G16G19G28G23G08G11
   4232544.67647   3313723.81345  21697627.3834                   21697626.4344
   7867494.93046   6140336.87744  23604171.5474                   23604171.6334
  -7941468.42648  -6150076.46946  21696891.1254                   21696889.8054
    797192.63346    628183.64343  24208998.8914                   24208999.3914
  -2241494.06648  -1725351.81646  20190673.4224                   20190671.8444
  12824882.99646   9991844.58043  24204338.5164                   24204337.5944
  -6011285.28148  -4658819.11746  21005894.7194                   21005891.6414
   6819851.84446   5344693.40944  24095090.4384                   24095090.0164
   5864534.24648   4582189.12946  21117733.6724                   21117730.6454
  -5908062.21947  -4576121.34544  23499953.4304                   23499953.1844
   7008863.60546   5487746.24843  24173238.7274                   24173238.8054
 11  8 17 16 47 30.0000000  0 11G03G06G07G10G13G16G19G28G23G08G11
   4189694.77347   3280334.25545  21689473.3984                   21689472.1094
   7839216.07447   6118301.37844  23598790.5084                   23598790.1174
  -8106888.88348  -6278975.51446  21665412.8984                   21665411.1724
    720505.01246    568427.01343  24194405.3364                   24194405.7664
  -2329271.44948  -1793749.79346  20173970.1644                   20173968.1764
  12801322.16446   9973485.38144  24199854.4844                   24199853.6604
  -6125415.79348  -4747751.97646  20984176.3364                   20984173.4384
   6644035.08646   5207693.42544  24061633.8204                   24061633.2384
   5829273.09848   4554712.86846  21111023.5234                   21111021.0204
  -6090716.22347  -4718449.11544  23465195.8204                   23465195.0164
   6818034.69147   5339048.45843  24136924.7194                   24136925.9614
 11  8 17 16 48  0.0000000  0 11G03G06G07G10G13G16G19G28G23G08G11
   4147284.62947   3247287.36645  21681402.8444                   21681401.8524
   7811215.12146   6096482.40344  23593461.9224                   23593461.5864
  -8272269.68748  -6407843.65346  21633942.0314                   21633940.5984
    644122.26246    508907.99243  24179870.2584                   24179869.6564
  -2416497.31248  -1861718.01846  20157371.3914                   20157369.6294
  12777662.52346   9955049.24543  24195352.1254                   24195351.8634
  -6238967.58648  -4836233.88546  20962568.2664                   20962564.6374
   6468402.42246   5070836.86244  24028212.1804                   24028211.9964
   5794416.37148   4527551.72846  21104390.8204                   21104387.9844
  -6273463.62547  -4860849.66044  23430420.1414                   23430419.5314
   6627125.21146   5190287.89343  24100596.0704                   24100596.2424
 11  8 17 16 48 30.0000000  0 11G03G06G07G10G13G16G19G28G23G08G11
   4105309.76247   3214579.64845  21673415.4924                   21673414.6174
   7783487.36346   6074876.32044  23588185.3364                   23588184.8634
  -8437611.59848  -6536681.50346  21602478.5084                   21602476.6684
    568039.63746    449622.75243  24165392.7424                   24165392.3714
  -2503174.13748  -1929258.42246  20140877.0944                   20140875.6024
  12753900.06646   9936532.97343  24190830.7894                   24190829.1684
  -6351942.12947  -4924265.99946  20941069.8674                   20941066.5984
   6292951.32046   4934121.78044  23994824.7814                   23994824.3914
   5759959.68048   4500702.31746  21097833.8524                   21097831.0664
  -6456305.90247  -5003324.13944  23395625.6954                   23395625.1844
   6436135.59047   5041464.90343  24064251.9384                   24064252.3164
 11  8 17 16 49  0.0000000  0 11G03G06G07G10G13G16G19G28G23G08G11
   4063769.29347   3182210.41645  21665510.6414                   21665509.4884
   7756032.57446   6053483.00643  23582960.6564                   23582960.2734
  -8602911.34848  -6665486.48646  21571022.8914                   21571021.2464
    492256.72746    390571.07043  24150971.7274                   24150972.0314
  -2589300.71948  -1996370.06246  20124488.1174                   20124486.2114
  12730036.11746   9917937.65743  24186288.8914                   24186288.4144
  -6464337.63347  -5011846.90046  20919681.7664                   20919678.7774
   6117683.73846   4797549.72243  23961472.5164                   23961472.6844
   5725902.76648   4474164.41146  21091353.1644                   21091350.2464
  -6639240.47347  -5145870.54744  23360814.4924                   23360814.0824
   6245070.96947   4892583.41643  24027893.7344                   24027893.8794
 11  8 17 16 49 30.0000000  0 11G03G06G07G10G13G16G19G28G23G08G11
   4022655.94948   3150174.03445  21657686.8754                   21657686.1134
   7728843.39846   6032296.54444  23577787.3364                   23577787.4344
  -8768172.53148  -6794261.42846  21539574.9224                   21539573.0744
    416766.79746    331747.66043  24136606.2974                   24136607.0784
  -2674881.66048  -2063056.52746  20108202.4304                   20108200.7384
  12706064.80546   9899258.66043  24181727.7894                   24181727.4224
  -6576158.53548  -5098980.05446  20898402.8834                   20898400.1524
   5942595.05146   4661117.01143  23928153.9694                   23928154.6454
   5692238.66448   4447932.60046  21084947.1884                   21084944.4924
  -6822271.85547  -5288492.37544  23325984.7814                   23325983.6884
   6053928.92247   4743641.68143  23991520.9224                   23991520.6054
 11  8 17 16 50  0.0000000  0 11G03G06G07G10G13G16G19G28G23G08G11
   3981970.74647   3118471.26745  21649945.0164                   21649944.3404
   7701920.85946   6011317.87044  23572663.2584                   23572664.3054
  -8933390.41448  -6923002.61946  21508134.7344                   21508132.7424
    341570.76246    273153.30343  24122296.9304                   24122297.8754
  -2759914.43048  -2129315.84646  20092021.3364                   20092019.6844
  12681988.13746   9880497.49043  24177146.1254                   24177145.8594
  -6687400.96947  -5185662.46146  20877233.9534                   20877231.4264
   5767688.84546   4524826.49843  23894869.7504                   23894870.5394
   5658968.73448   4422007.92546  21078615.8134                   21078612.8914
  -7005395.82847  -5431186.34244  23291137.4844                   23291137.1914
   5862715.77047   4594644.41743  23955133.4454                   23955134.1414
 11  8 17 16 50 30.0000000  0 11G03G06G07G10G13G16G19G28G23G08G11
   3941712.33247   3087101.02745  21642284.4064                   21642283.6524
   7675263.32846   5990545.72644  23567591.2584                   23567591.6644
  -9098563.11748  -7051708.60946  21476703.5634                   21476701.8914
    266666.85246    214786.57743  24108043.0314                   24108043.6024
  -2844398.20348  -2195147.37746  20075944.5084                   20075942.7974
  12657806.03146   9861654.24143  24172544.4774                   24172544.1604
  -6798064.23047  -5271893.57146  20856175.7894                   20856172.4494
   5592965.83246   4388678.84743  23861621.0234                   23861621.5704
   5626091.58248   4396389.33046  21072359.7734                   21072356.9184
  -7188610.98847  -5573951.39444  23256273.2734                   23256271.4804
   5671435.40247   4445594.91943  23918734.0004                   23918734.9024
 11  8 17 16 51  0.0000000  0 11G03G06G07G10G13G16G19G28G23G08G11
   3901876.68447   3056060.23945  21634703.3364                   21634703.3134
   7648866.79746   5969976.98144  23562567.7504                   23562568.2854
  -9263690.41448  -7180379.23746  21445280.8834                   21445279.2034
    192051.59046    156644.72843  24093844.7664                   24093844.9184
  -2928334.90248  -2260552.62046  20059971.9224                   20059969.8244
  12633516.27046   9842727.16143  24167922.3594                   24167921.0554
  -6908149.40247  -5357674.21946  20835227.0474                   20835223.7934
   5418424.86746   4252672.94243  23828407.6414                   23828407.0594
   5593603.59048   4371073.97346  21066177.8594                   21066174.6724
  -7371918.27047  -5716788.19644  23221390.4384                   23221390.0354
   5480089.02347   4296493.87643  23882322.1724                   23882322.8954
 11  8 17 16 51 30.0000000  0 11G03G06G07G10G13G16G19G28G23G08G11
   3862460.02047   3025345.91945  21627202.4454                   21627201.8014
   7622727.74647   5949608.80944  23557593.7344                   23557594.1994
  -9428772.48848  -7309014.60546  21413867.0394                   21413865.1454
    117721.44546     98725.09143  24079700.1644                   24079700.6374
  -3011726.15248  -2325532.82646  20044102.9614                   20044101.4964
  12609116.53946   9823714.35343  24163279.8284                   24163278.1414
  -7017657.82448  -5443005.44346  20814388.4534                   20814385.5124
   5244064.32446   4116807.65443  23795227.4844                   23795227.7584
   5561501.21148   4346059.07846  21060068.7974                   21060065.9534
  -7555318.20347  -5859697.21444  23186490.3284                   23186489.9774
   5288677.92647   4147342.46643  23845898.1024                   23845898.0474
 11  8 17 16 52  0.0000000  0 11G03G06G07G10G13G16G19G28G23G08G11
   3823460.30147   2994956.51045  21619781.5634                   21619780.9144
   7596844.15646   5929439.74544  23552669.2894                   23552668.4184
  -9593807.60548  -7437613.39546  21382461.2664                   21382460.1524
     43674.29746     41025.99143  24065608.8834                   24065609.7114
  -3094572.28148  -2390088.26646  20028338.1724                   20028336.3444
  12584605.95346   9804615.15143  24158615.0704                   24158614.5354
  -7126588.78548  -5527886.70446  20793659.8834                   20793656.2034
   5069884.63346   3981083.31043  23762082.2504                   23762082.1764
   5529782.53148   4321343.18446  21054032.8754                   21054029.9654
  -7738809.56647  -6002677.44544  23151573.3364                   23151572.3484
   5097205.47747   3998143.18043  23809461.6334                   23809462.9654
 11  8 17 16 52 30.0000000  0 11G03G06G07G10G13G16G19G28G23G08G11
   5360295.03547   4192490.04045  21912231.5634                   21912230.8754
   9146633.44147   7137067.70444  23847584.1954                   23847583.6884
  -8183369.76648  -6338570.91146  21650858.6954                   21650856.8554
   1545329.21946   1211146.57743  24351364.3674                   24351365.5514
  -1601451.70747  -1226617.70646  20312469.4614                   20312468.0744
  14135403.62545  11013028.80943  24453722.0634                   24453721.9804
  -5659519.65648  -4384715.95546  21072833.4144                   21072830.2074
   6471310.76646   5073103.73244  24028765.0474                   24028764.6914
   7073865.49248   5524524.65346  21347862.5704                   21347859.2934
  -6346966.66447  -4918124.51244  23416432.4224                   23416431.5394
   6481099.94947   5076502.61443  24072807.7664                   24072808.6254
 11  8 17 16 53  0.0000000  0 11G03G06G07G10G13G16G19G28G23G08G11
   5322120.69547   4162743.76445  21904966.6884                   21904966.5164
   9121252.87147   7117290.61344  23842754.3984                   23842754.2464
  -8348307.24648  -6467093.62646  21619472.4614                   21619471.1764
   1471840.37946   1153882.53743  24337380.6254                   24337381.2504
  -1683209.34048  -1290324.97046  20296911.5394                   20296909.8204
  14110667.97746  10993754.23443  24449015.1024                   24449014.0784
  -5767296.12948  -4468697.61346  21052324.3204                   21052320.8364
   6297492.47746   4937660.97743  23995688.3054                   23995688.5044
   7042907.27348   5500401.32646  21341971.4384                   21341968.0634
  -6530639.92647  -5061246.46344  23381480.3984                   23381479.7234
   6289512.70747   4927213.93443  24036349.3914                   24036350.4414
 11  8 17 16 53 30.0000000  0 11G03G06G07G10G13G16G19G28G23G08G11
   5284354.19147   4133315.29945  21897780.3134                   21897779.9654
   9096118.74646   7097705.53844  23837971.1804                   23837971.5044
  -8513195.44148  -6595577.91646  21588095.4844                   21588093.1994
   1398625.84046   1096832.12343  24323448.5004                   24323448.1954
  -1764424.92248  -1353609.86046  20281456.9384                   20281454.9224
  14085817.29346  10974389.96143  24444286.8524                   24444286.0744
  -5874496.77748  -4552230.58146  21031924.4144                   21031921.5274
   6123853.53946   4802357.95643  23962646.0864                   23962645.1884
   7012324.54748   5476570.57746  21336151.4384                   21336148.2304
  -6714404.53947  -5204439.66644  23346511.3054                   23346510.2424
   6097871.14547   4777882.93843  23999881.5784                   23999882.2734
 11  8 17 16 54  0.0000000  0 11G03G06G07G10G13G16G19G28G23G08G11
   5246994.66047   4104203.93845  21890670.7274                   21890670.3834
   9071230.39546   7078311.98044  23833234.7584                   23833235.5984
  -8678031.10247  -6724021.29546  21556727.9694                   21556726.6134
   1325685.03546   1039995.06743  24309568.0554                   24309568.8554
  -1845097.29748  -1416471.46846  20266105.2344                   20266103.4774
  14060852.05146  10954936.47143  24439535.4224                   24439534.5434
  -5981119.93748  -4635313.55846  21011635.0864                   21011631.6804
   5950395.84047   4667196.17843  23929638.0084                   23929637.9494
   6982116.66448   5453031.91646  21330403.1564                   21330400.2234
  -6898258.02747  -5347702.06944  23311524.6724                   23311524.6024
   5906179.80547   4628513.12143  23963403.8364                   23963404.0864
 11  8 17 16 54 30.0000000  0 11G03G06G07G10G13G16G19G28G23G08G11
   5210038.71547   4075407.06745  21883638.6954                   21883638.2704
   9046584.73446   7059107.43743  23828545.1644                   23828545.3634
  -8842813.78947  -6852423.38646  21525370.9614                   21525368.8244
   1253014.84046    983368.90643  24295738.9384                   24295739.5084
  -1925227.92648  -1478910.93246  20250856.9694                   20250854.7894
  14035770.36746  10935392.25243  24434762.5784                   24434761.8404
  -6087166.23048  -4717947.02146  20991455.0474                   20991452.2974
   5777118.72347   4532175.10343  23896664.7734                   23896663.7624
   6952280.65648   5429783.03946  21324725.2974                   21324722.7344
  -7082200.21147  -5491033.63344  23276521.6414                   23276521.5274
   5714440.53147   4479105.92043  23926917.5084                   23926917.7034
 11  8 17 16 55  0.0000000  0 11G03G06G07G10G13G16G19G28G23G08G11
   5173484.20747   4046923.01045  21876682.5084                   21876682.1214
   9022179.53946   7040090.44043  23823900.5554                   23823901.2344
  -9007541.35548  -6980782.52646  21494023.8364                   21494022.8094
   1180613.64546    926952.34843  24281961.7664                   24281962.3834
  -2004817.07448  -1540928.46646  20235711.7344                   20235709.6914
  14010571.55946  10915756.77743  24429968.0474                   24429967.9694
  -6192635.35248  -4800130.76146  20971384.9454                   20971382.0354
   5604021.84447   4397294.45643  23863724.8674                   23863725.4064
   6922814.84448   5406822.61046  21319118.3204                   21319115.8134
  -7266230.27347  -5634433.64244  23241502.2194                   23241501.5514
   5522656.76646   4329664.07443  23890421.5084                   23890422.3404
 11  8 17 16 55 30.0000000  0 11G03G06G07G10G13G16G19G28G23G08G11
   5137327.77347   4018749.15145  21869802.3204                   21869801.3554
   8998011.72346   7021258.36543  23819302.3444                   23819301.9184
  -9172213.44948  -7109098.43046  21462688.3444                   21462686.4104
   1108477.62146    870742.34043  24268235.2894                   24268235.9574
  -2083865.92248  -1602524.98446  20220669.1484                   20220667.1994
  13985254.18046  10896028.90943  24425150.0084                   24425149.8794
  -6297528.27348  -4881865.50346  20951423.9844                   20951421.3444
   5431104.85547   4262553.97644  23830820.3054                   23830819.8014
   6893715.88748   5384148.03746  21313581.3444                   21313578.2194
  -7450348.47347  -5777902.33044  23206465.5554                   23206465.3794
   5330830.77047   4180189.30543  23853919.0084                   23853919.1414
 11  8 17 16 56  0.0000000  0 11G03G06G07G10G13G16G19G28G23G08G11
   5101568.93847   3990885.08145  21862997.5784                   21862996.6844
   8974080.81346   7002610.87343  23814748.7814                   23814747.7384
  -9336826.55148  -7237368.38046  21431363.1094                   21431361.8324
   1036606.53546    814738.89643  24254557.9924                   24254559.9694
  -2162373.17648  -1663699.48546  20205729.7584                   20205727.9964
  13959819.55146  10876209.65043  24420310.1724                   24420309.4844
  -6401843.15648  -4963149.81546  20931573.8524                   20931570.6054
   5258369.50046   4127955.05343  23797950.2344                   23797949.5204
   6864983.19548   5361758.86046  21308113.4534                   21308110.4414
  -7634551.96547  -5921437.49544  23171412.7274                   23171412.3164
   5138967.07046   4030685.17943  23817408.1094                   23817409.1844
 11  8 17 16 56 30.0000000  0 11G03G06G07G10G13G16G19G28G23G08G11
   5066203.50847   3963327.57345  21856267.9694                   21856267.4454
   8950382.73446   6984144.77544  23810238.6414                   23810238.8404
  -9501380.75847  -7365592.42646  21400050.0554                   21400048.1954
    964996.49646    758938.76043  24240931.4844                   24240933.0514
  -2240341.06648  -1724453.70246  20190893.0314                   20190891.0664
  13934265.50446  10856297.38143  24415447.7034                   24415446.8324
  -6505581.62148  -5043984.98446  20911833.0554                   20911829.8204
   5085814.63346   3993496.77143  23765114.0084                   23765112.5434
   6836613.17648   5339652.30446  21302715.0784                   21302712.1174
  -7818841.40647  -6065039.62144  23136343.6724                   23136343.1724
   4947067.16846   3881152.83944  23780890.3984                   23780891.6804
 11  8 17 16 57  0.0000000  0 11G03G06G07G10G13G16G19G28G23G08G11
   5031232.57047   3936077.46945  21849612.7974                   21849612.3404
   8926919.04746   6965861.36044  23805773.5394                   23805774.0904
  -9665870.70748  -7493766.40646  21368748.1334                   21368746.4344
    893648.97346    703343.23843  24227354.4454                   24227355.2464
  -2317766.49648  -1784785.22246  20176159.5234                   20176157.6524
  13908594.03946  10836293.58143  24410561.8984                   24410561.6724
  -6608739.94548  -5124368.08946  20892202.8284                   20892199.7384
   4913443.68046   3859181.82044  23732311.6644                   23732311.3984
   6808607.64148   5317829.75446  21297385.7894                   21297383.0474
  -8003212.14847  -6208705.10544  23101259.1884                   23101258.1994
   4755137.94946   3731597.66843  23744367.6254                   23744368.5554
 11  8 17 16 57 30.0000000  0 11G03G06G07G10G13G16G19G28G23G08G11
   4996651.90247   3909131.45645  21843032.2504                   21843031.7304
   8903685.48046   6947757.21544  23801353.1804                   23801353.5744
  -9830296.82448  -7621890.64046  21337458.9694                   21337457.3714
    822559.64846    647948.90143  24213826.7974                   24213828.3874
  -2394652.12148  -1844696.11446  20161528.8054                   20161526.7344
  13882802.94146  10816196.52243  24405655.0554                   24405654.0124
  -6711320.19548  -5204300.74646  20872682.4384                   20872679.1804
   4741254.56646   3725008.54744  23699545.7504                   23699545.1564
   6780962.49648   5296288.03445  21292125.1024                   21292122.4734
  -8187665.01647  -6352434.57944  23066158.5474                   23066158.2584
   4563180.48447   3582020.48744  23707839.7114                   23707840.3714
 11  8 17 16 58  0.0000000  0 11G03G06G07G10G13G16G19G28G23G08G11
   4962458.55947   3882487.27344  21836525.6254                   21836525.6884
   8880679.14546   6929830.13844  23796974.1884                   23796975.0004
  -9994658.40247  -7749964.58146  21306182.1564                   21306180.8324
    751725.46146    592753.36443  24200347.6804                   24200348.0354
  -2470999.03947  -1904187.23646  20147000.1884                   20146998.0984
  13856891.00046  10796005.30743  24400723.7504                   24400723.3554
  -6813322.68048  -5283783.20646  20853272.0944                   20853269.0234
   4569246.86747   3590976.64144  23666813.6724                   23666812.7894
   6753674.39148   5275024.50646  21286932.6334                   21286929.7774
  -8372199.89147  -6496227.98244  23031043.0084                   23031042.6334
   4371197.26246   3432423.23443  23671306.6094                   23671306.4144
 11  8 17 16 58 30.0000000  0 11G03G06G07G10G13G16G19G28G23G08G11
   4928653.94947   3856145.95845  21830092.9614                   21830092.0824
   8857901.60946   6912081.37944  23792641.0474                   23792641.0554
 -10158949.55948  -7877983.65246  21274918.5314                   21274916.9304
    681148.30146    537758.09343  24186916.9304                   24186918.4264
  -2546803.98848  -1963256.04346  20132574.8134                   20132573.4964
  13830861.52745  10775722.57543  24395770.5474                   24395769.4774
  -6914743.81648  -5362812.66346  20833972.5164                   20833968.9414
   4397424.82046   3457089.39544  23634116.8984                   23634116.9654
   6726745.36748   5254040.80045  21281807.7734                   21281805.3484
  -8556811.85947  -6640081.44844  22995911.9614                   22995911.3634
   4179195.08246   3282811.18543  23634769.1954                   23634769.9454
 11  8 17 16 59  0.0000000  0 11G03G06G07G10G13G16G19G28G23G08G11
   4895232.04747   3830102.89045  21823733.1484                   21823732.4804
   8835346.72346   6894506.07344  23788348.2584                   23788348.8594
 -10323172.58248  -8005949.64146  21243667.8054                   21243666.2814
    610822.28946    482958.57943  24173534.0634                   24173535.9844
  -2622071.51648  -2021906.10246  20118252.4384                   20118250.4844
  13804709.62146  10755344.35943  24390794.5004                   24390793.4924
  -7015587.98048  -5441392.53646  20814782.2424                   20814778.8244
   4225784.37546   3323343.65544  23601454.9774                   23601454.4574
   6700169.09448   5233331.95345  21276750.5164                   21276748.1604
  -8741503.89847  -6783997.27444  22960766.4534                   22960765.9344
   3987173.27047   3133183.84244  23598228.7274                   23598229.9574
 11  8 17 16 59 30.0000000  0 11G03G06G07G10G13G16G19G28G23G08G11
   6437611.83247   5031957.24345  22117237.8054                   22117237.5124
  10388433.98446   8104703.92843  24083891.1804                   24083891.1764
  -8911899.68748  -6906256.46946  21512224.1564                   21512222.4614
   2116167.69546   1655954.90043  24459992.5234                   24459993.2664
  -1121378.80148   -852535.16746  20403824.7034                   20403822.7624
  15353856.72346  11962471.93743  24685586.9614                   24685585.7384
  -5540430.95748  -4291919.52346  21095495.2424                   21095491.8714
   5629752.00046   4417344.47344  23868620.7424                   23868620.9024
   8249365.29348   6440497.75046  21571553.0704                   21571550.4144
  -7350847.84047  -5700369.12444  23225399.3914                   23225398.7734
   5370562.07446   4211149.20443  23861478.6884                   23861479.2344
 11  8 17 17  0  0.0000000  0 11G03G06G07G10G13G16G19G28G23G08G11
   6404950.64547   5006506.93445  22111023.2734                   22111022.4224
  10366321.46946   8087473.34643  24079682.6954                   24079683.5164
  -9075977.78948  -7034109.53246  21481000.9694                   21480999.1024
   2046339.69146   1601543.43643  24446705.0164                   24446705.4534
  -1195569.68448   -910346.26746  20389706.7034                   20389704.4964
  15327462.23446  11941904.81043  24680564.4534                   24680562.2584
  -5640117.24248  -4369597.15546  21076525.5394                   21076522.4694
   5458478.75846   4283884.84443  23836028.7584                   23836028.8244
   8223491.91447   6420336.61546  21566629.4694                   21566626.8164
  -7535693.32047  -5844404.58644  23190224.8524                   23190223.5234
   5178514.54346   4061501.81944  23824933.3834                   23824933.8554
 11  8 17 17  0 30.0000000  0 11G03G06G07G10G13G16G19G28G23G08G11
   6372666.42247   4981350.37745  22104879.7584                   22104878.6954
  10344426.53946   8070412.25443  24075516.2584                   24075516.8984
  -9239980.99248  -7161904.22046  21449792.7424                   21449790.5864
   1976757.16446   1547323.18043  24433463.3284                   24433464.7974
  -1269223.55148   -967738.91346  20375690.9224                   20375688.7274
  15300945.55946  11921242.44142  24675518.0784                   24675517.1994
  -5739225.10548  -4446824.06746  21057665.7424                   21057662.9964
   5287389.08246   4150568.29644  23803471.1414                   23803471.6764
   8197966.51248   6400446.64145  21561772.3364                   21561769.6214
  -7720614.18447  -5988498.73444  23155035.6174                   23155033.8794
   4986458.46946   3911847.82444  23788386.0394                   23788386.6914
 11  8 17 17  1  0.0000000  0 11G03G06G07G10G13G16G19G28G23G08G11
   6340757.64147   4956486.34745  22098807.5394                   22098806.5554
  10322748.16046   8053519.94143  24071390.8364                   24071391.8244
  -9403906.71548  -7289638.55346  21418598.3204                   21418596.4454
   1907419.12546   1493293.52344  24420268.9694                   24420270.8014
  -1342339.85248  -1024712.66146  20361776.9384                   20361775.1134
  15274306.67646  11900484.82842  24670448.3834                   24670448.0744
  -5837753.58248  -4523599.49846  21038916.5314                   21038913.4574
   5116484.10546   4017395.61144  23770948.5944                   23770948.8554
   8172787.77048   6380826.80245  21556980.7814                   21556978.1214
  -7905608.67647  -6132650.26744  23119832.4224                   23119830.6604
   4794397.94946   3762190.37443  23751837.8834                   23751839.0234
 11  8 17 17  1 30.0000000  0 11G03G06G07G10G13G16G19G28G23G08G11
   6309219.34447   4931911.06044  22092805.3984                   22092805.3164
  10301281.66846   8036792.75843  24067307.0704                   24067307.2424
  -9567755.31247  -7417312.78146  21387418.9844                   21387417.5514
   1838321.09046   1439450.77343  24407121.1564                   24407121.3014
  -1414921.55148  -1081269.85046  20347965.4844                   20347963.4264
  15247543.01645  11879629.91442  24665354.8754                   24665354.3404
  -5935705.19148  -4599925.43146  21020277.1254                   21020273.5274
   4945761.58246   3884365.17844  23738461.4694                   23738461.4654
   8147951.27348   6361473.63245  21552254.6484                   21552251.7734
  -8090677.40647  -6276859.68544  23084615.1804                   23084613.6914
   4602333.89546   3612530.13243  23715289.6094                   23715289.4844
 11  8 17 17  2  0.0000000  0 11G03G06G07G10G13G16G19G28G23G08G11
   6278051.86347   4907624.65844  22086874.8754                   22086874.5634
  10280027.63746   8020231.11243  24063262.3524                   24063262.5124
  -9731522.30548  -7544923.41346  21356255.1804                   21356253.2854
   1769463.39146   1385795.40043  24394016.8134                   24394018.0474
  -1486967.04348  -1137409.20446  20334255.2114                   20334253.4344
  15220656.74646  11858679.51943  24660239.7504                   24660238.0824
  -6033077.43748  -4675799.92446  21001747.5704                   21001744.5124
   4775224.53547   3751479.22544  23706009.8444                   23706009.5554
   8123457.65248   6342387.65345  21547593.6024                   21547590.5864
  -8275816.32447  -6421123.75844  23049384.8134                   23049382.3674
   4410272.52046   3462872.02843  23678741.3204                   23678741.3674
 11  8 17 17  2 30.0000000  0 11G03G06G07G10G13G16G19G28G23G08G11
   6247250.78947   4883623.79245  22081013.7344                   22081013.0824
  10258981.38346   8003831.38543  24059257.2344                   24059257.0904
  -9895208.68448  -7672471.24746  21325106.7194                   21325105.1764
   1700841.37147   1332323.62043  24380958.9224                   24380959.6564
  -1558479.27048  -1193133.04146  20320646.9064                   20320645.4884
  15193644.71546  11837631.10943  24655100.1024                   24655098.7894
  -6129872.94548  -4751224.98446  20983328.0004                   20983324.7074
   4604870.39547   3618735.78244  23673592.1644                   23673591.9654
   8099302.26248   6323565.20246  21542997.2664                   21542994.8524
  -8461027.25047  -6565443.93644  23014139.5004                   23014138.3714
   4218214.68846   3313216.61943  23642194.0004                   23642194.6334
 11  8 17 17  3  0.0000000  0 11G03G06G07G10G13G16G19G28G23G08G11
   6216817.03947   4859909.14845  22075221.7344                   22075222.0354
  10238144.49647   7987594.86343  24055292.4224                   24055292.4844
 -10058808.49248  -7799951.60846  21293974.8134                   21293973.0124
   1632456.50447   1279036.64343  24367945.9454                   24367946.8094
  -1629455.28948  -1248439.05346  20307140.7344                   20307139.0554
  15166510.40646  11816487.44543  24649936.6174                   24649935.9144
  -6226088.20748  -4826197.92246  20965018.9534                   20965015.5594
   4434702.77747   3486137.69544  23641210.3914                   23641209.7504
   8075486.46947   6305007.38845  21538465.4064                   21538462.7934
  -8646305.35547  -6709816.46144  22978882.2664                   22978881.2274
   4026167.07046   3163569.19944  23605648.4844                   23605649.0664
 11  8 17 17  3 30.0000000  0 11G03G06G07G10G13G16G19G28G23G08G11
   6186747.99247   4836478.65445  22069500.8444                   22069499.8404
  10217514.37546   7971519.41443  24051365.9844                   24051366.1954
 -10222320.17248  -7927363.29346  21262859.1334                   21262857.6804
   1564306.49246   1225932.65943  24354976.8204                   24354978.0434
  -1699895.62948  -1303327.64546  20293736.5164                   20293734.8984
  15139252.96546  11795247.84643  24644749.4384                   24644749.3874
  -6321724.12948  -4900719.42446  20946819.8594                   20946816.8834
   4264721.81347   3353685.06344  23608863.9614                   23608863.2704
   8052007.64547   6286712.13145  21533997.5474                   21533994.9804
  -8831649.38347  -6854240.36344  22943612.9304                   22943612.0394
   3834132.78947   3013932.18944  23569105.6724                   23569106.9774
 11  8 17 17  4  0.0000000  0 11G03G06G07G10G13G16G19G28G23G08G11
   6157039.52047   4813329.17845  22063847.2664                   22063846.7114
  10197087.63347   7955602.45243  24047478.9924                   24047479.4734
 -10385743.60548  -8054706.21846  21231761.0634                   21231759.8054
   1496387.14846   1173008.39643  24342052.9924                   24342054.6094
  -1769803.49248  -1357801.33446  20280433.4384                   20280431.9614
  15111870.68047  11773910.88844  24639539.0314                   24639538.9964
  -6416782.14848  -4974790.61546  20928731.0864                   20928728.1174
   4094926.02347   3221376.69244  23576552.9844                   23576552.8954
   8028862.30948   6268676.72845  21529593.1564                   21529590.3674
  -9017059.79747  -6998715.99644  22908329.7504                   22908329.8404
   3642113.62547   2864306.94144  23532565.4774                   23532566.3834
 11  8 17 17  4 30.0000000  0 11G03G06G07G10G13G16G19G28G23G08G11
   6127689.29747   4790458.83445  22058261.9384                   22058261.6214
  10176861.71946   7939841.89543  24043630.7734                   24043630.4734
 -10549077.18448  -8181979.13746  21200679.5704                   21200678.0124
   1428696.09446   1120262.09343  24329171.0314                   24329172.4344
  -1839179.70348  -1411860.73546  20267231.6174                   20267229.8094
  15084362.48847  11752475.92143  24634304.4454                   24634304.0124
  -6511262.82048  -5048411.92046  20910751.9924                   20910749.1994
   3925315.03147   3089212.36944  23544276.9064                   23544275.9574
   8006047.87548   6250899.18945  21525251.4774                   21525248.8164
  -9202535.88347  -7143242.81544  22873035.1954                   22873034.4924
   3450112.28147   2714695.59244  23496028.5164                   23496029.5004
 11  8 17 17  5  0.0000000  0 11G03G06G07G10G13G16G19G28G23G08G11
   6098695.98847   4767866.60945  22052744.9844                   22052744.8914
  10156835.32047   7924236.91944  24039819.6174                   24039819.5004
 -10712318.04748  -8309179.79946  21169615.7504                   21169614.0904
   1361231.83646   1067692.48243  24316333.6094                   24316335.1764
  -1908024.05548  -1465505.70946  20254130.9064                   20254129.4064
  15056729.27046  11730943.49543  24629045.5784                   24629045.3444
  -6605165.59848  -5121582.91446  20892883.1174                   20892879.7034
   3755889.94147   2957192.86344  23512036.3674                   23512035.8984
   7983563.05148   6233378.46845  21520972.9064                   21520971.0274
  -9388074.89547  -7287818.63445  22837728.4534                   22837727.9614
   3258133.17647   2565101.58744  23459495.7034                   23459497.0514
 11  8 17 17  5 30.0000000  0 11G03G06G07G10G13G16G19G28G23G08G11
   6070053.62947   4745547.85645  22047294.8914                   22047293.9494
  10137003.21946   7908783.26843  24036045.9534                   24036046.4494
 -10875467.48848  -8436309.22446  21138569.4304                   21138567.9494
   1293989.28146   1015295.66743  24303537.3284                   24303538.6374
  -1976340.30548  -1518739.18646  20241131.0634                   20241129.4694
  15028967.31646  11709310.79243  24623763.0394                   24623762.2774
  -6698494.13348  -5194306.44646  20875123.0864                   20875119.7304
   3586647.80947   2825315.94444  23479830.5084                   23479830.2664
   7961402.52748   6216110.45245  21516755.8754                   21516753.6524
  -9573679.16447  -7432445.31145  22802408.7504                   22802407.9924
   3066176.84447   2415525.28444  23422968.1644                   23422969.3204
 11  8 17 17  6  0.0000000  0 11G03G06G07G10G13G16G19G28G23G08G11
   7617183.39147   5951103.50644  22341703.6334                   22341702.8794
  11692786.57846   9121081.93144  24332101.4224                   24332102.6884
  -9463095.13348  -7335759.33746  21407335.0784                   21407332.7114
   2802390.79746   2190673.39343  24590577.4534                   24590578.4264
   -468704.55948   -343958.09446  20528024.4064                   20528022.9064
  16576499.57446  12915179.96542  24918247.9924                   24918247.7814
  -5215823.00448  -4038978.30346  21157266.1644                   21157262.9844
   4993016.68047   3921187.86144  23747453.3834                   23747453.0594
   9514987.43848   7426696.03245  21812393.4694                   21812391.1294
  -8183918.66847  -6349515.01645  23066871.6484                   23066870.7584
   4449675.35547   3493576.22344  23686238.4224                   23686239.3404
 11  8 17 17  6 30.0000000  0 11G03G06G07G10G13G16G19G28G23G08G11
   7589242.99247   5929331.73544  22336386.5554                   22336385.7194
  11673343.66846   9105931.49243  24328401.9844                   24328402.2814
  -9626048.91448  -7462736.30146  21376325.9534                   21376324.4694
   2735591.79746   2138622.18643  24577866.3524                   24577866.7974
   -535960.46548   -396365.32346  20515226.0704   20515224.4534   24912914.414
  -5307996.96948  -4110802.17446  21139725.9694                   21139722.9104
   4824147.45747   3789601.46944  23715319.0394                   23715318.3204
   9493475.97347   7409933.80545  21808300.1644                   21808297.1954
  -8369642.51647
  -6494234.85945                  23031528.8284                   23031528.5704
   4257781.14147   3344048.35744  23649722.4774                   23649723.4024
 11  8 17 17  7  0.0000000  0 11G03G06G07G10G13G16G19G28G23G08G11
   7561651.00047   5907831.43044  22331135.7034                   22331135.6764
  11654093.23845   9090931.06743  24324737.5474                   24324739.2734
  -9788900.91448  -7589633.95346  21345336.4144                   21345334.4454
   2669012.22345   2086741.96643  24565195.9694                   24565197.4774
   -602686.64148   -448359.77246  20502528.4454   20502526.4844
  16520346.52315                  24907562.602
  -5399593.09048  -4182175.77346  21122295.6174                   21122292.3954
   4655465.71147   3658161.23044  23683219.9384                   23683219.2274
   9472286.45748   7393422.42245  21804267.8914                   21804265.2814
  -8555423.30547  -6638999.09745  22996175.9614                   22996175.8674
   4065923.83647   3194549.22743  23613213.7584                   23613213.9774
 11  8 17 17  7 30.0000000  0 11G03G06G07G10G13G16G19G28G23G08G11
   7534407.60247   5886602.77044  22325951.6954                   22325951.4694
  11635035.35246   9076080.73543  24321112.0164                   24321112.2814
  -9951646.89548  -7716448.99146  21314366.6724                   21314365.0554
   2602652.19146   2035032.67643  24552567.7584                   24552569.1844
   -668881.56648   -499940.26846  20489932.2504   20489930.3204
  16492084.172 6                  24902184.672
  -5490609.53948  -4253097.69246  21104976.0864                   21104972.4224
   4486974.03947   3526869.08544  23651157.1024                   23651156.9734
   9451419.42648   7377162.32645  21800296.9454                   21800293.9144
  -8741257.15647  -6783804.64144  22960813.1564                   22960812.8404
   3874109.28147   3045083.45044  23576712.6414                   23576712.9734
 11  8 17 17  8  0.0000000  0 11G03G06G07G10G13G16G19G28G23G08G11
   7507506.16047   5865640.60144  22320832.8134                   22320831.9414
  11616164.14846   9061375.80643  24317521.0864                   24317521.2424
 -10114288.85548  -7843182.98146  21283417.0704                   21283415.3954
   2536505.07846   1983489.43443  24539981.1174                   24539982.0314
   -734550.02748   -551110.52146  20477435.8524   20477434.4184
  16463694.152 6                  24896781.977
  -5581050.70348  -4323571.32646  21087765.3834                   21087761.8984
   4318668.60947   3395722.00944  23619129.2344                   23619129.2154
   9430868.36748   7361148.45845  21796386.2584                   21796383.8444
  -8927146.34447  -6928653.33245  22925439.4064                   22925439.1524
   3682336.81347   2895650.48044  23540218.7734                   23540219.5124
 11  8 17 17  8 30.0000000  0 11G03G06G07G10G13G16G19G28G23G08G11
   7480946.62947   5844944.80444  22315778.9064                   22315778.4344
  11597479.60246   9046816.36843  24313965.1954                   24313966.0314
 -10276822.70748  -7969832.71646  21252487.6724                   21252486.0634
   2470571.12146   1932112.25743  24527434.5634                   24527435.5634
   -799691.30948   -601869.99346  20465039.7664   20465038.0984
  16435178.38746  12805059.25452  24891357.0234                   24891355.5474
  -5670914.86348  -4393595.35146  21070664.6884                   21070661.7584
   4150551.57047   3264721.79144  23587138.0234                   23587137.2814
   9410633.31348   7345380.80545  21792535.5234                   21792533.5554
  -9113087.67247  -7073542.66745  22890056.3204                   22890055.9414
   3490612.15647   2746254.71244  23503735.1564                   23503735.7624
 11  8 17 17  9  0.0000000  0 11G03G06G07G10G13G16G19G28G23G08G11
   7454726.65647   5824513.62944  22310789.2664                   22310788.8914
  11578979.82047   9032400.95643  24310445.0944                   24310445.1294
 -10439246.12548  -8096396.41646  21221579.8674                   21221577.7424
   2404848.44946   1880899.68443  24514927.8054                   24514929.1024
   -864305.39848   -652218.65546  20452744.3674   20452742.6644
  16406536.75846  12782741.16343  24885906.3594                   24885905.3364
  -5760202.48448  -4463170.11446  21053673.6954                   21053670.6094
   3982622.99246   3133868.38844  23555182.0784                   23555180.5554
   9390712.16047   7329857.76145  21788744.7584                   21788742.2544
  -9299079.52747  -7218471.36045  22854663.3204                   22854662.5744
   3298938.82447   2596898.92944  23467261.1644                   23467260.8984
 11  8 17 17  9 30.0000000  0 10G03G06G07G10G13G19G28G23G08G11
   7428843.68447   5804345.05244  22305863.8444                   22305863.4304
  11560662.86346   9018127.96343  24306959.9304                   24306960.4024
 -10601556.85248  -8222872.30446  21190692.9144                   21190691.2854
   2339334.76646   1829850.04143  24502460.7274                   24502462.2894
   -928393.19548   -702157.24046  20440548.6254   20440546.9024
  -5848913.82448  -4532295.85146  21036792.9774                   21036789.7344
   3814883.49647   3003162.38444  23523262.0634                   23523261.4064
   9371103.02748   7314577.83245  21785013.2424                   21785010.5704
  -9485120.41847  -7363438.28145  22819260.9304                   22819260.0004
   3107320.62947   2447586.09044  23430796.6884                   23430797.4024
 11  8 17 17 10  0.0000000  0 10G03G06G07G10G13G19G28G23G08G11
   7403298.09847   5784439.33644  22301002.6414                   22301002.4144
  11542529.05546   9003997.65143  24303508.4454                   24303509.9804
 -10763750.79748  -8349257.19446  21159828.1334                   21159826.8754
   2274030.12146   1778963.14743  24490033.8444                   24490034.7544
   -991953.49648   -751684.76746  20428453.3984   20428451.6844
  -5937047.18048  -4600971.19146  21020021.7664                   21020018.5084
   3647335.20347   2872605.28944  23491378.6094                   23491377.5354
   9351805.70747   7299540.89645  21781341.5554                   21781338.4884
  -9671206.66447  -7508440.54345  22783850.0084                   22783849.2034
   2915763.08247   2298320.57144  23394344.6884                   23394344.8094
 11  8 17 17 10 30.0000000  0 10G03G06G07G10G13G19G28G23G08G11
   7378097.67647   5764802.63444  22296207.0704                   22296207.6954
  11524586.50445   8990016.33043  24300094.7974                   24300095.6174
 -10925815.73848  -8475541.56246  21128988.5394                   21128986.6134
   2208942.62146   1728245.48743  24477647.6334                   24477649.3594
  -1054977.31648   -800794.27346  20416460.8674   20416459.1484
  -6024592.66848  -4669188.45646  21003362.5474                   21003359.0594
   3479988.36347   2742205.24244  23459533.5004                   23459533.7234
   9332828.60547   7284753.47545  21777730.0164                   21777727.8834
  -9857326.64147  -7653469.07244  22748432.4534                   22748431.2974
   2724279.77047   2149112.87144  23357906.6254                   23357907.1024
 11  8 17 17 11  0.0000000  0 10G03G06G07G10G13G19G28G23G08G11
   7353245.29746   5745437.09444  22291477.8834                   22291477.7774
  11506838.58646   8976186.68843  24296717.8754                   24296717.6024
 -11087744.02048  -8601719.43646  21098174.6024                   21098172.9414
   2144075.48046   1677699.64443  24465304.1564                   24465305.4694
  -1117460.18048   -849482.25146  20404570.4534   20404569.1134
  -6111545.73048  -4736944.09946  20986815.4454                   20986812.4734
   3312848.48447   2611966.47044  23427727.0944                   23427726.9024
   9314174.32448   7270217.58445  21774180.6414                   21774178.1884
 -10043473.43747  -7798518.53644  22713009.9224                   22713008.6294
   2532879.37547   1999969.72944  23321484.3674                   23321484.2894
 11  8 17 17 11 30.0000000  0 10G03G06G07G10G13G19G28G23G08G11
   7328734.22747   5726337.52244  22286813.6804                   22286813.6254
  11489278.64146   8962503.57443  24293375.5784                   24293376.0744
 -11249538.10248  -8727792.73946  21067386.3444                   21067384.3914
   2079421.96146   1627320.21843  24453000.7814                   24453002.3244
  -1179407.66048   -897753.04646  20392782.3754   20392780.6604
  -6197911.10948  -4804241.80646  20970381.1094                   20970377.2934
   3145911.23847   2481885.53744  23395960.8284                   23395960.4304
   9295836.37148   7255928.20445  21770691.3364                   21770689.1484
 -10229649.96947  -7943591.13044  22677581.6174                   22677580.3554
   2341561.40647   1850890.91244  23285077.7424                   23285078.1094
 11  8 17 17 12  0.0000000  0 10G03G06G07G10G13G19G28G23G08G11
   7304559.10546   5707499.71444  22282212.6884                   22282213.0984
  11471901.43046   8948962.86143  24290068.4454                   24290069.6764
 -11411198.89848  -8853762.19846  21036623.1254                   21036621.5704
   2014976.58646   1577103.00843  24440738.0474                   24440738.6174
  -1240824.14848   -945610.07746  20381095.0634   20381093.4884
  -6283693.03948  -4871084.87746  20954057.2034                   20954053.7774
   2979173.46547   2351960.05744  23364232.1414                   23364230.9734
   9277809.21148   7241880.97845  21767260.6024                   21767258.6914
 -10415858.32447  -8088688.53844  22642147.3754                   22642145.7814
   2150325.56647   1701876.01444  23248686.1724                   23248686.7194
 11  8 17 17 12 30.0000000  0 10G03G06G07G10G13G19G28G23G08G11
   7280714.42646   5688919.41144  22277675.9384                   22277675.5784
  11454702.00846   8935560.64444  24286795.9454                   24286797.0234
 -11572727.79748  -8979628.86246  21005885.2504                   21005883.8164
   1950734.27346   1527043.94243  24428513.0864                   24428513.6054
  -1301713.48048   -993056.33746  20369508.6484   20369507.1414
  -6368894.66448  -4937475.75846  20937843.9064                   20937840.7894
   2812631.99247   2222187.51444  23332539.0164                   23332538.9414
   9260087.62948   7228071.85845  21763888.3674                   21763885.9414
 -10602099.61347  -8233811.58944  22606706.5554                   22606705.5514
   1959172.48447   1552925.63344  23212311.7504                   23212311.7544
 11  8 17 17 13  0.0000000  0 10G03G06G07G10G13G19G28G23G08G11
   8832616.13746   6898193.41544  22572992.8284                   22572992.2894
  13013096.57446  10149894.02543  24583348.5164                   24583350.0004
 -10158699.60948  -7877788.72546  21274966.1174                   21274964.1844
   3462112.48046   2704741.20443  24716118.3134                   24716120.0274
    213342.86348    187507.01246  20657814.0554   20657812.4884
  -4878096.26647  -3775814.66346  21221533.3054                   21221530.1374
   4221710.23047   3320170.61544  23600677.8284                   23600677.6294
  10818087.71148   8442097.81445  22060365.9924                   22060364.0274
  -9212948.49247  -7151356.13945  22871053.2114                   22871052.5394
   3343529.94547   2631645.78644  23475745.6484                   23475746.6914
 11  8 17 17 13 30.0000000  0 10G03G06G07G10G13G19G28G23G08G11
   8809419.82847   6880118.32944  22568578.8134                   22568577.9144
  12996241.89546  10136760.47544  24580141.8204                   24580142.4224
 -10319962.98048  -8003448.48346  21244278.5004                   21244276.4774
   3398264.17646   2654989.21643  24703968.6564                   24703969.6644
    153499.59048    140875.84946  20646426.3134   20646424.8284
  -4962144.52748  -3841306.83046  21205539.6334                   21205536.2704
   4055556.89547   3190700.55744  23569060.6094                   23569060.4024
  10800965.91848   8428756.09345  22057108.1884                   22057105.6094
  -9399256.00447  -7296530.80345  22835600.1334                   22835599.3324
   3152548.25046   2482828.99244  23439402.9454                   23439403.5164
 11  8 17 17 14  0.0000000  0 10G03G06G07G10G13G19G28G23G08G11
   8786543.53147   6862292.61844  22564225.3524                   22564225.0044
  12979555.57846  10123758.03143  24576965.3674                   24576967.8204
 -10481091.04748  -8129002.82246  21213616.7814                   21213615.1414
   3334608.64546   2605387.42843  24691855.6804                   24691856.8594
     94176.86348     94650.32446  20635137.4924   20635135.3954
  -5045618.12148  -3906351.19646  21189654.9384                   21189651.4064
   3889597.03147   3061381.27144  23537478.7734                   23537478.1764
  10784139.70348   8415644.66245  22053905.8594                   22053903.6334
  -9585594.94547  -7441729.93845  22800140.9614                   22800140.3524
   2961656.52347   2334082.24844  23403077.8754                   23403077.9654
 11  8 17 17 14 30.0000000  0 10G03G06G07G10G13G19G28G23G08G11
   8763983.81647   6844713.57944  22559933.3134                   22559932.5004
  12963034.85246  10110884.66543  24573822.2504                   24573823.2894
 -10642082.58648  -8254450.76146  21182981.2274                   21182979.5164
   3271142.91046   2555933.50943  24679779.0554                   24679780.3954
     35372.53148     48828.73646  20623947.4924   20623945.9344
  -5128518.59848  -3970948.98546  21173879.6644                   21173876.3754
   3723829.76247   2932211.99644  23505934.8674                   23505933.9734
  10767606.08247   8402761.21345  22050759.7034                   22050757.1644
  -9771964.92247  -7586953.26645  22764675.6414                   22764675.4224
   2770857.75847   2185407.93444  23366769.8054                   23366769.8444
 11  8 17 17 15  0.0000000  0 10G03G06G07G10G13G19G28G23G08G11
   8741736.37147   6827377.83844  22555699.3524                   22555699.4494
  12946675.33646  10098136.85543  24570709.3054                   24570710.0824
 -10802937.75448  -8379792.44046  21152371.5474                   21152369.6914
   3207862.16446   2506623.73042  24667736.4774                   24667737.5204
    -22916.69148      3408.54046  20612855.2664   20612853.9144
  -5210848.82048  -4035102.40146  21158212.4454                   21158209.4304
   3558252.57847   2803190.89844  23474426.4454                   23474425.1454
  10751360.40648   8390102.18645  22047668.3134                   22047665.9344
  -9958367.09047  -7732201.67645  22729204.4224                   22729204.2854
   2580152.70747   2036806.70944  23330479.8134                   23330479.9344
 11  8 17 17 15 30.0000000  0 10G03G06G07G10G13G19G28G23G08G11
   8719801.62947   6810285.82944  22551525.3364                   22551525.1214
  12930478.13746  10085515.62543  24567627.4064                   24567628.4454
 -10963651.65648  -8505024.03846  21121788.4614                   21121787.0084
   3144767.80146   2457459.26643  24655729.8364                   24655729.5434
    -80689.23448    -41609.07046  20601861.8594   20601860.1764
  -5292606.70348  -4098809.84546  21142654.6804                   21142651.4924
   3392868.57047   2674320.29744  23442955.0704                   23442954.1994
  10735403.09847   8377667.81645  22044631.5474                   22044629.3874
 -10144796.08647  -7877470.98745  22693728.6414                   22693728.1524
   2389547.90647   1888283.57444  23294208.1174                   23294209.2034
 11  8 17 17 16  0.0000000  0 10G03G06G07G10G13G19G28G23G08G11
   8698178.05947   6793436.25244  22547410.7974                   22547410.1374
  12914442.37546  10073020.21443  24564575.5004                   24564575.9924
 -11124220.68048  -8630142.75446  21091233.3834                   21091231.5704
   3081858.40246   2408438.81243  24643758.5554                   24643759.9104
   -137944.95348    -86223.95146  20590966.2274   20590964.6054
  -5373791.68047  -4162070.87846  21127205.7034                   21127202.7854
   3227679.20747   2545601.37644  23411520.6484                   23411519.4224
  10719733.53548   8365457.66045  22041650.1804                   22041648.0234
 -10331249.19547  -8022759.08345  22658247.3594                   22658246.9774
   2199048.25447   1739842.37144  23257957.7974                   23257958.1454
 11  8 17 17 16 30.0000000  0 10G03G06G07G10G13G19G28G23G08G11
   8676861.87147   6776826.17844  22543354.4694                   22543353.9224
  12898564.23046  10060647.57043  24561555.0554                   24561554.3244
 -11284644.64848  -8755148.42646  21060705.4224                   21060703.8284
   3019130.06646   2359559.45443  24631821.9614                   24631823.5314
   -194686.85548   -130438.44646  20580168.5004   20580166.9804
  -5454406.55948  -4224887.67446  21111865.2424                   21111862.0944
   3062682.26247   2417032.35844  23380122.2344                   23380121.7034
  10704347.44147   8353468.42145  22038722.4384                   22038720.3554
 -10517726.72747  -8168066.23945  22622762.1024                   22622761.8444
   2008655.43847   1591484.40143  23221727.4454                   23221726.9024
 11  8 17 17 17  0.0000000  0 10G03G06G07G10G13G19G28G23G08G11
   8655852.55546   6760455.19144  22539355.8284                   22539356.3754
  12882843.39146  10048397.55343  24558563.4224                   24558563.1914
 -11444919.17248  -8880037.66546  21030206.4924                   21030204.7234
   2956582.30546   2310820.88742  24619919.7114                   24619920.4574
   -250914.62548   -174252.32846  20569468.9774   20569467.5474
  -5534450.07448  -4287259.25546  21096633.4224                   21096630.2344
   2897879.78547   2288614.93044  23348761.4844                   23348760.9304
  10689244.17247   8341699.55545  22035848.2584                   22035846.3634
 -10704225.18047  -8313389.69845  22587272.7504                   22587272.0824
   1818374.82047   1443213.87344  23185517.9304                   23185518.2664
 11  8 17 17 17 30.0000000  0 10G03G06G07G10G13G19G28G23G08G11
   8635149.71147   6744323.06044  22535416.1254                   22535416.6884
  12867280.09046  10036270.27342  24555601.2034                   24555600.3204
 -11605040.55148  -9004807.56646  20999736.3594                   20999734.5274
   2894214.84446   2262222.78943  24608052.2894                   24608053.2114
   -306627.18448   -217664.75446  20558866.9304   20558865.4024
  -5613921.22748  -4349184.85546  21081510.4614                   21081507.4384
   2733273.68047   2160350.47244  23317437.4844                   23317436.8094
  10674423.71148   8330151.04745  22033028.5554                   22033026.1214
 -10890741.23047  -8458726.84945  22551779.7504                   22551778.6644
   1628212.07446   1295035.20843  23149331.3984                   23149331.1174
 11  8 17 17 18  0.0000000  0 10G03G06G07G10G13G19G28G23G08G11
   8614749.15247   6728426.46044  22531534.7424                   22531534.3594
  12851870.96945  10024263.12142  24552669.0944                   24552668.0164
 -11765007.72748  -9129457.30646  20969295.4924                   20969293.4344
   2832023.63346   2213762.03943  24596216.9534                   24596218.5204
   -361827.51248   -260678.01346  20548363.0634   20548361.3914
  -5692822.49648  -4410666.37846  21066496.1644                   21066493.1374
   2568862.76647   2032238.13244  23286151.1484                   23286150.8524
  10659882.17647   8318819.89645  22030261.0704                   22030258.5824
 -11077274.64847  -8604077.53145  22516283.6094                   22516283.0474
   1438169.13346   1146949.87044  23113166.7814                   23113167.0354
 11  8 17 17 18 30.0000000  0 10G03G06G07G10G13G19G28G23G08G11
   8594650.55147   6712765.19544  22527710.1174                   22527709.7624
  12836615.76645  10012375.88342  24549764.7274                   24549765.9024
 -11924816.83248  -9253983.87946  20938885.0234                   20938883.2734
   2770008.56346   2165438.49943  24584416.5234                   24584417.5434
   -416515.08648   -303291.74446  20537956.2194   20537954.9344
  -5771153.22748  -4471703.31146  21051590.2114                   21051587.1564
   2404648.51647   1904279.03344  23254902.4384                   23254901.4654
  10645619.07848   8307705.69145  22027546.7344                   22027544.3754
 -11263821.68747  -8749438.86045  22480784.9694                   22480783.3954
   1248251.27747    998962.03544  23077026.8284                   23077026.9104
 11  8 17 17 19  0.0000000  0 10G03G06G07G10G13G19G28G23G08G11
   8574850.75047   6697336.73244  22523942.5314                   22523941.4064
  12821511.69946  10000606.39843  24546892.5864                   24546892.5164
 -12084466.32048  -9378386.06646  20908504.4924                   20908502.6094
   2708166.62546   2117249.92143  24572648.7034                   24572649.4224
   -470691.87948   -345507.45746  20527646.8204   20527645.2934
  -5848914.60248  -4532296.59946  21036793.3834                   21036789.8054
   2240630.23447   1776472.66144  23223690.8444                   23223689.8364
  10631631.35248   8296806.07645  22024885.3914                   22024883.0824
 -11450381.35947  -8894810.02645  22445283.9304                   22445282.2934
   1058461.26647    851073.79644  23040911.2734                   23040911.0124
 11  8 17 17 19 30.0000000  0 10G03G06G07G10G13G19G28G23G08G11
   8555344.53547   6682137.06744  22520230.1724                   22520230.3484
  12806554.09446   9988951.01843  24544045.8834                   24544045.8914
 -12243956.98048  -9502664.49346  20878154.3754                   20878152.9224
   2646492.45746   2069192.03043  24560912.0314                   24560913.3524
   -524362.18048   -387328.51646  20517433.7344   20517432.5394
  -5926110.33648  -4592449.12946  21022102.8594                   21022099.7344
   2076805.06347   1648816.73044  23192515.8444                   23192515.3134
  10617914.07048   8286117.19645  22022275.0234                   22022273.0084
 -11636955.09047  -9040192.11745  22409779.6954                   22409778.8284
    868799.60947    703285.57544  23004819.6254                   23004819.3634
 11  8 17 17 20  0.0000000  0 10G03G06G07G10G13G19G28G23G08G11
  10111551.19947   7894765.57344  22816366.8054                   22816366.0984
  14367161.88746  11205009.04244  24841019.6024                   24841020.4454
 -10827860.31248  -8399212.54346  21147628.7814                   21147627.0084
   4160407.19546   3248865.80243  24849000.7114                   24849002.2774
    997895.12548    798845.96846  20807110.0634   20807108.5274
  -4427318.13748  -3424559.10546  21307313.5554                   21307310.6134
   3488599.37147   2748916.28144  23461171.4224                   23461170.5514
  12179885.68448   9503237.84945  22319508.6484                   22319506.6414
 -10248113.95747  -7957978.24445  22674067.6334                   22674066.5084
   2254697.41847   1783206.02344  23268546.5474                   23268547.3954
 11  8 17 17 20 30.0000000  0 10G03G06G07G10G13G19G28G23G08G11
  10092624.20347   7880017.25544  22812765.0004                   22812764.7074
  14352490.05146  11193576.38544  24838227.5784                   24838228.9184
 -10987027.35248  -8523238.80946  21117340.3594                   21117338.4804
   4099061.79346   3201064.09343  24837327.0864                   24837327.9184
    945233.28148    757810.74046  20797088.2734   20797087.5234
  -4503386.96148  -3483833.53246  21292838.2114                   21292835.2304
   3325159.71547   2621560.75544  23430069.7814                   23430069.2704
  12166700.74248   9492963.75445  22316999.7664                   22316997.3094
 -10434711.41047  -8103378.82945  22638558.8984                   22638558.7894
   2065302.89847   1635625.97044  23232505.7034                   23232506.7274
 11  8 17 17 21  0.0000000  0 10G03G06G07G10G13G19G28G23G08G11
  10073985.91847   7865493.84844  22809218.3204                   22809218.1134
  14337961.05546  11182254.99043  24835463.0474                   24835464.0434
 -11146026.30148  -8647134.08846  21087083.6804                   21087082.1134
   4037879.81646   3153389.77443  24825684.6724                   24825686.3794
    893075.79748    717168.49646  20787163.5704   20787161.7584
  -4578890.96548  -3542667.82146  21278470.4844                   21278467.6214
   3161915.08647   2494357.22744  23399005.0704                   23399004.3094
  12153781.27347   9482896.52845  22314541.0314                   22314539.6804
 -10621315.37547  -8248784.50545  22603049.8524                   22603047.8524
   1876049.81647   1488156.08344  23196492.4384                   23196491.9654
 11  8 17 17 21 30.0000000  0 10G03G06G07G10G13G19G28G23G08G11
  10055631.53547   7851191.65844  22805725.4614                   22805725.1024
  14323570.01646  11171041.14143  24832724.0314                   24832725.3634
 -11304857.93448  -8770899.00246  21056859.4144                   21056857.4104
   3976856.32447   3105838.96143  24814071.9694                   24814074.4024
    841418.61348    676916.11146  20777333.1094   20777332.1054
  -4653833.91448  -3601064.92746  21264209.0474                   21264206.4104
   2998863.01247   2367303.74444  23367977.2344                   23367976.7704
  12141122.33647   9473032.31645  22312132.1564                   22312130.5354
 -10807926.81647  -8394196.00645  22567538.7734                   22567537.5004
   1686939.13747   1340797.18944  23160505.7584                   23160505.3754
 11  8 17 17 22  0.0000000  0 10G03G06G07G10G13G19G28G23G08G11
  10037558.62547   7837108.78844  22802286.8444                   22802286.5744
  14309315.31646  11159933.53343  24830012.8754                   24830012.6484
 -11463519.73848  -8894531.57646  21026666.6414                   21026665.2544
   3915989.31646   3058410.02543  24802489.6484                   24802491.3634
    790260.66848    637052.74446  20767598.1954   20767596.6414
  -4728216.71948  -3659025.56346  21250054.5864                   21250051.5004
   2836003.62947   2240400.35944  23336986.1644                   23336984.7344
  12128721.84447   9463369.49245  22309772.3674                   22309771.3244
 -10994543.91047  -8539611.89645  22532026.5084                   22532025.9264
   1497974.48047   1193552.05044  23124547.0474                   23124547.2344
 11  8 17 17 22 30.0000000  0 10G03G06G07G10G13G19G28G23G08G11
  10019762.85247   7823241.90844  22798900.2344                   22798900.2304
  14295193.19146  11148929.24643  24827324.7274                   24827325.1804
 -11622011.35948  -9018031.53246  20996506.4454                   20996505.3914
   3855274.80546   3011099.94943  24790936.4774                   24790937.9344
    739598.58648    597575.75646  20757957.6884   20757956.2194
  -4802042.54747  -3716552.18046  21236005.9694                   21236002.6724
   2673334.80547   2113645.52344  23306031.5084                   23306030.2974
  12116575.48847   9453904.68045  22307461.8054                   22307459.4024
 -11181166.40247  -8685031.99745  22496513.4614                   22496512.6844
   1309157.87547   1046422.33744  23088616.0314                   23088616.3714
 11  8 17 17 23  0.0000000  0 10G03G06G07G10G13G19G28G23G08G11
  10002243.59447   7809590.47244  22795566.7504                   22795566.7464
  14281203.22745  11138027.81643  24824662.8284                   24824663.1174
 -11780328.86748  -9141395.81646  20966379.8914                   20966378.3244
   3794711.68846   2963907.78144  24779411.9224                   24779413.1914
    689432.54748    558485.28946  20748411.5394   20748409.8164
  -4875310.83647  -3773644.37546  21222063.6954                   21222060.5514
   2510858.27347   1987040.50044  23275112.8364                   23275111.6174
  12104682.84847   9444637.59045  22305198.7194                   22305196.4454
 -11367791.02747  -8830453.75845  22461000.1094                   22460998.9024
   1120494.29747    899411.76844  23052714.8984                   23052715.1684
 11  8 17 17 23 30.0000000  0 10G03G06G07G10G13G19G28G23G08G11
   9984997.64547   7796151.99844  22792285.0164                   22792284.4304
  14267342.47345  11127227.16842  24822024.6884                   24822025.5744
 -11938471.17248  -9264623.59146  20936286.5474                   20936284.9344
   3734296.91047   2916831.25943  24767915.0234                   24767917.2234
    639760.20748    519779.52946  20738959.3524   20738957.9694
  -4948023.57448  -3830303.65646  21208226.7194                   21208223.2624
   2348572.74647   1860584.27544  23244230.8754                   23244230.4924
  12093040.03147   9435565.16145  22302983.0474                   22302981.4064
 -11554416.85947  -8975876.47445  22425486.1174                   22425485.5044
    931986.17647    752522.38144  23016842.8834                   23016842.7304
 11  8 17 17 24  0.0000000  0 10G03G06G07G10G13G19G28G23G08G11
   9968020.85247   7782923.28344  22789054.9534                   22789053.8244
  14253607.51645  11116524.57042  24819411.3834                   24819411.6724
 -12096437.00848  -9387713.84546  20906226.7034                   20906224.9654
   3674026.71546   2869867.38443  24756446.2034                   24756447.6334
    590578.29348    481455.91946  20729600.0314   20729598.9344
  -5020183.32448  -3886532.04046  21194495.2664                   21194492.4614
   2186476.93847   1734275.92244  23213385.1094                   23213384.1214
  12081643.43047   9426684.57845  22300814.0634                   22300812.2704
 -11741043.68747  -9121299.95845  22389972.0704                   22389971.5824
    743635.73047    605755.88544  22981001.1254                   22981000.8984
 11  8 17 17 24 30.0000000  0 10G03G06G07G10G13G19G28G23G08G11
   9951309.49247   7769901.42944  22785873.8984                   22785873.9884
  14239995.19546  11105917.54342  24816820.7274                   24816821.7384
 -12254225.92248  -9510666.25646  20876200.2194                   20876198.4694
   3613897.79746   2823013.62843  24745004.2814                   24745005.9184
    541884.14848    443512.38946  20720334.0944   20720332.7154
  -5091792.52348  -3942331.42946  21180868.3914                   21180865.3364
   2024569.26246   1608114.15444  23182574.9694                   23182574.8594
  12070489.39547   9417993.03945  22298692.0004                   22298690.4224
 -11927671.35547  -9266724.08545  22354457.9774                   22354457.4534
    555445.16047    459113.93944  22945189.3524                   22945188.8554
 11  8 17 17 25  0.0000000  0  9G03G07G10G13G19G28G23G08G11
   9934861.96946   7757085.09044  22782744.4064                   22782744.3524
 -12411835.21147  -9633478.68746  20846208.3364                   20846206.3874
   3553908.07846   2776268.31043  24733588.4844                   24733590.8554
    493676.26248    405947.75746  20711160.1414   20711158.9774
  -5162852.28147  -3997702.67946  21167346.0634                   21167343.2154
   1862849.91847   1482099.13445  23151801.5004                   23151800.2974
  12059575.75047   9409488.75145  22296615.5474                   22296613.2814
 -12114297.41447  -9412146.98845  22318944.6024                   22318943.8444
    367418.27347    312599.54944  22909409.3834                   22909409.0514
 11  8 17 17 25 30.0000000  0  9G03G07G10G13G19G28G23G08G11
   9918672.86747   7744470.17943  22779663.5314                   22779663.6094
 -12569265.21148  -9756151.41546  20816250.6254                   20816248.8524
   3494052.21946   2729627.30543  24722198.2664                   24722200.0664
    445950.12548    368758.51746  20702078.3674   20702076.8324
  -5233366.53148  -4052648.87446  21153927.8284                   21153924.6294
   1701315.87547   1356228.46544  23121061.8594                   23121061.1374
  12048897.43447   9401167.89945  22294583.5314                   22294580.3794
 -12300922.61747  -9557569.22345  22283430.6024                   22283429.9494
    179556.09046    166213.46244  22873660.3204                   22873659.6484
 11  8 17 17 26  0.0000000  0  9G03G07G10G13G19G28G23G08G11
   9902752.47346   7732064.60143  22776634.1884                   22776633.8984
 -12726501.00048  -9878672.80346  20786329.3524                   20786327.7854
   3434340.66446   2683098.71543  24710835.0944                   24710837.6724
    398717.25848    331953.64346  20693090.1174   20693088.8834
  -5303323.77748  -4107161.02646  21140615.4774                   21140612.1454
   1539980.04347   1230512.28945  23090361.2114                   23090359.9694
  12038465.25047   9393038.81945  22292598.0474                   22292596.0634
 -12487532.86747  -9702979.77845  22247919.8674                   22247919.2584
     -8125.21547     19968.35944  22837945.4924                   22837945.3014
 11  8 17 17 26 30.0000000  0  9G03G07G10G13G19G28G23G08G11
   9887104.70346   7719871.46444  22773656.4614                   22773656.2774
 -12883534.14148 -10001036.28446  20756446.7034                   20756445.0274
   3374777.31646   2636685.67143  24699501.1484                   24699502.5004
    351981.96948    295536.49846  20684196.5784   20684195.5314
  -5372719.30547  -4161235.47546  21127409.6884                   21127406.9264
   1378848.34847   1104955.16644  23059698.4924                   23059697.8594
  12028282.26647   9385103.90445  22290660.6724                   22290659.0634
 -12674120.33247  -9848372.57745  22212413.6174                   22212412.8444
   -195616.19547   -126128.42544  22802267.3914                   22802266.4774
 11  8 17 17 27  0.0000000  0  9G03G07G10G13G19G28G23G08G11
  11447140.62946   8935483.80744  23070520.8594                   23070521.9574
 -11464943.93448  -8895641.32146  21026395.6804                   21026393.8874
   4890775.37946   3817982.77743  24987985.4924                   24987987.7034
   1881157.33648   1487101.68446  20975189.4774   20975188.2424
  -3866138.71547  -2987276.58346  21414102.8204                   21414099.9064
   2793338.95747   2207155.67344  23328866.9694                   23328866.0744
  13593759.78947  10604956.38645  22588561.0704                   22588559.6914
 -11285263.21147  -8766146.25845  22476704.5704                   22476703.1724
   1192506.35947    955525.60744  23066418.5704                   23066417.6954
 11  8 17 17 27 30.0000000  0  9G03G07G10G13G19G28G23G08G11
  11432010.22746   8923693.81544  23067642.0944                   23067642.4614
 -11621585.19947  -9017699.44946  20996587.4924                   20996586.4654
   4831481.32846   3771779.53943  24976701.8284                   24976705.1724
   1835391.98048   1451440.31146  20966480.2114   20966479.4384
  -3934434.56647  -3040494.14646  21401106.3524                   21401103.0164
   2632594.59847   2081900.35844  23298278.5164                   23298278.0164
  13584048.05947  10597388.67545  22586713.1804                   22586711.4614
 -11471818.98047  -8911514.36645  22441204.5004                   22441202.9924
   1005386.74647    809718.18344  23030810.1954                   23030810.6764
 11  8 17 17 28  0.0000000  0  9G03G07G10G13G19G28G23G08G11
  11417129.31647   8912098.23744  23064810.0314                   23064811.0474
 -11778032.79747  -9139606.65446  20966816.6884                   20966815.2194
   4772312.76646   3725674.05243  24965443.2894                   24965445.3324
   1790103.26648   1416150.35946  20957862.3524   20957861.1994
  -4002188.49247  -3093289.42646  21388213.7424                   21388209.8984
   2472037.89847   1956791.26044  23267725.2114                   23267724.6134
  13574562.89547  10589997.51845  22584907.9224                   22584906.6294
 -11658361.98047  -9056872.50645  22405706.3054                   22405705.2194
    818452.36347    664055.07644  22995237.8364                   22995237.7424
 11  8 17 17 28 30.0000000  0  9G03G07G10G13G19G28G23G08G11
  11402492.66046   8900692.99944  23062025.5554                   23062025.1454
 -11934287.59448  -9261363.64446  20937082.7814                   20937080.8984
   4713264.52346   3679662.27943  24954207.0704                   24954209.0004
   1745286.60248   1381228.23246  20949334.1884   20949332.6294
  -4069404.59447  -3145665.61446  21375422.3364                   21375419.2074
   2311665.61747   1831825.87744  23237208.0704                   23237206.9924
  13565298.85547  10582778.63345  22583145.2814                   22583144.1254
 -11844893.16047  -9202221.45645  22370210.4144                   22370209.5944
    631704.07047    518537.01544  22959700.7734                   22959700.5704
 11  8 17 17 29  0.0000000  0  9G03G07G10G13G19G28G23G08G11
  11388093.59847   8889472.92844  23059285.7034                   23059285.1804
 -12090351.39848  -9382971.81146  20907384.9454                   20907383.0204
   4654330.06346   3633739.19243  24942992.0554                   24942993.8204
   1700936.07448   1346669.33946  20940894.3204   20940892.8484
  -4136088.66847  -3197627.23746  21362732.9694                   21362729.9924
   2151473.51647   1707000.89044  23206724.3754                   23206723.3054
  13556248.83647  10575726.52945  22581423.2424                   22581421.9694
 -12031414.90247  -9347563.06545  22334716.2664                   22334715.4614
    445141.17647    373163.40044  22924198.9844                   22924198.4654
 11  8 17 17 29 30.0000000  0 10G03G24G07G10G13G19G28G23G08G11
  11373930.39146   8878436.61144  23056590.3054                   23056590.6134
                                  24917031.16016                  24382540.844
 -12246221.05948  -9504428.68046  20877723.8674                   20877721.9184
   4595507.51646   3587903.36143  24931799.2194                   24931800.9964
   1657050.59848   1312472.83046  20932543.5164   20932542.0314
  -4202241.29748  -3249174.75346  21350144.9384                   21350141.3204
   1991462.19147   1582316.77344  23176274.6484                   23176273.2384
  13547411.47747  10568840.14945  22579741.5634                   22579740.2854
 -12217924.49647  -9492895.20345  22299224.6094                   22299224.1414
    258767.38747    227937.14544  22888732.8984                   22888732.9694
 11  8 17 17 30  0.0000000  0 10G03G24G07G10G13G19G28G23G08G11
  11359983.58246   8867568.91743  23053936.7664                   23053936.1054
  24729667.66446                  19300913.52352  24346886.9454   24346892.4224
 -12401911.35948  -9625745.79946  20848096.7894                   20848095.0634
   4536778.03146   3542140.00143  24920623.3524                   24920624.5904
   1613611.25848   1278623.94446  20924277.3204   20924276.0744
  -4267880.77047  -3300322.40846  21337653.7034                   21337650.4614
   1831614.30547   1457760.02644  23145856.7664                   23145855.4884
  13538767.83247  10562104.69345  22578096.6644                   22578095.4964
 -12404437.28547  -9638229.82145  22263732.7584                   22263731.9884
     72569.48047     82847.92544  22853301.1724                   22853301.0394
 11  8 17 17 30 30.0000000  0  9G03G24G07G13G19G28G23G08G11
  11346243.51646   8856862.31343  23051321.9304                   23051321.1374
  24542201.37146                  19154836.02042  24311212.6724   24311218.5434
 -12557427.23048  -9746926.99046  20818503.0164                   20818501.5234
   1570608.94948   1245115.60046  20916094.0234   20916093.5084
  -4333016.19947  -3351077.29846  21325258.8914                   21325255.9224
   1671922.10247   1333324.55544  23115468.0944                   23115466.8674
  13530307.62547  10555512.18444  22576487.1174                   22576485.8164
 -12590958.88747  -9783571.31345  22228238.5084                   22228237.9804
   -113456.30547    -62107.14944  22817901.4534                   22817901.6174
 11  8 17 17 31  0.0000000  0  9G03G24G07G13G19G28G23G08G11
  11332716.37946   8846321.60943  23048747.9844                   23048747.5084
  24354644.25445                  19008687.72743  24275521.8914   24275527.0744
 -12712757.80148  -9867963.80946  20788944.8134                   20788942.8014
   1528050.77348   1211953.32646  20907995.6094   20907994.4144
  -4397640.33647  -3401433.77946  21312961.5784                   21312958.1564
   1512394.47347   1209017.32644  23085111.4924                   23085110.5314
  13522037.09847  10549067.48645  22574913.3674                   22574911.4304
 -12777478.42247  -9928911.19945  22192745.3754                   22192744.8794
   -299297.48447   -206918.37744  22782536.6484                   22782536.1684
 11  8 17 17 31 30.0000000  0  9G03G24G07G13G19G28G23G08G11
  11319413.39146   8835955.62443  23046215.9774                   23046215.5204
  24167012.66446                  18862481.43842  24239816.9924   24239821.5234
 -12867887.56647  -9988844.13546  20759424.3914                   20759422.7384
   1485948.26248   1179146.13046  20899984.0234   20899982.5124
  -4461741.28147  -3451382.58246  21300763.2734                   21300760.3484
   1353044.48047   1084848.56144  23054788.0474                   23054786.7424
  13513967.10547  10542779.04944  22573377.4924                   22573376.4184
 -12963980.25047 -10074237.27445  22157255.2734                   22157254.6094
   -484937.60247   -351572.93144  22747210.5314                   22747210.2704
 11  8 17 17 32  0.0000000  0  9G03G24G07G13G19G28G23G08G11
  11306338.45347   8825767.33843  23043727.8754                   23043727.5514
  23979316.41845                  18716224.72342  24204098.8134   24204105.2384
 -13022807.55147 -10109560.99846  20729944.0004                   20729942.1134
   1444305.47748   1146697.16546  20892059.2344   20892058.2734
  -4525313.86747  -3500919.67046  21288666.0084                   21288662.9024
   1193878.03547    960822.77944  23024499.4534                   23024498.7464
  13506101.96547  10536650.24244  22571881.3914                   22571879.1564
 -13150456.17247 -10219543.16945  22121770.0864                   22121768.6644
   -670366.48446   -496062.91544  22711924.3364                   22711923.9264
 11  8 17 17 32 30.0000000  0  9G03G24G07G13G19G28G23G08G11
  11293486.26247   8815752.56644  23041282.4614                   23041282.4654
  23791555.80945                  18569917.87142  24168369.9384   24168374.0204
 -13177518.27048 -10230114.81346  20700503.8674                   20700502.0084
   1403117.93448   1114602.93046  20884221.6804   20884220.9614
  -4588362.71947  -3550048.66146  21276668.1884                   21276664.8364
   1034892.15647    836937.70644  22994245.5784                   22994244.3714
  13498436.09047  10530676.69144  22570422.4454                   22570420.7234
 -13336907.17647 -10364829.65845  22086289.4614                   22086288.4774
   -855583.37547   -640387.67044  22676679.2344                   22676678.1884
 11  8 17 17 33  0.0000000  0  9G03G24G07G13G19G28G23G08G11
  11280849.62947   8805905.75144  23038877.8444                   23038878.3484
  23603728.88345                  18423559.30942  24132627.5864   24132631.5204
 -13332022.55548 -10350507.76046  20671102.5314                   20671100.6134
   1362379.00448   1082858.25046  20876469.4844   20876468.5314
  -4650894.50048  -3598774.73246  21264768.9844                   21264765.6644
    876081.64147    713189.28144  22964025.2894                   22964023.7344
  13490962.22347  10524852.73444  22569000.6564                   22568998.7734
 -13523336.44947 -10510099.23945  22050813.1804                   22050811.7734
  -1040589.83647   -784548.47644  22641473.2664                   22641472.6844
 11  8 17 17 33 30.0000000  0  9G03G24G07G13G19G28G23G08G11
  12843843.60247                  10023823.07644                  23336306.4454
  23336306.5234   24991262.53946  19504754.44942  24396666.3204   24396670.7814
 -11910896.08248  -9243136.48046  20941534.2424                   20941532.5984
   2897505.08648   2279060.35046  21168594.3524   21168593.3714
  -3137491.54348  -2419499.71146  21552759.7194                   21552756.6334
   2292868.80947   1817179.31844  23233630.4304                   23233628.6804
  15059095.22747  11746774.40544  22867406.6334                   22867404.9964
 -12134318.79747  -9427747.79145  22315134.2274                   22315133.6884
    350040.98047    299060.00744  22906101.4454                   22906100.9964
 11  8 17 17 34  0.0000000  0  9G03G24G07G13G19G28G23G08G11
  12831620.75847                  10014298.67444                  23333980.1804
  23333980.8404   24803303.26246  19358292.83643  24360898.0554   24360903.5514
 -12064990.91848  -9363210.37646  20912210.7034                   20912208.9964
   2857646.91448   2248001.97946  21161009.3914   21161008.2664
  -3199003.70348  -2467431.27946  21541054.5084                   21541051.1844
   2134398.30947   1693695.83744  23203474.7194                   23203473.0124
  15051987.60947  11741235.87944  22866054.1564                   22866052.6414
 -12320708.75847  -9572986.72045  22279665.6094                   22279664.2974
    165455.84447    155227.51944  22870976.1174                   22870975.6414
 11  8 17 17 34 30.0000000  0  9G03G24G07G13G19G28G23G08G11
  12819597.09447                  10004929.56044                  23331692.3524
  23331691.8204   24615278.36746  19211780.01043  24325118.5784   24325123.4024
 -12218881.68448  -9483125.26346  20882926.2424                   20882924.5944
   2818222.33648   2217281.47746  21153507.1954   21153505.8634
  -3260012.86348  -2514970.89446  21529445.0314                   21529441.6334
   1976093.00047   1570341.06644  23173350.1174                   23173348.8204
  15045055.28147  11735833.92144  22864734.7504                   22864733.2624
 -12507080.21147  -9718211.21245  22244200.3524                   22244199.5354
    -18917.66047     11559.91944  22835890.4064                   22835890.7274
 11  8 17 17 35  0.0000000  0  9G03G24G07G13G19G28G23G08G11
  12807769.59847   9995713.30144                                  23329441.6414
  23329441.9304   24427191.07446  19065218.58943  24289326.2584   24289331.5084
 -12372565.80548  -9602879.12546  20853680.7194                   20853679.2974
   2779229.01648   2186897.02046  21146087.1094   21146085.6884
  -3320520.74248  -2562119.91646  21517930.4924                   21517927.4454
   1817952.54347   1447114.76344  23143256.8914                   23143255.8554
  15038295.54347  11730566.39344  22863448.5704                   22863447.2504
 -12693431.00047  -9863419.60145  22208738.6174                   22208738.1414
   -203076.23047   -131940.15844  22800846.6724                   22800846.3204
 11  8 17 17 35 30.0000000  0  9G03G24G07G13G19G28G23G08G11
  12796132.01646   9986644.94443                                  23327225.2974
  23327227.1054   24239040.04346  18918607.55743  24253522.1644   24253527.3914
 -12526045.61748  -9722473.77246  20824474.9844                   20824472.8874
   2740660.44148   2156843.53946  21138747.7974   21138746.8794
  -3380533.65248  -2608883.23846  21506510.5164                   21506507.5554
   1659972.18447   1324013.22544  23113194.1174                   23113192.8054
  15031701.45747  11725427.98844  22862193.4844                   22862192.6174
 -12879763.87547 -10008614.04645  22173280.4304                   22173279.6804
   -387020.92247   -275273.62244  22765842.8524                   22765842.2034
 11  8 17 17 36  0.0000000  0  9G03G24G07G13G19G28G23G08G11
  12784681.89146   9977722.60443                                  23325048.4384
  23325048.2974   24050828.68446  18771949.49043  24217707.3834   24217711.9144
 -12679319.35248  -9841907.85046  20795307.7274                   20795306.1374
   2702514.99648   2127119.77146  21131489.4144   21131488.4774
  -3440052.73048  -2655261.75046  21495184.3834                   21495181.2734
   1502151.69147   1201036.23444  23083162.2894                   23083160.8284
  15025270.49647  11720416.69045  22860970.3834                   22860969.2934
 -13066076.65647 -10153792.82245  22137826.6174                   22137826.2504
   -570748.08247   -418437.55144  22730880.7664                   22730880.2304
 11  8 17 17 36 30.0000000  0  9G03G24G07G13G19G28G23G08G11
  12773415.05947   9968943.25043                                  23322903.9304
  23322904.3754   23862558.24246  18625245.39243  24181880.3284   24181885.4344
 -12832386.03548  -9961180.60146  20766180.1564                   20766178.4104
   2664788.58247   2097722.52246  21124309.9224   21124309.3984
  -3499081.68448  -2701258.35246  21483951.2274                   21483948.2894
   1344488.87947   1078182.12245  23053159.9454                   23053159.0904
  15018998.88347  11715529.51444  22859777.1804                   22859775.9304
 -13252369.31247 -10298955.90545  22102376.5394                   22102375.3914
   -754256.13347   -561430.72744  22695960.4844                   22695960.0164
 11  8 17 17 37  0.0000000  0  9G03G24G07G13G19G28G23G08G11
  12762327.25047   9960303.32944                                  23320794.2504
  23320794.1954   23674230.53946  18478496.69343  24146042.8284   24146047.3834
 -12985245.09448 -10080291.54546  20737091.8594                   20737090.3244
   2627477.28948   2068648.72646  21117209.8914   21117209.2704
  -3557624.20747  -2746875.92746  21472811.3984                   21472808.0554
   1186981.78547    955449.34244  23023186.6724                   23023186.0864
  15012882.20347  11710763.11144  22858613.3204                   22858611.8484
 -13438641.27347 -10444102.88045  22066929.7504                   22066929.2504
   -937543.24247   -704251.78944  22661082.3444                   22661081.5004
 11  8 17 17 37 30.0000000  0  9G03G24G07G13G19G28G23G08G11
  12751415.80947   9951800.82944                                  23318718.4064
  23318717.8204   23485848.18847  18331705.33143  24110194.2274   24110198.7154
 -13137894.68048 -10199239.26446  20708043.6094                   20708042.3094
   2590578.65648   2039896.49346  21110188.4144   21110187.4654
  -3615682.37547  -2792116.07146  21461762.9534                   21461760.5394
   1029629.49647    832837.23144  22993244.1024                   22993242.8754
  15006917.17247  11706114.86644  22857478.5864                   22857477.3954
 -13624891.44547 -10589232.87245  22031487.8984                   22031486.6094
  -1120606.41047   -846898.34244  22626246.1954                   22626245.4024
 11  8 17 17 38  0.0000000  0  9G03G24G07G13G19G28G23G08G11
  12740679.00047   9943434.49643                                  23316674.8594
  23316673.8714   23297415.29346  18184874.72943  24074337.2034   24074341.1644
 -13290331.88348 -10318021.51846  20679035.9064                   20679034.5234
   2554091.52348   2011464.91746  21103245.2274   21103244.2114
  -3673257.32047  -2836979.67346  21450806.8284                   21450803.8674
    872432.47347    710346.07744  22963330.4224                   22963329.5864
  15001102.36747  11701583.66044  22856372.1954                   22856370.5204
 -13811116.89847 -10734343.60945  21996050.1644                   21996049.3014
  -1303441.38747   -989367.10144  22591454.3594                   22591453.1374
 11  8 17 17 38 30.0000000  0  9G03G24G07G13G19G28G23G08G11
  12730114.69947   9935202.53043                                  23314664.4064
  23314664.0434   23108935.40646  18038007.45343  24038469.2504   24038474.3634
 -13442554.05548 -10436636.18346  20650068.9534                   20650067.2194
   2518014.02748   1983352.53646  21096379.9534   21096378.8204
  -3730350.27047  -2881467.71146  21439942.3914                   21439939.3164
    715390.94947    587976.09344  22933446.2504                   22933445.1024
  14995435.33647  11697167.60844  22855293.8204                   22855292.9614
 -13997315.22347 -10879433.18845  21960617.7194                   21960617.4774
  -1486044.35947  -1131655.04744  22556705.8674                   22556704.6764
 11  8 17 17 39  0.0000000  0  9G03G24G07G13G19G28G23G08G11
  12719719.29747   9927102.17543                                  23312685.6644
  23312686.3674   22920410.31646  17891104.88543  24002594.9844   24002598.8554
 -13594560.37548 -10555082.68246  20621143.0554                   20621141.4614
   2482342.82448   1955556.74346  21089592.1724   21089590.9654
  -3786964.69548  -2925582.86946  21429169.4924                   21429166.0514
    558502.58247    465725.44944  22903591.4924                   22903590.2424
  14989911.99247  11692863.50644  22854242.1334                   22854241.9224
 -14183485.84847 -11024501.20045  21925190.6024                   21925190.0234
  -1668413.57847  -1273760.88144  22522001.8984                   22522001.1914
 11  8 17 17 39 30.0000000  0  9G03G24G07G13G19G28G23G08G11
  12709490.01647   9919131.22144                                  23310740.2584
  23310740.2464   22731843.17646  17744169.62043  23966711.6724   23966716.0274
 -13746348.57448 -10673359.19446  20592259.0704                   20592257.3714
   2447074.93847   1928075.22646  21082880.6094   21082879.7934
  -3843102.66848  -2969326.77646  21418486.5394                   21418483.9144
    401767.17247    343594.01544  22873765.6954                   22873764.5904
  14984530.05946  11688669.56344  22853218.9534                   22853218.0904
 -14369626.68447 -11169545.99045  21889769.1644                   21889768.2464
  -1850545.77047  -1415682.02144  22487343.2424                   22487342.3444
 11  8 17 17 40  0.0000000  0  9G03G24G07G13G19G28G23G08G11
  12699425.94547   9911289.01244                                  23308824.3984
  23308825.7274   22543238.77046  17597205.27443  23930821.6414   23930826.2814
 -13897914.90648 -10791462.83846  20563416.7194                   20563414.8244
   2412210.16047   1900907.82246  21076246.0784   21076245.2584
  -3898764.41848  -3012699.59246  21407894.6094                   21407891.5004
    245185.63747    221582.45844  22843969.1094                   22843967.6994
  14979288.39147  11684585.00444  22852221.6564                   22852220.5634
 -14555734.29747 -11314564.88745  21854354.0944                   21854353.5044
  -2032435.78147  -1557414.45045  22452730.5004                   22452729.7504
 11  8 17 17 40 30.0000000  0  9G03G24G07G13G19G28G23G08G11
  14264946.58246  11131175.14044                                  23606734.0864
  23606733.9804   23930028.12146  18677820.54943  24194717.9924   24194723.4884
 -12473830.58648  -9681786.74646  20834410.8594                   20834409.0594
   3953168.91048   3101654.84946  21369481.0474   21369479.9774
  -2378528.48847  -1828100.18646  21697185.6564                   21697182.5824
   1664184.60947   1327295.99944  23113994.9614                   23113994.5164
  16549606.02047  12908208.93344  23151043.2034                   23151042.0044
 -13166378.82847 -10231950.21845  22118739.7274                   22118738.6454
   -638652.85247   -471349.79744  22717958.2504                   22717957.4144
 11  8 17 17 41  0.0000000  0  9G03G24G07G13G19G28G23G08G11
  14255207.21146  11123585.95343  23604879.4304                   23604881.1094
  23741360.23046  18530806.80343  24158815.8364                   24158820.1214
 -12624944.90648  -9799538.16646  20805654.9614                   20805653.1174
   3919104.97748   3075111.48646  21362998.8134   21362997.8094
  -2433242.69147  -1870734.65546  21686773.7424                   21686771.1484
   1507911.18847   1205524.53044  23084257.3594                   23084256.2624
  16544638.32447  12904337.81144  23150097.3984                   23150096.6684
 -13352412.59447 -10376911.58645  22083338.2664                   22083337.8014
   -820047.50447   -612696.22244  22683440.6174                   22683439.6094
 11  8 17 17 41 30.0000000  0  9G03G24G07G13G19G28G23G08G11
  14245626.12946  11116120.06843  23603056.4224                   23603058.0434
  23552665.25046  18383771.95243  24122907.4534                   24122913.1294
 -12775830.41848  -9917111.30046  20776942.3834                   20776940.6914
   3885437.89148   3048877.34446  21356592.2034   21356591.5594
  -2487485.59048  -1913001.86646  21676452.2114                   21676448.7544
   1351790.91047   1083872.41744  23054549.2504                   23054547.7704
  16539803.52046  12900570.21744  23149177.6724                   23149177.8834
 -13538406.30547 -10521841.73645  22047945.0314                   22047944.9654
  -1001189.37147   -753845.68544  22648969.9064                   22648969.1644
 11  8 17 17 42  0.0000000  0  9G03G24G07G13G19G28G23G08G11
  14236201.00046  11108775.75343  23601263.3594                   23601263.7814
  23363946.45346  18236718.53143  24086996.8754                   24087000.6994
 -12926484.75848 -10034504.29746  20748273.6804                   20748272.1884
   3852165.44548   3022950.69446  21350260.8444   21350260.2194
  -2541259.63348  -1954903.75146  21666219.2114                   21666216.0594
   1195823.26647    962339.22145  23024869.1954                   23024867.8714
  16535099.21947  12896904.29144  23148283.2114                   23148282.4924
 -13724358.23848 -10666739.33845  22012559.8204                   22012558.6914
  -1182075.29747   -894795.69544  22614548.6484                   22614547.9184
 11  8 17 17 42 30.0000000  0  9G03G24G07G13G19G28G23G08G11
  14226928.92646  11101550.72043  23599499.4224                   23599499.2304
  23175206.17246  18089648.41843  24051079.8364                   24051084.0984
 -13076906.45748 -10151716.00446  20719649.6024                   20719647.9024
   3819284.35248   2997329.02246  21344003.6484   21344002.8524
  -2594567.91848  -1996442.68746  21656074.8444                   21656071.8914
   1040007.15647    840924.11644  22995218.1954                   22995217.4534
  16530521.87946  12893337.32344  23147411.7664                   23147410.8634
 -13910266.78948 -10811603.13845  21977182.3364                   21977181.7274
  -1362702.74247  -1035544.32844  22580176.1094                   22580175.2504
 11  8 17 17 43  0.0000000  0  9G03G24G07G13G19G28G23G08G11
  14217803.78547  11094440.16243  23597762.7734                   23597762.9384
  22986444.32446  17942561.49343  24015159.2894                   24015163.6414
 -13227096.60248 -10268747.29746  20691069.1954                   20691067.6994
   3786788.66048   2972007.65245  21337819.8364   21337819.3874
  -2647415.39148  -2037622.55146  21646018.4304                   21646015.1994
    884338.51647    719623.89944  22965595.4304                   22965594.6334
  16526065.46947  12889864.62044  23146564.1644                   23146563.4924
 -14096133.85248 -10956434.59945  21941813.3284                   21941812.2194
  -1543071.89147  -1176091.66944  22545852.9304                   22545852.1374
 11  8 17 17 43 30.0000000  0  9G03G24G07G13G19G28G23G08G11
  14208827.12547  11087445.31343  23596055.1724                   23596054.2774
  22797667.94946  17795463.18943  23979236.6024                   23979240.4264
 -13377049.14848 -10385593.44546  20662534.2504                   20662532.3484
   3754680.30948   2946988.10746  21331709.9064   21331709.1914
  -2699800.35248  -2078442.02946  21636049.8834                   21636046.8594
    728820.67247    598441.24144  22936001.0394                   22936000.5164
  16521731.39847  12886487.19544  23145739.7424                   23145739.1024
 -14281953.40247 -11101229.04945  21906452.8204                   21906451.8594
  -1723175.75447  -1316432.31945  22511580.9064                   22511579.3094
 11  8 17 17 44  0.0000000  0  9G03G24G07G13G19G28G23G08G11
  14199992.33647  11080561.01743  23594373.6254                   23594373.5904
  22608876.16846  17648352.95643  23943310.1024                   23943314.7664
 -13526765.91448 -10502255.86146  20634043.9064                   20634042.2894
   3722953.12147   2922265.56746  21325672.5164   21325671.6174
  -2751729.24248  -2118906.11346  21626168.1644                   21626164.9494
    573449.11747    477372.52045  22906435.0864                   22906433.9104
  16517512.87147  12883199.82044  23144936.5704                   23144936.4844
 -14467727.20348 -11245987.84545  21871101.3444                   21871100.2814
  -1903014.72347  -1456566.53545  22477358.3284                   22477357.6954
 11  8 17 17 44 30.0000000  0  9G03G24G07G13G19G28G23G08G11
  14191294.50846  11073783.42343  23592717.7114                   23592718.5004
  22420069.70346  17501231.20443  23907381.6024                   23907385.7774
 -13676247.07848 -10618734.69046  20605598.7194                   20605597.2114
   3691601.69147   2897835.83846  21319706.6484   21319706.1254
  -2803206.51648  -2159018.29146  21616372.2974                   21616369.2234
    418220.68847    356415.32645  22876896.2584                   22876894.9224
  16513404.80947  12879998.51444  23144155.1644                   23144155.2934
 -14653456.03948 -11390711.61745  21835758.3364                   21835756.9414
  -2082588.10247  -1596493.80045  22443186.1644                   22443185.8634
 11  8 17 17 45  0.0000000  0  9G03G24G07G13G19G28G23G08G11
  14182733.31646  11067112.28943  23591088.9304                   23591089.2304
  22231253.73447  17354102.04743  23871451.1724                   23871455.1334
 -13825488.97748 -10735027.08846  20577199.1804                   20577197.2544
   3660625.51647   2873698.51046  21313812.1414   21313811.6804
  -2854232.44548  -2198778.78146  21606662.6254                   21606659.5634
    263137.10247    235571.01645  22847385.0864                   22847383.3674
  16509406.36747  12876882.62244  23143394.8284                   23143394.5594
 -14839135.78148 -11535397.10345  21800424.5944                   21800423.5664
  -2261890.98847  -1736210.29145  22409066.0554                   22409065.5744
 11  8 17 17 45 30.0000000  0  9G03G24G07G13G19G28G23G08G11
  14174305.84846  11060545.33143  23589485.3054                   23589485.4774
  22042431.93047  17206968.34643  23835519.6334                   23835523.3444
 -13974488.83247 -10851130.87946  20548845.2114                   20548843.9774
   3630022.66047   2849852.07046  21307988.8674   21307988.0004
  -2904809.08248  -2238189.15446  21597037.8524                   21597035.3554
    108197.66047    114838.99745  22817901.2584                   22817899.0394
  16505515.28147  12873850.37044  23142654.0164                   23142654.7624
 -15024764.42248 -11680042.79845  21765100.8594                   21765099.3404
  -2440919.83647  -1875713.24845  22374997.6884                   22374997.6914
 11  8 17 17 46  0.0000000  0  9G03G24G07G13G19G28G23G08G11
  14166012.07047  11054082.57743  23587907.9064                   23587906.9774
  21853609.09846  17059833.87243  23799587.1644                   23799591.4844
 -14123243.01647 -10967043.23646  20520538.5004                   20520536.4104
   3599792.35947   2826295.94145  21302235.8984   21302234.8834
  -2954935.90648  -2277249.05746  21587499.3594                   21587496.4384
    -46596.41847     -5779.73244  22788444.3134                   22788442.8284
  16501730.77346  12870901.15544  23141933.8914                   23141934.5984
 -15210337.55547 -11824645.24645  21729787.1414                   21729786.4574
  -2619669.57047  -2014998.71545  22340982.9774                   22340982.8984
 11  8 17 17 46 30.0000000  0  9G03G24G07G13G19G28G23G08G11
  14157848.32047  11047721.18843  23586353.8594                   23586353.0554
  21664787.03147  16912699.91443  23763655.4454                   23763659.5594
 -14271750.50447 -11082763.36346  20492278.3834                   20492276.6764
   3569930.80547   2803027.14646  21296553.8834   21296552.8364
  -3004617.67648  -2315962.13446  21578045.1564                   21578042.1374
   -201247.11747   -126286.74445  22759015.2504                   22759013.9534
  16498048.53946  12868031.66044  23141233.7814                   23141233.3674
 -15395854.78147 -11969204.11445  21694484.5864                   21694483.7664
  -2798138.12547  -2154065.05745  22307021.1804                   22307021.5044
 11  8 17 17 47  0.0000000  0  9G03G24G07G13G19G28G23G08G11
  14149812.55146  11041459.51643  23584824.9384                   23584824.0554
  21475969.41046  16765569.43043  23727724.8754                   23727728.3714
 -14420008.45347 -11198289.03946  20464065.4694                   20464063.9304
   3540436.08647   2780044.17146  21290941.0394   21290940.3014
  -3053855.48848  -2354329.29446  21568675.3674                   21568672.8754
   -355753.94947   -246681.67845  22729613.8754                   22729612.4654
  16494466.89146  12865240.50244  23140552.4774                   23140552.5944
 -15581313.66048 -12113717.50545  21659192.7114                   21659191.8954
  -2976321.92247  -2292909.51645  22273114.2344                   22273113.9264
 11  8 17 17 47 30.0000000  0  9G03G24G07G13G19G28G23G08G11
  15717323.57446  12262896.61943  23883111.9844   23883112.0234   22862586.84846
  17846050.69543                  23991588.5394                   23991592.5394
 -12992588.91448 -10086014.09546  20735694.5944                   20735692.9104
   5086727.57047   3984946.60145  21585190.1884   21585190.0594
  -1527228.77347  -1164750.04146  21859182.8444                   21859179.9614
   1065307.85547    860639.24045  23000032.5634                   23000031.9734
  18066403.57847  14090125.99743  23439682.2584                   23439682.5164
 -14191284.84447 -11030578.14645  21923706.7194                   21923706.0824
  -1578791.18447  -1203924.49345  22539055.3834                   22539055.0634
 11  8 17 17 48  0.0000000  0  9G03G24G07G13G19G28G23G08G11
  15709536.72346  12256828.88243  23881630.8754   23881630.7624   22673788.67647
  17698935.41543                  23955661.6174                   23955665.5124
 -13140341.01648 -10201145.60246  20707578.4694                   20707576.3834
   5057959.62147   3962529.94745  21579716.1024   21579715.0784
  -1575584.80548  -1202430.09446  21849980.9534                   21849978.0704
    911086.62547    740466.87545  22970685.3134                   22970683.7664
  18063015.03547  14087485.34444  23439037.9224                   23439037.9264
 -14376619.89547 -11174995.06745  21888438.1254                   21888437.3874
  -1756395.54747  -1342317.46345  22505259.0314                   22505257.5784
 11  8 17 17 48 30.0000000  0  9G03G24G07G13G19G28G23G08G11
  15701869.00846  12250853.96243  23880171.8364   23880171.7704   22485002.78146
  17551829.75543                  23919736.9384                   23919740.9454
 -13287839.07447 -10316079.16446  20679510.4224                   20679508.4534
   5029548.95347   3940391.71045  21574310.1954   21574309.2234
  -1623505.24248  -1239770.72546  21840862.2274                   21840859.1214
    757005.21147    620403.46245  22941364.3444                   22941362.7234
  18059716.96547  14084915.17644  23438409.9924                   23438410.5274
 -14561891.77348 -11319362.75845  21853182.2114                   21853181.5984
  -1933707.41847  -1480482.50145  22471517.2424                   22471516.7974
 11  8 17 17 49  0.0000000  0  9G03G24G07G13G19G28G23G08G11
  15694320.84446  12244972.11343  23878735.0704   23878735.6484   22296235.85946
  17404738.72343                  23883815.5084                   23883819.7034
 -13435077.58248 -10430810.47346  20651491.8364                   20651489.9804
   5001496.79747   3918532.83445  21568971.7814   21568970.9804
  -1670989.30548  -1276771.31346  21831826.4614                   21831823.4104
    603066.42247    500451.17445  22912071.0704                   22912069.9884
  18056510.22747  14082416.14244  23437800.7974                   23437800.4414
 -14747095.17647 -11463677.08945  21817939.3674                   21817938.7274
  -2110720.28947  -1618414.58345  22437832.8134                   22437832.3554
 11  8 17 17 49 30.0000000  0  9G03G24G07G13G19G28G23G08G11
  15686891.20346  12239182.74243  23877321.5784   23877322.2344   22107492.66447
  17257666.22343                  23847898.9924                   23847903.3714
 -13582052.98047 -10545336.76946  20623523.1564                   20623521.8634
   4973801.95347   3896952.39145  21563701.5234   21563701.1804
  -1718037.78548  -1313432.48546  21822873.6254                   21822869.9774
    449271.04347    380610.66145  22882804.5784                   22882802.7274
  18053393.51247  14079987.25944  23437207.2424                   23437207.4844
 -14932227.02747 -11607935.65046  21782710.0234                   21782708.7384
  -2287429.82447  -1756110.26545  22404205.8054                   22404205.6604
 11  8 17 17 50  0.0000000  0  9G03G24G07G13G19G28G23G08G11
  15679577.94546  12233484.01543  23875930.3984   23875930.3594   21918776.38746
  17110614.68143                  23811987.7974                   23811991.0234
 -13728762.96547 -10659656.23546  20595605.3674                   20595603.5394
   4946461.68447   3875648.22945  21558499.0314   21558498.5204
  -1764652.83248  -1349755.92646  21814002.8134                   21813999.8364
    295618.38347    260881.32445  22853565.6804                   22853564.1724
  18050363.93447  14077626.32844  23436631.2114                   23436630.6884
 -15117284.70348 -11752136.43345  21747494.7664                   21747493.9224
  -2463832.41047  -1893566.76545  22370637.9694                   22370637.2194
 11  8 17 17 50 30.0000000  0  9G03G24G07G13G19G28G23G08G11
  15672376.09446  12227872.21142  23874559.2424   23874558.6254   21730087.86346
  16963584.79743                  23776080.6254                   23776084.6414
 -13875208.11348 -10773769.34846  20567737.7974                   20567736.2154
   4919470.96147   3854616.42645  21553362.8364   21553362.4384
  -1810839.25848  -1385745.37846  21805214.1024                   21805211.1334
    142105.48447    141260.91845  22824352.7894                   22824351.3524
  18047416.67647  14075329.50544  23436070.5784                   23436070.2974
 -15302268.69548 -11896279.78846  21712293.0394                   21712292.5004
  -2639927.56247  -2030783.74145  22337127.8754                   22337127.1604
 11  8 17 17 51  0.0000000  0  9G03G24G07G13G19G28G23G08G11
  15665285.38746  12222347.05142  23873209.8364   23873209.5554   21541432.36346
  16816580.63243                  23740181.2974                   23740184.8244
 -14021383.93448 -10887672.58246  20539921.7274                   20539919.9344
   4892829.10247   3833856.47246  21548293.3674   21548292.5234
  -1856597.64548  -1421401.28346  21796506.4844                   21796504.0274
    -11266.19547     21750.55345  22795166.8754                   22795166.2074
  18044551.07447  14073096.33443  23435525.2814                   23435524.6254
 -15487174.78548 -12040362.45245  21677106.5394                   21677105.8754
  -2815710.46947  -2167757.38945  22303677.6564                   22303677.0354
 11  8 17 17 51 30.0000000  0  9G03G24G07G13G19G28G23G08G11
  15658302.68046  12216905.91042  23871880.7894   23871881.6644   21352812.54347
  16669604.26643                  23704287.7424                   23704291.6214
 -14167289.02347 -11001364.86746  20512156.8594                   20512154.8244
   4866533.33247   3813366.20445  21543289.3674   21543288.8134
  -1901930.45748  -1456725.57346  21787879.9774                   21787876.9884
   -164497.93447    -97650.78445  22766008.3054                   22766007.0004
  18041763.85546  14070924.17943  23434994.8834                   23434995.3094
 -15672001.14148 -12184382.97646  21641935.4924                   21641934.9654
  -2991178.02347  -2304485.30145  22270287.0784                   22270286.2114
 11  8 17 17 52  0.0000000  0  9G03G24G07G13G19G28G23G08G11
  15651423.32446  12211545.25042  23870572.5314   23870573.6604   21164229.46147
  16522656.52444                  23668401.6804                   23668405.4304
 -14312923.60548 -11114846.37646  20484442.8914                   20484441.4264
   4840578.60547   3793141.67245  21538350.4924   21538349.9734
  -1946842.25448  -1491721.79146  21779333.1094                   21779329.9884
   -317592.96947   -216945.58545  22736875.1564                   22736874.3244
  18039049.94147  14068809.18544  23434479.3054                   23434479.6024
 -15856748.10948 -12328341.64445  21606779.1884                   21606778.4964
  -3166329.56647  -2440966.99745  22236956.9384                   22236955.8674
 11  8 17 17 52 30.0000000  0  9G03G24G07G13G19G28G23G08G11
  15644645.32846  12206263.64743  23869281.8054   23869283.3984   20975686.62947
  16375740.20943                  23632523.0234                   23632526.7734
 -14458284.55947 -11228114.66346  20456782.1024                   20456780.1454
   4814962.96947   3773181.36745  21533475.6564   21533475.5124
  -1991335.30148  -1526391.72546  21770866.3054                   21770863.8444
   -470550.84047   -336133.52945  22707768.6094                   22707766.4144
  18036407.53546  14066749.83844  23433976.2344                   23433977.1564
 -16041413.19548 -12472236.49046  21571638.8444                   21571637.3094
  -3341161.43047  -2577199.56945  22203687.2114                   22203686.5704
 11  8 17 17 53  0.0000000  0  9G03G24G07G13G19G28G23G08G11
  15637967.03146  12201059.67443  23868011.8054   23868012.9264   20787187.94947
  16228858.26243                  23596652.8444                   23596656.1254
 -14603369.64548 -11341167.97246  20429173.3984                   20429171.5124
   4789684.30947   3753483.63745  21528665.8674   21528664.5784
  -2035411.15648  -1560736.56246  21762479.3594                   21762476.1684
   -623371.94547   -455214.88345  22678687.1564                   22678685.9734
  18033834.48447  14064744.60544  23433486.5234                   23433487.5984
 -16225993.61348 -12616065.38846  21536514.1724                   21536513.4884
  -3515670.35947  -2713180.51645  22170479.8594                   22170478.8094
 11  8 17 17 53 30.0000000  0  9G03G24G07G13G19G28G23G08G11
  15631387.77746  12195932.90944  23866760.2894   23866760.1884   20598738.49247
  16082014.66343                  23560791.6644                   23560795.1994
 -14748174.76247 -11454003.13546  20401617.7734                   20401616.0354
   4764741.74247   3734047.81745  21523919.1884   21523918.8014
  -2079070.40248  -1594756.78046  21754171.3054                   21754168.6134
   -776055.07847   -574188.75045  22649632.4384                   22649631.0984
  18031329.87147  14062792.66244  23433010.5864                   23433011.0434
 -16410485.27348 -12759825.10346  21501406.5474                   21501405.8914
  -3689851.25847  -2848905.84845  22137334.1254                   22137332.8244
 11  8 17 17 54  0.0000000  0  9G03G24G07G13G19G28G23G08G11
  17200322.77347  13418479.65644  24165318.4454   24165319.0784   21985765.17247
  17162814.84743                  23824734.0234                   23824737.7034
 -13317275.87948 -10339017.00046  20673908.7814                   20673906.9454
   6315550.50847   4942470.16745  21819028.3834   21819027.6844
   -546896.44948   -400855.03646  22045734.3284                   22045731.6094
    646821.30547    534546.12545  22920397.0634                   22920395.7234
  19604308.18847  15288489.76244  23732338.2424                   23732339.5234
 -15019462.59448 -11675911.31746  21766109.6334                   21766108.3834
  -2288277.89147  -1756770.75645  22404044.5554                   22404043.1954
 11  8 17 17 54 30.0000000  0  9G03G24G07G13G19G28G23G08G11
  17193930.00046  13413498.23344  24164102.2114   24164102.8834   21797419.14547
  17016051.82943                  23788893.0554                   23788896.2464
 -13461519.79748 -10451414.86946  20646460.1644                   20646458.6454
   6291267.11347   4923547.96545  21814407.4144   21814407.3404
   -589734.30947   -434235.21646  22037582.3134                   22037579.5204
    494407.14147    415781.86745  22891393.7504                   22891392.1374
  19601927.59846  15286634.45843  23731885.4614                   23731885.9064
 -15203775.09048 -11819531.42246  21731035.6254                   21731034.5784
  -2461798.12147  -1891981.27545  22371024.6644                   22371023.7114
 11  8 17 17 55  0.0000000  0  9G03G24G07G13G19G28G23G08G11
  17187627.44546  13408587.05443  24162902.6484   24162903.4264   21609130.62546
  16869333.62843                  23753061.9384                   23753066.0984
 -13605479.06647 -10563590.91946  20619065.8054                   20619064.0354
   6267310.50847   4904880.41345  21809848.5314   21809847.9614
   -632164.35248   -467297.61746  22029508.5474                   22029506.0664
    342127.34447    297122.31545  22862415.6484                   22862414.4104
  19599605.66046  15284824.84843  23731444.2814                   23731444.6524
 -15387993.88348 -11963078.52746  21695980.1724                   21695978.9694
  -2634982.65247  -2026930.21845  22338068.5394                   22338068.4804
 11  8 17 17 55 30.0000000  0  9G03G24G07G13G19G28G23G08G11
  17181412.85546  13403744.42543  24161720.7344   24161720.2624   21420902.52047
  16722662.50143                  23717244.2274                   23717247.2734
 -13749151.59848 -10675543.55946  20591725.7114                   20591723.9144
   6243676.91847   4886464.55245  21805351.4384   21805350.8984
   -674189.25848   -500044.32346  22021511.6564                   22021508.4104
    189981.02347    178566.76445  22833463.6564                   22833462.2774
  19597339.77046  15283059.00343  23731012.7114                   23731013.8714
 -15572117.00848 -12106551.08646  21660943.0084                   21660941.4064
  -2807828.72347  -2161615.43145  22305176.6644                   22305176.4774
 11  8 17 17 56  0.0000000  0  9G03G24G07G13G19G28G23G08G11
  17175283.85546  13398968.48243  24160554.0704   24160553.8834   21232738.46147
  16576041.33843                  23681438.2114                   23681441.3444
 -13892535.35248 -10787271.16447  20564440.8284                   20564439.0514
   6220364.62147   4868299.04845  21800915.3134   21800914.6454
   -715811.36348   -532477.17445  22013591.1414                   22013587.8054
     37967.94547     60115.02645  22804536.2424                   22804534.6604
  19595127.41847  15281334.77544  23730593.0554                   23730593.3524
 -15756141.99648 -12249947.17045  21625923.8524                   21625923.2234
  -2980333.02347  -2296034.34545  22272350.9384                   22272349.8634
 11  8 17 17 56 30.0000000  0  9G03G24G07G13G19G28G23G08G11
  17169238.65246  13394257.90242  24159402.7584   24159403.6954   21044642.16447
  16429472.89643                  23645644.0864                   23645646.5664
 -14035627.72348 -10898771.72246  20537211.0164                   20537209.3524
   6197371.38747   4850382.17645  21796539.7274   21796539.8164
   -757032.38347   -564597.46745  22005746.5944                   22005743.4614
   -113912.65647    -58233.44945  22775634.3524                   22775632.5124
  19592966.13347  15279650.37143  23730181.2974                   23730182.4024
 -15940066.43748 -12393264.89946  21590924.0474                   21590923.5744
  -3152492.11747  -2430184.26545  22239589.9224                   22239589.0744
 11  8 17 17 57  0.0000000  0  9G03G24G07G13G19G28G23G08G11
  17163273.86746  13389610.03542  24158268.3674   24158268.4104   20856615.62547
  16282958.80743                  23609863.6724                   23609866.4104
 -14178427.28947 -11010044.10946  20510037.1954                   20510035.2934
   6174693.42247   4832710.94545  21792224.5084   21792224.4654
   -797856.16847   -596408.22845  21997978.3524                   21997975.4494
   -265662.28147   -176479.90545  22746757.4534                   22746756.0234
  19590852.65247  15278003.19043  23729780.1884                   23729780.6094
 -16123888.81648 -12536503.11546  21555944.1254                   21555943.5984
  -3324304.11747  -2564063.71845  22206895.2814                   22206894.1724
 11  8 17 17 57 30.0000000  0  9G03G24G07G13G19G28G23G08G11
  17157388.94546  13385024.34643  24157148.7974   24157148.7114   20668664.33247
  16136503.38843                  23574097.0474                   23574100.4024
 -14320930.40648 -11121085.50546  20482919.6724                   20482918.1254
   6152329.99247   4815284.81845  21787969.2664   21787968.8204
   -838283.16847   -627909.82645  21990285.0554                   21990282.3554
   -417279.52747   -294623.20245  22717905.6024                   22717903.4384
  19588786.24247  15276392.74044  23729386.2584                   23729386.9844
 -16307604.98448 -12679658.56746  21520983.8674                   21520983.0274
  -3495763.97347  -2697668.75645  22174267.1334                   22174266.7464
 11  8 17 17 58  0.0000000  0  8G24G07G13G19G28G23G08G11
  20480787.41846  15990105.93043  23538346.1644                   23538348.6644
 -14463138.59048 -11231897.09146  20455858.4304                   20455857.1174
   6130274.34047   4798098.53445  21783771.7584   21783771.5234
   -878319.23848   -659106.78545  21982667.1174                   21982663.8484
   -568768.83247   -412666.77945  22689077.7814                   22689076.5824
  19586760.42646  15274813.90743  23729000.7344                   23729001.8524
 -16491216.53148 -12822732.49246  21486044.0004                   21486042.9184
  -3666872.59447  -2831000.12545  22141706.2504                   22141705.3244
 11  8 17 17 58 30.0000000  0  8G24G07G13G19G28G23G08G11
  20292994.48846  15843773.87243  23502609.5234                   23502613.0274
 -14605043.73048 -11342472.53646  20428854.8134                   20428853.1054
   6108530.01247   4781154.81645  21779634.3674   21779633.5124
   -917960.90248   -689996.41846  21975123.5634                   21975120.3444
   -720124.67647   -530606.37245  22660275.6884                   22660274.2934
  19584778.65646  15273269.36443  23728624.0084                   23728624.9414
 -16674715.02348 -12965718.32846  21451125.4614                   21451124.5394
  -3837620.75847  -2964050.60645  22109214.0084                   22109213.4064
 11  8 17 17 59  0.0000000  0  8G24G07G13G19G28G23G08G11
  20105304.34447  15697521.94343  23466893.2034                   23466896.3364
 -14746627.98448 -11452797.93346  20401912.3054                   20401910.4414
   6087109.76247   4764463.61645  21775557.8524   21775557.9694
   -957195.42248   -720568.80445  21967657.0474                   21967654.5354
   -871332.69947   -648430.79045  22631501.8984                   22631500.4344
  19582854.06646  15271769.38443  23728257.9614                   23728259.3714
 -16858082.59448 -13108602.14546  21416231.2194                   21416231.0474
  -4007990.07047  -3096805.88545  22076794.3524                   22076793.0394
 11  8 17 17 59 30.0000000  0  8G24G07G13G19G28G23G08G11
  19917719.98046  15551352.42643  23431196.7734                   23431200.1914
 -14887889.60548 -11562871.93246  20375030.6334                   20375029.3164
   6066010.48447   4748022.55545  21771543.1254   21771542.8754
   -996025.13347   -750825.75746  21960268.0474                   21960265.7814
  -1022393.42647   -766140.42145  22602755.7814                   22602754.6764
  19580983.30546  15270311.31743  23727901.9694                   23727903.3094
 -17041317.33648 -13251382.45546  21381362.6804                   21381362.2114
  -4177977.84047  -3229263.85045  22044446.1174                   22044445.2544
 11  8 17 18  0  0.0000000  0  8G24G07G13G19G28G23G08G11
  19730239.03146  15405263.49443  23395520.1954                   23395523.4694
 -15028832.08248 -11672697.24546  20348210.8204                   20348208.8984
   6045224.07847   4731825.25445  21767587.7814   21767587.5744
  -1034458.53547   -780773.88146  21952954.5084                   21952952.0664
  -1173313.24247   -883740.24945  22574036.9384                   22574035.6094
  19579158.39546  15268889.02743  23727555.3594                   23727556.6294
 -17224422.72348 -13394061.97346  21346519.2584                   21346518.7034
  -4347586.80947  -3361426.65345  22012170.8984                   22012169.8714
 11  8 17 18  0 30.0000000  0  8G24G07G13G19G28G23G08G11
  19542860.41847  15259254.36243  23359862.9224                   23359866.6414
 -15169457.77048 -11782275.71646  20321450.4534                   20321448.7774
   6024743.30147   4715866.12345  21763690.2504   21763689.8204
  -1072502.20347   -810418.33345  21945714.8284                   21945712.3204
  -1324097.32847  -1001234.33745  22545343.6174                   22545342.0594
  19577372.25046  15267496.94743  23727215.3674                   23727216.7854
 -17407400.98448 -13536642.42246  21311699.3524                   21311698.7504
  -4516818.23447  -3493295.24345  21979967.1724                   21979966.0434
 11  8 17 18  1  0.0000000  0  8G24G07G13G19G28G23G08G11
  20931011.02747  16340930.28043  23624019.9224                   23624023.2234
 -13734342.86748 -10664004.38246  20594543.9534                   20594541.9494
   7579983.08647   5927741.21245  22059642.7424   22059642.4454
    465259.86748    387837.79045  22238341.6804                   22238338.9024
    100675.78947    108978.50445  22816469.0084                   22816467.3594
  21151039.52246  16493730.72643  24026674.5004                   24026676.2504
 -16014826.31648 -12451519.30546  21576697.9064                   21576697.1414
  -3110246.70347  -2397265.45645  22247629.0084                   22247627.8054
 11  8 17 18  1 30.0000000  0  8G24G07G13G19G28G23G08G11
  20743839.81347  16195082.78243  23588401.5784                   23588405.8954
 -13874336.30948 -10773090.19047  20567903.7814                   20567902.1054
   7560097.93047   5912246.19345  22055858.7424   22055858.3794
    427980.64548    358789.02245  22231247.4224                   22231244.4144
    -49846.20747     -8311.35245  22787825.5474
  22787823.9344   21149315.73046  16492387.24543  24026346.8914   24026348.1524
 -16197550.19148 -12593901.54246  21541926.6804                   21541925.6804
  -3278721.98847  -2528544.83745  22215568.7504                   22215567.7974
 11  8 17 18  2  0.0000000  0  8G24G07G13G19G28G23G08G11
  20556775.84447  16049318.71843  23552805.2584                   23552807.7074
 -14014011.90248 -10881928.31946  20541324.4384                   20541322.8284
   7540504.81647   5896978.75545  22052130.5784   22052130.5824
    391078.38747    330033.98545  22224224.9534                   22224222.5824
   -200239.35547   -125500.77845  22759206.5704                   22759204.6414
  21147618.09046                  16491064.06543  24026024.2504   24026025.6914
 -16380144.91848 -12736183.13946  21507180.0004                   21507178.9024
  -3446816.17247  -2659527.30345  22183581.3984                   22183580.8244
 11  8 17 18  2 30.0000000  0  8G24G07G13G19G28G23G08G11
  20369821.89847  15903640.51344  23517228.5394                   23517231.5084
 -14153368.01248 -10990517.50846  20514805.7034                   20514803.9964
   7521200.83647   5881936.60945  22048457.4614   22048456.8754
    354549.97747    301570.25545  22217274.1414                   22217271.2344
   -350505.50847   -242591.27245  22730611.6644                   22730609.8874
  21145943.12946                  16489758.54443  24025706.0394   24025707.8404
 -16562608.51648 -12878362.55146  21472458.4614                   21472457.6644
  -3614526.65247  -2790210.76045  22151667.2424                   22151666.2344
 11  8 17 18  3  0.0000000  0  8G24G07G13G19G28G23G08G11
  20182978.46947  15758048.32443  23481673.9924                   23481676.2154
 -14292405.16048 -11098858.14747  20488347.7584                   20488346.4384
   7502180.39147   5867115.38345  22044837.6804   22044837.6134
    318390.22347    273393.78745  22210392.7114                   22210390.5664
   -500647.59847   -359585.09745  22702040.7344                   22702038.6214
  21144285.89846                  16488466.91144  24025390.8284   24025392.7664
 -16744941.64148 -13020440.28146  21437761.2584                   21437760.7664
  -3781853.70747  -2920595.44445  22119825.9454                   22119825.1024
 11  8 17 18  3 30.0000000  0  9G17G24G07G13G19G28G23G08G11
  32740707.97356  25548938.33953  24638457.1414                   24638460.8244
  19996246.23447  15612542.85843  23446139.0944                   23446142.3984
 -14431123.92648 -11206950.71147  20461950.3984                   20461949.2384
   7483438.21947   5852510.99845  22041271.1174   22041270.6644
    282593.97347    245500.56645  22203581.3674                   22203578.7384
   -650669.05147   -476484.89445  22673492.8674                   22673490.8284
  21142641.02047                  16487184.82343  24025078.5784   24025079.6684
 -16927144.10248 -13162416.22646  21403089.5864                   21403088.7854
  -3948797.00847  -3050681.09245  22088057.6414                   22088056.7074
 11  8 17 18  4  0.0000000  0  9G17G24G07G13G19G28G23G08G11
  32519939.23046  25376911.01643  24596445.9924                   24596449.8914
  19809613.72746  15467115.05144  23410624.4614                   23410626.8244
 -14569537.20748 -11314805.23046  20435611.4694                   20435609.5124
   7464956.37947   5838109.48945  22037754.1564   22037753.9734
    247144.07847    217877.24945  22196835.6804                   22196832.6094
   -800585.48047   -593302.87645  22644964.4614                   22644962.7304
  21140991.00446                  16485898.77443  24024764.0314   24024766.5354
 -17109228.53148 -13304300.19546  21368440.2114                   21368439.2074
  -4115368.62147  -3180477.13545  22056360.3364                   22056359.4804
 11  8 17 18  4 30.0000000  0  9G17G24G07G13G19G28G23G08G11
  32299237.69146  25204936.03743  24554447.0164                   24554451.8204
  19623079.60247  15321763.94644  23375127.8134                   23375130.7074
 -14707647.42647 -11422423.59746  20409330.0314                   20409328.3674
   7446727.69147   5823905.22345  22034285.1254   22034285.3444
    212033.19147    190518.07445  22190154.2664                   22190151.5904
   -950402.10247   -710043.08845  22616455.3204                   22616454.4024
  21139328.50046                  16484602.95143  24024447.8914   24024450.1804
 -17291197.46147 -13446094.15446  21333812.4774                   21333811.4534
  -4281569.95747  -3309984.63945  22024733.3284                   22024731.9804
 11  8 17 18  5  0.0000000  0  9G17G24G07G13G19G28G23G08G11
  32078607.30546  25033016.61043  24512462.4774                   24512467.3404
  19436648.05947  15176492.74844  23339650.6564                   23339653.7774
 -14845451.59048 -11529803.47246  20383106.7344                   20383105.3794
   7428750.10947   5809896.62445  22030864.7814   22030864.3674
    177259.53547    163421.69445  22183537.2274                   22183534.0434
  -1100118.55547   -826705.22745  22587965.2274                   22587963.9064
  21137652.09846                  16483296.32443  24024128.9144   24024131.4264
 -17473047.35948 -13587795.36146  21299207.6804                   21299206.3054
  -4447397.52047  -3439200.89145  21993176.7974                   21993175.8134
 11  8 17 18  5 30.0000000  0  9G17G24G07G13G19G28G23G08G11
  31858057.61146  24861159.99743  24470493.1804                   24470497.1294
  19250329.94147  15031309.94243  23304196.0394                   23304198.6914
 -14982940.40648 -11636937.63246  20356943.3054                   20356942.0124
   7411028.45347   5796087.46545  22027492.1254   22027491.9064
    142828.27747    136592.10345  22176984.8914                   22176982.2544
  -1249728.25847   -943284.19845  22559495.2194                   22559493.7734
  21135966.68046                  16481982.69943  24023808.3754   24023811.1914
 -17654768.35948 -13729396.14046  21264627.1024                   21264626.0664
  -4612840.89547  -3568117.75445  21961694.0944                   21961693.1804
 11  8 17 18  6  0.0000000  0  9G17G24G07G13G19G28G23G08G11
  31637592.16046  24689369.02743  24428540.3134                   24428543.9344
  19064130.12946  14886219.33843  23268762.6564                   23268765.4024
 -15120110.17648 -11743823.16947  20330841.1564                   20330839.1564
   7393561.40247   5782476.67745  22024168.5474   22024168.3284
    108738.32047    110028.44345  22170498.0784                   22170495.2194
  -1399230.37947  -1059779.33345  22531046.1094                   22531044.5354
  21134271.20746                  16480661.12743  24023486.2814   24023488.8914
 -17836356.65248 -13870893.50046  21230072.0084                   21230071.0904
  -4777895.85247  -3696731.97145  21930284.8834                   21930284.3244
 11  8 17 18  6 30.0000000  0  9G17G24G07G13G19G28G23G08G11
  31417217.93446  24517649.12843  24386603.9384                   24386607.5554
  18878056.06647  14741226.71844  23233353.8984                   23233356.6724
 -15256954.70348 -11850455.28246  20304800.4224                   20304798.6134
   7376350.26647   5769065.30645  22020893.5784   22020893.8484
     74991.07047     83731.85445  22164076.3364                   22164073.7734
  -1548621.33647  -1176187.85745  22502617.7114                   22502616.7774
  21132567.39146                  16479333.11943  24023162.8054   24023165.1294
 -18017805.77748 -14012282.42746  21195543.5084                   21195542.5354
  -4942555.38348  -3825038.06345  21898951.8134                   21898950.7664
 11  8 17 18  7  0.0000000  0  9G17G24G07G13G19G28G23G08G11
  31196938.18046  24346002.78743  24344685.3594                   24344689.1994
  18692112.18847  14596335.51744  23197969.6954                   23197973.4064
 -15393470.70748 -11956831.41146  20278822.2194                   20278820.6254
   7359393.56347   5755852.18145  22017666.2194   22017666.5234
     41585.38347     57701.41345  22157718.8054                   22157716.3484
  -1697900.62947  -1292509.35445  22474210.6484                   22474209.7584
  21130853.71946                  16477997.44043  24022837.1564   24022839.5124
 -18199111.84448 -14153559.87746  21161041.9844                   21161040.9144
  -5106815.56247  -3953032.97345  21867693.9534                   21867692.8284
 11  8 17 18  7 30.0000000  0  9G17G24G07G13G19G28G23G08G11
  32552182.37946  25402037.50544  24602578.9774                   24602583.8554
  20081727.73847  15679153.01343  23462404.9144                   23462408.0704
 -13954232.04348 -10835346.74446  20552700.3444                   20552698.5314
   8918108.62947   6970435.26245  22314280.4774   22314280.4384
   1583939.26647   1259535.57345  22451219.4224                   22451216.8754
   -271644.23847   -181140.72545  22745618.8594   22745616.6844   22704547.44146
  17704251.89943                  24322300.3674                   24322303.6994
 -16804846.87148 -13067119.63846  21426361.8524                   21426361.0864
  -3695248.49247  -2853110.53845  22136306.0474                   22136305.3284
 11  8 17 18  8  0.0000000  0  9G17G24G07G13G19G28G23G08G11
  32332100.20346  25230545.18744  24560699.5944                   24560702.8164
  19896055.79746  15534473.68943  23427072.3984                   23427075.2504
 -14090083.41848 -10941204.96946  20526848.7274                   20526846.6024
   8901653.80547   6957613.20845  22311149.2034   22311148.8244
   1551210.29347   1234032.43845  22444991.6414                   22444988.6484
   -420700.89147   -297288.73545  22717253.8284   22717252.7894   22702808.27746
  17702896.26743                  24321970.2194                   24321973.1174
 -16985858.35947 -13208167.55146  21391916.6174                   21391915.8524
  -3858700.16047  -2980475.42545  22105201.6094                   22105201.6994
 11  8 17 18  8 30.0000000  0  9G17G24G07G13G19G28G23G08G11
  32112120.68847  25059132.78744  24518839.0314                   24518842.3484
  19710525.53547  15389904.79643  23391767.8914                   23391769.7034
 -14225598.92248 -11046801.47246  20501060.7814                   20501059.0514
   8885446.32847   6944983.92745  22308065.3674   22308065.0634
   1518816.14547   1208790.22145  22438826.9304                   22438823.9264
   -569646.80947   -413350.47145  22688910.4454   22688909.5204   22701052.77346
  17701527.95943                  24321636.5474                   24321639.5274
 -17166718.51247 -13349097.54246  21357499.9304                   21357499.3714
  -4021742.82448  -3107521.61245  22074175.8834                   22074175.3594
 11  8 17 18  9  0.0000000  0  9G17G24G07G13G19G28G23G08G11
  31892247.43047  24887803.24944  24476998.3674                   24477001.9064
  19525141.31647  15245449.65944  23356489.5944                   23356492.5904
 -14360775.23448 -11152133.66746  20475337.5944                   20475336.0984
   8869484.12147   6932545.73745  22305027.3204   22305027.7424
   1486755.71147   1183808.03245  22432725.5084                   22432723.2814
   -718481.56247   -529325.58845  22660588.0864   22660586.8594   22699279.85946
  17700146.06343                  24321299.9224                   24321303.4064
 -17347423.38747 -13489906.52746  21323113.0234                   21323111.9184
  -4184372.78948  -3234246.22445  22043228.8984                   22043228.0274
 11  8 17 18  9 30.0000000  0  9G17G24G07G13G19G28G23G08G11
  31672481.02346  24716556.99144  24435177.5554                   24435181.6374
  19339904.34047  15101109.33944  23321240.1804                   23321243.4454
 -14495612.33248 -11257201.55247  20449679.0084                   20449677.4574
   8853762.77347   6920295.24145  22302036.0234   22302036.1994
   1455024.32047   1159082.23345  22426687.9064                   22426685.2424
   -867207.46547   -645215.87645  22632286.5084   22632285.1684   22697484.99646
  17698747.04944                  24320958.5004                   24320962.2584
 -17527972.35248 -13630594.02846  21288755.7584                   21288755.1604
  -4346589.41447  -3360648.74245  22012360.0394                   22012359.2974
 11  8 17 18 10  0.0000000  0  9G17G24G07G13G19G28G23G08G11
  31452826.31646  24545397.74544  24393378.7274                   24393382.4774
  19154821.09847  14956888.73244  23286019.7974                   23286022.6054
 -14630105.26648 -11362001.25047  20424085.8834                   20424084.5634
   8838282.44547   6908232.54745  22299090.6564   22299091.2304
   1423622.39147   1134613.15445  22420712.6564                   22420709.6644
  -1015822.53947   -761019.81245  22604006.0084   22604005.0354   22695668.73046
  17697331.31643                  24320613.0704                   24320617.2154
 -17708360.21947 -13771156.01646  21254429.1094                   21254427.9734
  -4508386.60547  -3486724.42145  21981571.0314                   21981569.8284
 11  8 17 18 10 30.0000000  0  9G17G24G07G13G19G28G23G08G11
  31233284.55946  24374326.48743  24351601.2814                   24351604.1994
  18969894.04747  14812789.87944  23250829.8444                   23250832.1214
 -14764252.84848 -11466531.84847  20398558.2814                   20398556.8404
   8823039.14547   6896354.53945  22296189.7664   22296189.5354
   1392546.51647   1110398.16845  22414798.4384                   22414795.9184
  -1164328.34847   -876738.60545  22575746.3834   22575744.9024   22693827.60547
  17695896.30243                  24320263.1484                   24320267.0634
 -17888585.48047 -13911591.28946  21220133.1804                   21220132.2504
  -4669762.67647  -3612471.95045  21950862.2344                   21950861.4804
 11  8 17 18 11  0.0000000  0  9G17G24G07G13G19G28G23G08G11
  31013861.00046  24203347.38143  24309845.9144                   24309849.2734
  18785129.05947  14668817.28244  23215669.4924                   23215672.4654
 -14898050.96148 -11570790.11947  20373097.3674                   20373095.9144
   8808032.69947   6884661.12745  22293333.7894   22293334.0084
   1361796.62547   1086437.17045  22408947.2664                   22408944.5904
  -1312722.96147   -992370.76845  22547507.9384   22547505.9734   22691961.51247
  17694441.75743                  24319908.3674                   24319911.8834
 -18068643.02748 -14051895.86946  21185869.4534                   21185868.2154
  -4830712.48047  -3737887.32345  21920234.1414                   21920233.1414
 11  8 17 18 11 30.0000000  0  9G17G24G07G13G19G28G23G08G11
  30794558.51246  24032462.56743  24268113.8134                   24268116.1024
  18600529.99647  14524973.96944  23180541.8284                   23180544.4534
 -15031496.70348 -11674773.82847  20347703.8364                   20347701.6334
   8793261.12547   6873150.69245  22290523.1024   22290523.3674
   1331370.61747   1062728.56245  22403157.1414                   22403155.5744
  -1461006.69147  -1107916.50445  22519290.1644   22519288.6954   22690068.78146
  17692966.47443                  24319548.3524                   24319552.0124
 -18248529.81248 -14192067.37846  21151638.1174                   21151637.4304
  -4991232.91448  -3862968.14045  21889688.3674                   21889687.2664
 11  8 17 18 12  0.0000000  0  9G17G24G07G13G19G28G23G08G11
  30575378.55146  23861673.26143  24226404.1094                   24226406.8444
  18416099.60247  14381262.11944  23145445.9064                   23145448.3134
 -15164588.45348 -11778481.69747  20322377.4614                   20322375.6374
   8778721.00447   6861820.60644  22287756.7584   22287756.3244
   1301265.41447   1039269.92545  22397428.6024                   22397425.9534
  -1609180.55547  -1223376.64645  22491093.1564   22491092.4614   22688146.21146
  17691467.95443                  24319182.6174                   24319186.5084
 -18428243.77748 -14332104.22146  21117440.0634                   21117438.2974
  -5151321.86747  -3987712.73245  21859224.0474                   21859223.0314
 11  8 17 18 12 30.0000000  0  9G17G24G07G13G19G28G23G08G11
  30356325.03146  23690982.39943  24184719.9304                   24184723.1764
  18231842.08647  14237684.97743  23110382.8284                   23110384.5704
 -15297323.63348 -11881911.72047  20297118.4144                   20297116.6564
   8764410.08647   6850669.15045  22285033.1484   22285033.3714
   1271479.44147   1016060.03445  22391760.3364                   22391758.2384
  -1757244.23047  -1338750.91145  22462918.2274   22462916.4454   22686192.56346
  17689945.22143                  24318811.0944                   24318815.0474
 -18607781.64847 -14472003.86146  21083274.4534                   21083274.2274
  -5310975.58247  -4112118.16945  21828843.0784                   21828842.3984
 11  8 17 18 13  0.0000000  0  9G17G24G07G13G19G28G23G08G11
  30137401.69146  23520393.02343  24143059.9844                   24143063.4344
  18047762.83647  14094246.69543  23075353.4844                   23075355.9804
 -15429698.11348 -11985060.67547  20271928.4064                   20271927.1374
   8750327.61347   6839695.66344  22282353.6644   22282353.3954
   1242012.05547    993098.42345  22386153.3524                   22386150.6374
  -1905196.45747  -1454038.33345  22434763.5474   22434762.7584   22684207.24646
  17688397.75442                  24318433.5634                   24318438.3524
 -18787138.85948 -14611762.72246  21049144.1724                   21049143.3164
  -5470189.70347  -4236181.08945  21798545.5234                   21798544.4184
 11  8 17 18 13 30.0000000  0  9G17G24G07G13G19G28G23G08G11
  29918607.73047  23349904.47344  24101424.7664                   24101428.0474
  17863862.51647  13950947.88143  23040358.5474                   23040360.1914
 -15561712.71548 -12087929.20347  20246806.8754                   20246805.5594
   8736468.09447   6828895.92545  22279716.6484   22279716.2384
   1212857.65647    970380.65945  22380604.7114                   22380603.1294
  -2053040.97347  -1569241.85045  22406629.9924   22406628.4304   22682184.81346
  17686821.33642                  24318049.1484                   24318053.7814
 -18966315.64548 -14751380.99346  21015048.1254                   21015047.3594
  -5628964.34847  -4359901.55645  21768331.8204                   21768330.7384
 11  8 17 18 14  0.0000000  0  8G17G24G07G13G19G28G08G11
  29699949.42646  23179521.62744  24059816.0164                   24059818.8324
  17680148.21546  13807793.97343  23005398.3284                   23005401.1564
 -15693361.52748 -12190512.71247  20221754.8834                   20221753.7304
   8722832.64847   6818270.80445  22277121.7734   22277121.5164
   1184017.66447    947907.90645  22375117.4774                   22375114.5864
  -2200774.54747  -1684358.90745  22378516.8054   22378515.5904
 -19145305.74248 -14890853.78746  20980987.5704                   20980986.5594
  -5787293.00047  -4483274.49845  21738202.9304                   21738201.7544
 11  8 17 18 14 30.0000000  0  8G17G24G07G13G19G28G08G11
  31056856.45346  24236852.01744  24318026.4304                   24318029.3674
  19072048.78146  14892391.93944  23270268.3284                   23270270.0984
 -14249218.89148 -11065206.75747  20496566.0634                   20496564.5474
  10284838.32847   8035417.97244  22574361.4304   22574362.1334
   2730909.67647   2153278.27445  22669481.0474                   22669478.3674
   -772973.18447   -571786.40645  22650218.9844   22650217.1294
 -17748680.71148 -13802574.54346  21246756.3594                   21246755.4144
  -4369748.27048  -3378694.15945  22007952.7344                   22007951.2624
 11  8 17 18 15  0.0000000  0  8G17G24G07G13G19G28G08G11
  30838488.72346  24066695.56644  24276472.1884                   24276475.1724
  18888727.80947  14749544.52344  23235383.6724                   23235384.7074
 -14380118.83248 -11167206.73147  20471656.7584                   20471655.3794
  10271654.15647   8025144.46545  22571852.9454   22571853.1484
   2702702.05147   2131298.29845  22664113.4694                   22664110.5354
   -920475.02347   -686722.88045  22622149.8914   22622148.5124
 -17927277.80948 -13941741.10646  21212770.2974                   21212769.5904
  -4527165.68048  -3501357.05045  21977996.8444                   21977996.0204
 11  8 17 18 15 30.0000000  0  8G17G24G07G13G19G28G08G11
  30620280.27346  23896663.26044  24234948.2274                   24234951.8714
  18705619.55147  14606862.85144  23200538.9694                   23200540.6844
 -14510630.48848 -11268904.14247  20446821.2584                   20446819.7544
  10258702.07447   8015051.82444  22569388.2504   22569388.3554
   2674818.06347   2109570.47245  22658807.1174                   22658804.7544
  -1067851.00047   -801561.29245  22594105.2274   22594103.6724
 -18105663.81248 -14080743.18246  21178824.4384                   21178823.3754
  -4684112.68747  -3623653.40345  21948130.7424                   21948129.7074
 11  8 17 18 16  0.0000000  0  8G17G24G07G13G19G28G08G11
  30402229.47346  23726753.76844  24193453.9064                   24193456.9184
  18522723.46947  14464346.53844  23165734.8054                   23165737.2894
 -14640755.66048 -11370300.38647  20422059.4924                   20422057.9414
  10245975.29747   8005134.74344  22566966.2974   22566967.1454
   2647250.95347   2088089.57845  22653561.7114                   22653558.7934
  -1215105.64147   -916305.14445  22566083.2974   22566081.9804
 -18283839.87947 -14219581.67746  21144918.7344                   21144917.9574
  -4840590.63748  -3745584.24845  21918353.8524                   21918353.1454
 11  8 17 18 16 30.0000000  0  8G17G24G07G13G19G28G08G11
  30184328.46146  23556960.95444  24151988.8444                   24151991.7854
  18340032.44947  14321989.99344  23130969.3284                   23130972.1174
 -14770503.03948 -11471402.26747  20397369.2894                   20397367.8834
  10233460.80547   7995383.06244  22564584.7034   22564585.5554
   2619987.53147   2066845.33845  22648373.0864                   22648370.9414
  -1362250.25047  -1030963.24745  22538082.6174   22538080.9844
 -18461813.75448 -14358262.61446  21111051.4844                   21111050.5984
  -4996607.56247  -3867155.86445  21888665.0004                   21888664.3524
 11  8 17 18 17  0.0000000  0  9G17G24G07G26G13G19G28G08G11
  29966574.72746  23387282.92744  24110551.2894                   24110554.6254
  18157545.52047  14179792.47644  23096243.5314                   23096245.8674
 -14899875.12548 -11572211.69147  20372750.6024                   20372748.7304
  35915821.10556  28020166.86053  24262875.2974                   24262876.6604
  10221151.34447   7985791.14844  22562242.3984   22562243.2814
   2593020.66447   2045832.15745  22643241.8284                   22643239.1374
  -1509289.99647  -1145539.67245  22510102.1484   22510100.5274
 -18639587.43448 -14496787.55746  21077222.2894                   21077221.6334
  -5152165.54348  -3988369.85945  21859063.2664                   21859062.4344
 11  8 17 18 17 30.0000000  0  9G17G24G07G26G13G19G28G08G11
  29748954.54346  23217708.96144  24069138.5944                   24069143.0594
  17975249.68047  14037743.84244  23061553.9454                   23061556.4144
 -15028885.97348 -11672739.63547  20348200.6644                   20348199.1214
  35711266.46546  27860773.64543  24223950.4064                   24223950.9614
  10209028.00047   7976344.24644  22559936.4694   22559936.0984
   2566331.87147   2025035.66445  22638163.5554                   22638160.5234
  -1656241.62547  -1260047.40645  22482137.8444   22482136.4774
 -18817174.67648 -14635167.22046  21043428.8284                   21043427.6214
  -5307277.87147  -4109236.60145  21829546.5944                   21829545.6954
 11  8 17 18 18  0.0000000  0  9G17G24G07G26G13G19G28G08G11
  29531462.15246  23048234.61743  24027751.4454                   24027755.1024
  17793140.17247  13895840.42844  23026899.9844                   23026901.4384
 -15157542.01248 -11772991.11647  20323718.5164                   20323716.6564
  35507061.66846  27701653.14043  24185091.8444                   24185092.3914
  10197079.41447   7967033.53044  22557662.4144   22557662.1804
   2539910.69547   2004447.69045  22633135.2114                   22633132.7704
  -1803113.43447  -1374492.95445  22454189.2584   22454187.6414
 -18994580.89148 -14773405.84146  21009669.4774                   21009668.4884
  -5461950.28147  -4229760.54545  21800113.2504                   21800112.2114
 11  8 17 18 18 30.0000000  0  9G17G24G07G26G13G19G28G08G11
  29314104.47746  22878865.14144  23986390.0164                   23986392.8914
  17611225.11747  13754088.51144  22992282.2034                   22992284.7274
 -15285836.36748 -11872960.75647  20299304.7894                   20299302.8754
  35303213.95346  27542810.79043  24146300.6254                   24146301.4494
  10185307.85247   7957860.74344  22555422.3444   22555422.5744
   2513759.05147   1984069.73245  22628158.7034                   22628156.2854
  -1949901.89147  -1488873.56045  22426256.4924   22426254.5204
 -19171798.53948 -14911497.49946  20975945.9924                   20975944.9654
  -5616176.05947  -4349936.43945  21770765.2274                   21770763.9614
 11  8 17 18 19  0.0000000  0  9G17G24G07G26G13G19G28G08G11
  29096887.80546  22709605.58344  23945055.0164                   23945058.4534
  17429511.69947  13612493.75644  22957703.2034                   22957705.1254
 -15413763.38348 -11972644.15447  20274960.8364                   20274959.2154
  35099730.71546  27384252.47243  24107578.9774                   24107579.2234
  10173714.13347   7948826.56044  22553216.0634   22553216.2234
   2487878.23447   1963902.83345  22623234.1094                   22623231.0554
  -2096603.74247  -1603186.65645  22398339.6644   22398338.1684
 -19348821.35548 -15049437.36246  20942259.3204                   20942258.5704
  -5769948.34447  -4469759.00345  21741503.4144                   21741502.1684
 11  8 17 18 19 30.0000000  0  9G17G24G07G26G13G19G28G08G11
  28879815.22346  22540458.27144  23903747.1644                   23903750.6724
  17248004.35246  13471059.52944  22923163.3674                   22923165.4494
 -15541320.03948 -12072038.98747  20250687.7584                   20250686.2934
  34896615.75046  27225981.09143  24068928.1174                   24068928.1174
  10162296.69147   7939929.67644  22551044.0004   22551044.8284
   2462266.55547   1943945.64745  22618360.3364                   22618357.4694
  -2243218.50847  -1717431.93145  22370439.6414   22370438.4494
 -19525645.54348 -15187222.44246  20908611.2584                   20908609.9614
  -5923263.72747  -4589225.52545  21712328.3134                   21712327.2034
 11  8 17 18 20  0.0000000  0  9G17G24G07G26G13G19G28G08G11
  28662890.18847  22371425.94944  23862467.8524                   23862470.6604
  17066707.40247  13329789.24844  22888663.4304                   22888665.7774
 -15668503.40648 -12171142.91247  20226485.2114                   20226483.8834
  34693873.24646  27067999.95243  24030347.0394                   24030347.6524
  10151053.43847   7931168.58844  22548904.2034   22548905.1294
   2436922.80946   1924197.24045  22613537.4064                   22613535.0744
  -2389745.69147  -1831608.96645  22342557.1644   22342555.2464
 -19702267.17248 -15324849.68346  20875000.9304                   20874999.8014
  -6076119.01247  -4708333.50845  21683240.7894                   21683239.6684
 11  8 17 18 20 30.0000000  0  9G17G24G07G26G13G19G28G08G11
  28446116.03546  22202511.16544  23821217.5004                   23821219.0784
  16885625.42247  13188686.49744  22854204.5784                   22854206.2624
 -15795310.27348 -12269953.47347  20202355.1174                   20202353.4884
  34491507.45347  26910312.43643  23991837.7584                   23991838.5204
  10139983.21547   7922542.28744  22546797.6724   22546798.2774
   2411845.64147   1904656.55245  22608765.4304                   22608763.1254
  -2536184.51247  -1945717.13545  22314690.4454   22314689.0634
 -19878682.59447 -15462316.24846  20841430.1174                   20841429.4414
  -6228510.50047  -4827080.09945  21654241.5084                   21654240.7384
 11  8 17 18 21  0.0000000  0  9G17G24G07G26G13G19G28G08G11
  29804922.85247  23261321.81244  24079789.6954                   24079791.4384
  18280188.24247  14275358.88644  23119581.2974                   23119583.4264
 -14346314.12948 -11140865.59047  20478089.8364                   20478088.2854
  35864948.28146  27980526.04943  24253194.6094                   24253195.9734
  11704503.82447   9141649.08644  22844515.9534   22844516.4104
   3962453.22747   3112922.16345  22903836.2424                   22903833.5434
  -1107110.48047   -832152.94545  22586634.3284   22586632.6804
 -18479462.78147 -14372015.08446  21107693.0164                   21107691.9534
  -4805010.13347  -3717859.03345  21925125.0234                   21925124.0164
 11  8 17 18 21 30.0000000  0  9G17G24G07G26G13G19G28G08G11
  29588457.20346  23092647.47044  24038597.1954                   24038599.0274
  18099545.84847  14134598.65644  23085206.0554                   23085208.6334
 -14472362.71548 -11239085.27147  20454103.6564                   20454101.9494
  35663344.40246  27823432.14743  24214830.6644                   24214831.4614
  11693770.81647   9133285.60644  22842474.3284   22842474.3444
   3937900.60946   3093790.22945  22899164.1644                   22899161.7974
  -1253374.93447   -946125.25545  22558801.2664   22558799.9804
 -18655457.89548 -14509154.14046  21074201.8524                   21074201.0474
  -4956466.89147  -3835877.26645  21896303.8524                   21896302.5704
 11  8 17 18 22  0.0000000  0  9G17G24G07G26G13G19G28G08G11
  29372150.33247  22924096.74944  23997435.4614                   23997437.4344
  17919129.53147  13994014.64044  23050874.0234                   23050876.0514
 -14598028.20748 -11337006.44847  20430190.3754                   20430188.6644
  35462127.16446  27666639.47743  24176539.9454                   24176540.6994
  11683202.98847   9125050.77444  22840462.9384   22840463.8054
   3913607.72347   3074860.64445  22894541.1024                   22894539.1604
  -1399552.28947  -1060029.68745  22530984.2664   22530983.2034
 -18831237.90247 -14646125.57646  21040752.1884                   21040751.4454
  -5107451.70747  -3953527.76045  21867572.0554                   21867570.8714
 11  8 17 18 22 30.0000000  0  9G17G24G07G26G13G19G28G08G11
  29156006.09846  22755672.78744  23956304.0314                   23956306.1134
  17738944.27347  13853610.62744  23016585.7504                   23016587.9734
 -14723307.38748 -11434626.60047  20406350.2894                   20406348.6024
  35261300.93046  27510151.55443  24138324.6484                   24138323.8524
  11672799.36747   9116943.88944  22838483.2034   22838483.8554
   3889573.53147   3056132.66345  22889968.2114                   22889965.8324
  -1545641.73047  -1173865.62045  22503184.4694   22503183.1844
 -19006798.77048 -14782926.25146  21007344.0704                   21007342.9734
  -5257961.08648  -4070807.76845  21838930.9694                   21838930.2504
 11  8 17 18 23  0.0000000  0  9G17G24G07G26G13G19G28G08G11
  28940023.55946  22587374.89744  23915204.1094                   23915206.5084
  17558990.55147  13713387.04944  22982341.5004                   22982343.9494
 -14848201.02048 -11531946.31747  20382583.8594                   20382582.3524
  35060866.21146  27353968.70742  24100182.9454                   24100182.5664
  11662554.50447   9108960.70144  22836533.6024   22836535.2114
   3865792.64547   3037602.05245  22885442.5634                   22885440.0314
  -1691646.32847  -1287635.44145  22475400.8674   22475399.1844
 -19182140.44948 -14919556.13946  20973977.9384                   20973977.1954
  -5407994.90647  -4187717.21645  21810380.6804                   21810379.4574
 11  8 17 18 23 30.0000000  0  9G17G24G07G26G13G19G28G08G11
  28724206.41446  22419205.85544  23874134.6724                   23874137.9264
  17379272.84847  13573347.37344  22948142.6724                   22948144.8244
 -14972705.89148 -11628963.12547  20358891.6414                   20358889.7344
  34860827.21946  27198094.20742  24062116.8674                   24062116.0274
  11652466.62147   9101099.86444  22834614.5864   22834615.0864
   3842263.99647   3019268.00145  22880965.1804                   22880962.5314
  -1837565.39147  -1401338.57645  22447633.1334   22447631.7704
 -19357258.58648 -15056011.83146  20940653.6644                   20940653.0984
  -5557549.53148  -4304253.26845  21781921.4224                   21781920.3014
 11  8 17 18 24  0.0000000  0  9G17G24G07G26G13G19G28G08G11
  28508558.33246  22251168.55644  23833098.6414                   23833101.2664
  17199795.38747  13433494.91944  22913988.5554                   22913990.8284
 -15096819.11748 -11725674.73847  20335273.6484                   20335271.7854
  34661187.73446  27042531.03942  24024126.3674                   24024126.2894
  11642533.98047   9093359.96344  22832724.8204   22832725.5314
   3818986.05947   3001129.32945  22876535.8204                   22876533.6684
  -1983398.16847  -1514974.51645  22419882.1954   22419880.5124
 -19532149.64847 -15192290.57346  20907373.4844                   20907372.5824
  -5706621.97747  -4420413.58945  21753554.0314                   21753552.9534
 11  8 17 18 24 30.0000000  0  9G17G24G07G26G13G19G28G08G11
  28293076.91046  22083261.10844  23792093.6174                   23792095.9884
  17020557.37147  13293829.02244  22879880.7894                   22879882.5824
 -15220543.41848 -11822083.30147  20311729.6024                   20311728.0274
  34461946.64546  26887278.28643  23986211.6644                   23986212.6994
  11632749.73847   9085735.70044  22830862.5864   22830864.3054
   3795951.73847   2983180.46245  22872152.4774                   22872149.3524
  -2129149.80547  -1628547.20645  22392146.2424   22392145.2074
 -19706815.18748 -15328393.58846  20874135.6024                   20874134.5664
  -5855214.18747  -4536199.71745  21725277.5704                   21725276.4804
 11  8 17 18 25  0.0000000  0  9G17G24G07G26G13G19G28G08G11
  28077763.82446  21915484.84044  23751121.0474                   23751124.1414
  16841561.74246  13154352.00644  22845819.2584                   22845821.3634
 -15343877.24248 -11918187.59147  20288260.2274                   20288258.4884
  34263106.57446  26732338.01643  23948374.2664                   23948373.6884
  11623110.29747   9078224.31144  22829028.5944   22829028.8634
   3773158.08647   2965419.14345  22867814.5394                   22867812.3164
  -2274821.51247  -1742057.61045  22364426.1724   22364424.4064
 -19881253.09448 -15464319.23646  20840941.2584                   20840940.2934
  -6003324.76647  -4651610.52545  21697093.1174                   21697092.2814
 11  8 17 18 25 30.0000000  0  9G17G24G07G26G13G19G28G08G11
  27862621.33247  21747841.47744  23710180.7974                   23710182.7544
  16662811.79746  13015066.44544  22811804.0234                   22811806.0204
 -15466818.85548 -12013986.26746  20264864.9384                   20264863.2424
  34064669.94146  26577712.13743  23910612.5314                   23910612.9144
  11613613.04347   9070823.68844  22827221.6564   22827222.0744
   3750602.60247   2947843.38244  22863522.4144                   22863519.9104
  -2420414.08247  -1855506.37645  22336720.8594   22336719.2234
 -20055460.64548 -15600065.38946  20807790.8054                   20807789.5744
  -6150951.29747  -4766644.16245  21669000.9224                   21668999.6214
 11  8 17 18 26  0.0000000  0  9G17G24G07G26G13G19G28G08G11
  27647648.84447  21580330.57144  23669273.0944                   23669274.9454
  16484307.73847  12875972.48744  22777835.8594                   22777837.5274
 -15589369.46548 -12109480.25547  20241544.5314                   20241542.5164
  33866637.19146  26423400.99843  23872928.5394                   23872928.3834
  11604251.83247   9063529.05544  22825440.2114   22825441.4064
   3728279.85547   2930449.00145  22859274.8594                   22859271.8834
  -2565930.79747  -1968896.01045  22309030.3524   22309028.6914
 -20229437.99648 -15735632.14746  20774683.6564                   20774682.8794
  -6298094.18448  -4881300.93945  21641000.4384                   21640999.2344
 11  8 17 18 26 30.0000000  0  9G17G24G07G26G13G19G28G08G11
  27432846.17647  21412951.99744  23628397.1334                   23628398.3794
  16306050.58647  12737070.90944  22743915.0234                   22743916.2814
 -15711529.49648 -12204669.89847  20218297.8914                   20218296.4494
  33669008.60546  26269404.72143  23835320.6174                   23835321.5434
  11595021.87147   9056336.70544  22823683.8524   22823685.4384
   3706184.77047   2913231.99445  22855070.5004                   22855067.8714
  -2711374.55147  -2082228.78845  22281352.8284   22281351.2234
 -20403184.87547 -15871019.32646  20741620.8364                   20741619.6524
  -6444754.03547  -4995581.33546  21613091.9384                   21613090.8834
 11  8 17 18 27  0.0000000  0  9G17G24G07G26G13G19G28G08G11
  27218217.91047  21245709.32044  23587554.8134                   23587556.1724
  16128045.95747  12598366.09144  22710041.1174                   22710043.4924
 -15833295.00048 -12299552.12647  20195126.8524                   20195125.5234
  33471789.75446  26115727.74743  23797791.6414                   23797791.7974
  11585922.87547   9049246.42144  22821952.4384   22821953.6644
   3684317.43847   2896192.47645  22850909.2814                   22850906.8404
  -2856743.64147  -2195503.40945  22253689.9384   22253688.7194
 -20576696.20348 -16006222.94946  20708602.9064                   20708601.8634
  -6590926.29347  -5109481.78045  21585276.1804                   21585275.1914
 11  8 17 18 27 30.0000000  0  9G17G24G07G26G13G19G28G08G11
  27003764.08247  21078602.57644  23546745.3524                   23546746.1804
  15950295.06647  12459859.01144  22676216.6094                   22676218.5704
 -15954666.07048 -12394126.99247  20172030.6644                   20172029.2304
  33274981.28547  25962370.55443  23760340.0314                   23760340.3524
  11576949.94547   9042254.33744  22820245.1094   22820245.9774
   3662673.10947   2879326.68145  22846790.8444                   22846787.7664
  -3002040.70747  -2308721.88745  22226041.0474   22226039.2034
 -20749971.52048 -16141242.67346  20675629.5234                   20675628.6294
  -6736610.55547  -5223001.96645  21557553.6484                   21557552.2424
 11  8 17 18 28  0.0000000  0  9G17G24G07G26G13G19G28G08G11
  28364912.87547  22139238.14444  23805762.5394                   23805764.7894
  17348226.18447  13549156.06744  22942233.6484                   22942235.6414
 -14500218.14148 -11260790.94847  20448803.0004                   20448801.2704
  34654011.52047  27036939.64443  24022760.1334                   24022760.3674
  13143519.58647  10262957.78244  23118353.4844   23118353.8714
   5216668.99247   4090232.52845  23142505.8914                   23142503.5474
  -1571842.77347  -1194281.93045  22498198.5234   22498197.0234
 -19347582.92248 -15048472.34046  20942495.4924                   20942494.2934
  -5306381.08247  -4108537.43845  21829717.0864                   21829716.1214
 11  8 17 18 28 30.0000000  0  9G17G24G07G26G13G19G28G08G11
  28150809.31647  21972404.31544  23765020.1094                   23765021.8984
  17170987.28147  13411047.92844  22908506.5234                   22908507.6374
 -14620800.41448 -11354751.18447  20425856.7504                   20425855.2974
  34458027.08647  26884224.54943  23985466.4224                   23985466.7464
  13134784.82447  10256151.28944  23116691.5164   23116692.4414
   5195457.98447   4073704.44345  23138469.8524                   23138467.0044
  -1717002.78547  -1307393.60945  22470575.8284   22470573.6994
 -19520382.65648 -15183121.48046  20909612.4144                   20909611.7074
  -5451088.61747  -4221296.54945  21802179.9924                   21802178.7934
 11  8 17 18 29  0.0000000  0  9G17G24G07G26G13G19G28G08G11
  27936884.03146  21805709.47544  23724310.5554                   23724312.7034
  16994009.60547  13273143.34544  22874828.2114                   22874830.2664
 -14740985.65248 -11448402.02247  20402986.6094                   20402984.9534
  34262458.95347  26731833.84044  23948250.7894                   23948250.8094
  13126165.31647  10249434.61644  23115051.4924   23115052.5434
   5174459.83247   4057342.19745  23134473.8284                   23134472.4494
  -1862094.91047  -1420452.41545  22442965.2344   22442963.8164
 -19692940.43448 -15317582.09646  20876775.8054                   20876774.5904
  -5595304.66447  -4333672.67245  21774736.4454                   21774735.3594
 11  8 17 18 29 30.0000000  0  9G17G24G07G26G13G19G28G08G11
  27723136.18846  21639152.86744  23683635.9694                   23683638.1954
  16817293.27047  13135442.41344  22841200.2344                   22841202.0004
 -14860775.25048 -11541744.58447  20380191.4144                   20380189.8054
  34067307.08247  26579767.56244  23911114.2424                   23911115.2734
  13117655.10247  10242803.08344  23113432.4064   23113433.1844
   5153669.27347   4041141.68345  23130517.6644                   23130515.7814
  -2007123.18047  -1533461.43145  22415367.3984   22415365.7734
 -19865256.44148 -15451854.30646  20843985.2974                   20843984.3714
  -5739030.41047  -4445666.74245  21747386.4304                   21747385.2664
 11  8 17 18 30  0.0000000  0  9G17G24G07G26G13G19G28G08G11
  27509574.28947  21472741.16644  23642996.6884                   23642999.0204
  16640847.72747  12997952.46444  22807624.0314                   22807625.4344
 -14980161.09048 -11634772.51047  20357472.8834                   20357471.2854
  33872580.48447  26428032.58144  23874058.9144                   23874059.8794
  13109257.60547  10236259.39444  23111834.3594   23111835.7304
   5133089.55547   4025105.47745  23126601.4304                   23126599.1994
  -2152081.75447  -1646416.16345  22387782.2424   22387780.6954
 -20037321.77348 -15585931.17946  20811242.2114                   20811241.3164
  -5882257.24247  -4557272.04145  21720131.1094                   21720130.3444
 11  8 17 18 30 30.0000000  0  9G17G24G07G26G13G19G28G08G11
  27296195.05947  21306471.82144  23602392.0234                   23602394.5314
  16464670.23446  12860671.38044  22774098.0784                   22774099.8874
 -15099147.58648 -11727489.28347  20334830.5864                   20334828.8014
  33678276.21146  26276626.67744  23837084.6954                   23837084.6094
  13100964.27747  10229796.83844  23110256.5314   23110258.0864
   5112712.66446   4009227.35144  23122723.6174                   23122721.2304
  -2296976.66047  -1759321.27645  22360210.2274   22360208.3444
 -20209139.61748 -15719815.21046  20778546.4064                   20778545.5234
  -6024988.96147  -4668491.56145  21692970.5314                   21692969.1954
 11  8 17 18 31  0.0000000  0  9G17G24G07G26G13G19G28G08G11
  27083005.08247  21140349.91944  23561822.8914                   23561825.6994
  16288769.11746  12723605.65344  22740625.7344                   22740626.8444
 -15217728.18747 -11819889.75847  20312265.5554                   20312263.8634
  33484401.64147  26125555.67143  23800191.1484                   23800191.5554
  13092776.99247  10223416.97744  23108698.2974   23108700.6764
   5092540.74646   3993508.95644  23118884.9774                   23118883.1524
  -2441803.94947  -1872173.70045  22332649.9694   22332648.9844
 -20380702.65648 -15853500.69446  20745898.9694                   20745898.1134
  -6167219.00047  -4779320.14045  21665904.6094                   21665903.8984
 11  8 17 18 31 30.0000000  0  9G17G24G07G26G13G19G28G08G11
  26870004.41847  20974375.51344  23521290.3914                   23521292.5594
  16113145.53946  12586756.20444  22707205.0004                   22707206.5744
 -15335902.93448 -11911973.99547  20289777.3914                   20289776.1804
  33290957.81346  25974820.26743  23763379.9924                   23763380.0554
  13084691.10547  10217116.01744  23107160.1414   23107161.6334
   5072569.08647   3977946.55845  23115084.9304                   23115082.6564
  -2586566.16047  -1984975.41945  22305103.0634   22305102.0004
 -20552009.37548 -15986986.45146  20713300.4384                   20713299.6484
  -6308947.35548  -4889757.81045  21638934.6644                   21638933.9024
 11  8 17 18 32  0.0000000  0  9G17G24G07G26G13G19G28G08G11
  26657194.27047  20808549.58945  23480794.1804                   23480795.9694
  15937801.85947  12450124.84744  22673838.2114                   22673839.7974
 -15453671.44948 -12003741.68747  20267367.0864                   20267365.4224
  33097946.48046  25824421.87743  23726651.1954                   23726651.4304
  13076702.98847  10210891.32744  23105639.9304   23105641.9264
   5052794.30547   3962537.61045  23111322.0784                   23111320.5204
  -2731264.63347  -2097727.46545  22277567.9224   22277566.3484
 -20723058.39148 -16120271.40046  20680750.8284                   20680750.1294
  -6450173.13748  -4999803.84745  21612060.2344                   21612059.2894
 11  8 17 18 32 30.0000000  0  9G17G24G07G26G13G19G28G08G11
  26444576.96147  20642873.93245  23440333.7894                   23440335.7424
  15762741.13347  12313713.97044  22640525.1334                   22640526.8834
 -15571031.75048 -12095191.29247  20245034.3054                   20245032.6844
  32905370.35946  25674362.58543  23690004.5234                   23690004.9494
  13068809.76647  10204740.56244  23104137.8594   23104139.8714
   5033214.51247   3947280.57945  23107596.6024                   23107594.3834
  -2875900.15247  -2210430.46245  22250044.4774   22250043.0354
 -20893847.32448 -16253353.68646  20648250.9144                   20648250.1844
  -6590893.95347  -5109456.42345  21585281.9614                   21585280.8594
 11  8 17 18 33  0.0000000  0  9G17G24G07G26G13G19G28G08G11
  26232153.72747  20477349.47244  23399911.4224                   23399913.2934
  15587966.11347  12177525.72944  22607267.1414                   22607268.8634
 -15687983.12948 -12186322.25247  20222778.8524                   20222777.3054
  32713231.88347  25524644.32243  23653442.2584                   23653442.0434
  13061008.17247  10198661.20744  23102653.4614   23102655.6414
   5013826.20346   3932172.78144  23103906.3054                   23103904.4844
  -3020473.89148  -2323085.29745  22222532.7974   22222531.3204
 -21064373.55548 -16386231.26146  20615800.4844                   20615799.7074
  -6731108.95347  -5218714.85045  21558599.8914                   21558599.0084
 11  8 17 18 33 30.0000000  0  9G17G24G07G26G13G19G28G08G11
  26019927.03147  20311978.15144  23359525.8754                   23359526.6414
  15413480.26247  12041562.76744  22574063.4144                   22574065.1524
 -15804523.43748 -12277132.90747  20200601.9694                   20200600.4614
  32521533.52747  25375269.05743  23616963.1174                   23616962.8914
  13053295.45747  10192651.10643  23101186.2344   23101187.3714
   4994627.09847   3917212.39145  23100253.2664                   23100251.3094
  -3164985.97747  -2435692.10445  22195033.5234   22195031.8524
 -21234634.14848 -16518901.85946  20583401.2424                   20583400.4774
  -6870815.72747  -5327577.26245  21532015.0704                   21532013.5514
 11  8 17 18 34  0.0000000  0  9G17G24G07G26G13G19G28G08G11
  25807900.75847  20146762.98644  23319178.5164                   23319179.5274
  15239288.53947  11905829.01344  22540916.1334                   22540916.8984
 -15920649.25047 -12367620.58347  20178504.2894                   20178502.4104
  32330280.08647  25226240.37943  23580569.2504                   23580568.8794
  13045670.64547  10186709.42143  23099734.9844   23099736.8164
   4975616.44147   3902398.83545  23096635.9064                   23096633.4964
  -3309435.02747  -2548249.81545  22167545.5554   22167544.4734
 -21404624.92248 -16651362.20846  20551053.0234                   20551052.4104
  -7010010.98047  -5436041.08345  21505526.9304                   21505525.3364
